[[{"header":{"parameterUnit":"m.s-1","parameterCategory":1,"la1":30.6,"la2":29.2853,"lo1":-89.7004,"lo2":-87.6739,"dy":0.0162,"dx":0.0183,"nx":112,"ny":82,"refTime":"2025-11-22T12:00:00:Z","depth":0,"parameterNumber":2,"parameterNumberName":"U-component_of_WINDS"},"data":[0.0,0.0,0.0,0.0,0.0,0.0,0.0,0.0,0.0,0.0,0.0,0.0,0.0,0.0,0.0,0.0,0.0,0.0,0.0,0.0,0.0,0.0,0.0,0.0,0.0,0.0,0.0,0.0,0.0,0.0,0.0,0.0,0.0,0.0,0.0,0.0,0.0,0.0,0.0,0.0,0.0,0.0,0.0,0.0,0.0,0.0,0.0,0.0,0.0,0.0,0.0,0.0,0.0,0.0,0.0,0.0,0.0,0.0,0.0,0.0,0.0,0.0,0.0,0.0,0.0,0.0,0.0,0.0,0.0,0.0,0.0,0.0,0.0,0.0,0.0,0.0,0.0,0.0,0.0,0.0,0.0,0.0,0.0,0.0,0.0,0.0,0.0,0.0,0.0,0.0,-2.5878,-2.9485,-3.3305,-3.5368,-3.4726,-3.5082,-3.2979,-2.7419,0.0,0.0,0.0,0.0,0.0,0.0,0.0,0.0,0.0,0.0,0.0,0.0,0.0,0.0,0.0,0.0,0.0,0.0,0.0,0.0,0.0,0.0,0.0,0.0,0.0,0.0,0.0,0.0,0.0,0.0,0.0,0.0,0.0,0.0,0.0,0.0,0.0,0.0,0.0,0.0,0.0,0.0,0.0,0.0,0.0,0.0,0.0,0.0,0.0,0.0,0.0,0.0,0.0,0.0,0.0,0.0,0.0,0.0,0.0,0.0,0.0,0.0,0.0,0.0,0.0,0.0,0.0,0.0,0.0,0.0,0.0,0.0,0.0,0.0,0.0,0.0,0.0,0.0,0.0,0.0,0.0,0.0,0.0,0.0,0.0,0.0,0.0,0.0,0.0,0.0,0.0,0.0,0.0,0.0,0.0,0.0,0.0,0.0,0.0,0.0,0.0,0.0,0.0,0.0,-2.686,-3.3,-3.4844,-3.5571,-3.5453,-3.3845,-3.1657,-2.8842,0.0,0.0,0.0,0.0,0.0,0.0,0.0,0.0,0.0,0.0,0.0,0.0,0.0,0.0,0.0,0.0,0.0,0.0,0.0,0.0,0.0,0.0,0.0,0.0,0.0,0.0,0.0,0.0,0.0,0.0,0.0,0.0,0.0,0.0,0.0,0.0,0.0,0.0,0.0,0.0,0.0,0.0,0.0,0.0,0.0,0.0,0.0,0.0,0.0,0.0,0.0,0.0,0.0,0.0,0.0,0.0,0.0,0.0,0.0,0.0,0.0,0.0,0.0,0.0,0.0,0.0,0.0,0.0,0.0,0.0,0.0,0.0,0.0,0.0,0.0,0.0,0.0,0.0,0.0,0.0,0.0,0.0,0.0,0.0,0.0,0.0,0.0,0.0,0.0,0.0,0.0,0.0,0.0,0.0,0.0,0.0,0.0,0.0,0.0,0.0,0.0,0.0,0.0,-2.6404,-2.9313,-3.3998,-3.5165,-3.5622,-3.5622,-3.4167,-3.2064,-2.918,-2.5721,0.0,0.0,0.0,0.0,0.0,0.0,0.0,0.0,0.0,0.0,0.0,0.0,0.0,0.0,0.0,0.0,0.0,0.0,0.0,0.0,0.0,0.0,0.0,0.0,0.0,0.0,0.0,0.0,0.0,0.0,0.0,0.0,0.0,0.0,0.0,0.0,0.0,0.0,0.0,0.0,0.0,0.0,0.0,0.0,0.0,0.0,0.0,0.0,0.0,0.0,0.0,0.0,0.0,0.0,0.0,0.0,0.0,0.0,0.0,0.0,0.0,0.0,0.0,0.0,0.0,0.0,0.0,0.0,0.0,0.0,0.0,0.0,0.0,0.0,0.0,0.0,0.0,0.0,0.0,0.0,0.0,0.0,0.0,0.0,0.0,0.0,0.0,0.0,0.0,0.0,0.0,0.0,0.0,0.0,0.0,0.0,0.0,0.0,0.0,0.0,0.0,0.0,-3.0192,-3.1681,-3.4455,-3.5267,-3.5554,-3.5368,-3.3977,-3.1819,-2.8655,-2.4385,0.0,0.0,0.0,0.0,0.0,0.0,0.0,0.0,0.0,0.0,0.0,0.0,0.0,0.0,0.0,0.0,0.0,0.0,0.0,0.0,0.0,0.0,0.0,0.0,0.0,0.0,0.0,0.0,0.0,0.0,0.0,0.0,0.0,0.0,0.0,0.0,0.0,0.0,0.0,0.0,0.0,0.0,0.0,0.0,0.0,0.0,0.0,0.0,0.0,0.0,0.0,0.0,0.0,0.0,0.0,0.0,0.0,0.0,0.0,0.0,0.0,0.0,0.0,0.0,0.0,0.0,0.0,0.0,0.0,0.0,0.0,0.0,0.0,0.0,0.0,0.0,0.0,0.0,0.0,0.0,0.0,0.0,0.0,0.0,0.0,0.0,0.0,0.0,0.0,0.0,0.0,0.0,0.0,0.0,0.0,0.0,0.0,0.0,0.0,0.0,0.0,0.0,-3.0412,-3.3,-3.5301,-3.5588,-3.5334,-3.4641,-3.2009,-2.9367,-2.6996,-2.2044,0.0,0.0,0.0,0.0,0.0,0.0,0.0,0.0,0.0,0.0,0.0,0.0,0.0,0.0,0.0,0.0,0.0,0.0,0.0,0.0,0.0,0.0,0.0,0.0,0.0,0.0,0.0,0.0,0.0,0.0,0.0,0.0,0.0,0.0,0.0,0.0,0.0,0.0,0.0,0.0,0.0,0.0,0.0,0.0,0.0,0.0,0.0,0.0,0.0,0.0,0.0,0.0,0.0,0.0,0.0,0.0,0.0,0.0,0.0,0.0,0.0,0.0,0.0,0.0,0.0,0.0,0.0,0.0,0.0,0.0,0.0,0.0,0.0,0.0,0.0,0.0,0.0,0.0,0.0,0.0,0.0,0.0,0.0,0.0,0.0,0.0,0.0,0.0,0.0,0.0,0.0,0.0,0.0,0.0,0.0,0.0,0.0,0.0,0.0,0.0,0.0,0.0,-3.0328,-3.2645,-3.5334,-3.5622,-3.5318,-3.4556,-3.2628,-3.0108,-2.6894,0.0,0.0,0.0,0.0,0.0,0.0,0.0,0.0,0.0,0.0,0.0,0.0,0.0,0.0,0.0,0.0,0.0,0.0,0.0,0.0,0.0,0.0,0.0,0.0,0.0,0.0,0.0,0.0,0.0,0.0,0.0,0.0,0.0,0.0,0.0,0.0,0.0,0.0,0.0,0.0,0.0,0.0,0.0,0.0,0.0,0.0,0.0,0.0,0.0,0.0,0.0,0.0,0.0,0.0,0.0,0.0,0.0,0.0,0.0,0.0,0.0,0.0,0.0,0.0,0.0,0.0,0.0,0.0,0.0,0.0,0.0,0.0,0.0,0.0,0.0,0.0,0.0,0.0,0.0,0.0,0.0,0.0,0.0,0.0,0.0,0.0,0.0,0.0,0.0,0.0,0.0,0.0,0.0,0.0,0.0,0.0,0.0,0.0,0.0,0.0,0.0,0.0,-2.8228,-3.0683,-3.2763,-3.503,-3.547,-3.5115,-3.3897,-3.2222,-2.9736,-2.6201,0.0,0.0,0.0,0.0,0.0,0.0,0.0,0.0,0.0,0.0,0.0,0.0,0.0,0.0,0.0,0.0,0.0,0.0,0.0,0.0,0.0,0.0,0.0,0.0,0.0,0.0,0.0,0.0,0.0,0.0,0.0,0.0,0.0,0.0,0.0,0.0,0.0,0.0,0.0,0.0,0.0,0.0,0.0,0.0,0.0,0.0,0.0,0.0,0.0,0.0,0.0,0.0,0.0,0.0,0.0,0.0,0.0,0.0,0.0,0.0,0.0,0.0,0.0,0.0,0.0,0.0,0.0,0.0,0.0,0.0,0.0,0.0,0.0,0.0,0.0,0.0,0.0,0.0,0.0,0.0,0.0,0.0,0.0,0.0,0.0,0.0,0.0,0.0,0.0,0.0,0.0,0.0,0.0,0.0,0.0,0.0,0.0,0.0,0.0,0.0,0.0,0.0,-2.8383,-3.1562,-3.3677,-3.4404,-3.5148,-3.4692,-3.2517,-3.0281,-2.7689,0.0,0.0,0.0,0.0,0.0,0.0,0.0,0.0,0.0,0.0,0.0,0.0,0.0,0.0,0.0,0.0,0.0,0.0,0.0,0.0,0.0,0.0,0.0,0.0,0.0,0.0,0.0,0.0,0.0,0.0,0.0,0.0,0.0,0.0,0.0,0.0,0.0,0.0,0.0,0.0,0.0,0.0,0.0,0.0,0.0,0.0,0.0,0.0,0.0,0.0,0.0,0.0,0.0,0.0,0.0,0.0,0.0,0.0,0.0,0.0,0.0,0.0,0.0,0.0,0.0,0.0,0.0,0.0,0.0,0.0,0.0,0.0,0.0,0.0,0.0,0.0,0.0,0.0,0.0,0.0,0.0,0.0,0.0,0.0,0.0,0.0,0.0,0.0,0.0,0.0,0.0,0.0,0.0,0.0,0.0,0.0,0.0,0.0,0.0,0.0,0.0,0.0,0.0,-2.7194,-3.0594,-3.2899,-3.3643,-3.3931,-3.3575,-3.2374,-3.0281,-2.7689,-2.4709,0.0,0.0,0.0,0.0,0.0,0.0,0.0,0.0,0.0,0.0,0.0,0.0,0.0,0.0,0.0,0.0,0.0,0.0,0.0,0.0,0.0,0.0,0.0,0.0,0.0,0.0,0.0,0.0,0.0,0.0,0.0,0.0,0.0,0.0,0.0,0.0,0.0,0.0,0.0,0.0,0.0,0.0,0.0,0.0,0.0,0.0,0.0,0.0,0.0,0.0,0.0,0.0,0.0,0.0,0.0,0.0,0.0,0.0,0.0,0.0,0.0,0.0,0.0,0.0,0.0,0.0,0.0,0.0,0.0,0.0,0.0,0.0,0.0,0.0,0.0,0.0,0.0,0.0,0.0,0.0,0.0,0.0,0.0,0.0,0.0,0.0,0.0,0.0,0.0,0.0,0.0,0.0,0.0,0.0,0.0,0.0,0.0,0.0,0.0,0.0,0.0,0.0,-2.6733,-3.018,-3.2459,-3.2899,-3.322,-3.2983,-3.1935,-3.0362,-2.8027,-2.4726,0.0,0.0,0.0,0.0,0.0,0.0,0.0,0.0,0.0,0.0,0.0,0.0,0.0,0.0,0.0,0.0,0.0,0.0,0.0,0.0,0.0,0.0,0.0,0.0,0.0,0.0,0.0,0.0,0.0,0.0,0.0,0.0,0.0,0.0,0.0,0.0,0.0,0.0,0.0,0.0,0.0,0.0,0.0,0.0,0.0,0.0,0.0,0.0,0.0,0.0,0.0,0.0,0.0,0.0,0.0,0.0,0.0,0.0,0.0,0.0,0.0,0.0,0.0,0.0,0.0,0.0,0.0,0.0,0.0,0.0,0.0,0.0,0.0,0.0,0.0,0.0,0.0,0.0,0.0,0.0,0.0,0.0,0.0,0.0,0.0,0.0,0.0,0.0,0.0,0.0,0.0,0.0,0.0,0.0,0.0,0.0,0.0,0.0,0.0,0.0,0.0,0.0,-2.6598,-3.0079,-3.2212,-3.2212,-3.2797,-3.2662,-3.1309,-3.0463,-2.8484,-2.4946,0.0,0.0,0.0,0.0,0.0,0.0,0.0,0.0,0.0,0.0,0.0,0.0,0.0,0.0,0.0,0.0,0.0,0.0,0.0,0.0,0.0,0.0,0.0,0.0,0.0,0.0,0.0,0.0,0.0,0.0,0.0,0.0,0.0,0.0,0.0,0.0,0.0,0.0,0.0,0.0,0.0,0.0,0.0,0.0,0.0,0.0,0.0,0.0,0.0,0.0,0.0,0.0,0.0,0.0,0.0,0.0,0.0,0.0,0.0,0.0,-1.7196,-1.577,0.0,0.0,0.0,0.0,0.0,0.0,0.0,0.0,0.0,0.0,0.0,0.0,0.0,0.0,0.0,0.0,0.0,0.0,0.0,0.0,0.0,0.0,0.0,0.0,0.0,0.0,0.0,0.0,0.0,0.0,0.0,0.0,0.0,0.0,0.0,0.0,0.0,0.0,0.0,0.0,-2.5399,-2.9098,-3.1427,-3.1427,-3.1579,-3.1529,-3.1224,-2.9973,-2.8366,-2.6353,-2.2327,0.0,0.0,0.0,0.0,0.0,0.0,0.0,0.0,0.0,0.0,0.0,0.0,0.0,0.0,0.0,0.0,0.0,0.0,0.0,0.0,0.0,0.0,0.0,0.0,0.0,0.0,0.0,0.0,0.0,0.0,0.0,0.0,0.0,0.0,0.0,0.0,0.0,0.0,0.0,0.0,0.0,0.0,0.0,0.0,0.0,0.0,0.0,0.0,0.0,0.0,0.0,0.0,0.0,0.0,0.0,0.0,0.0,0.0,0.0,-2.0115,-1.8642,0.0,0.0,0.0,0.0,0.0,0.0,0.0,0.0,0.0,0.0,0.0,0.0,0.0,0.0,0.0,0.0,0.0,0.0,0.0,0.0,0.0,0.0,0.0,0.0,0.0,0.0,0.0,0.0,0.0,0.0,0.0,0.0,0.0,0.0,0.0,0.0,0.0,0.0,0.0,0.0,-2.5399,-2.892,-3.119,-3.119,-3.119,-3.119,-3.119,-3.0159,-2.8721,-2.681,-2.3833,0.0,0.0,0.0,0.0,0.0,0.0,0.0,0.0,0.0,0.0,0.0,0.0,0.0,0.0,0.0,0.0,0.0,0.0,0.0,0.0,0.0,0.0,0.0,0.0,0.0,0.0,0.0,0.0,0.0,0.0,0.0,0.0,0.0,0.0,0.0,0.0,0.0,0.0,0.0,0.0,0.0,0.0,0.0,0.0,0.0,0.0,0.0,0.0,0.0,0.0,0.0,0.0,0.0,-2.346,-2.4448,-2.551,-2.6296,-2.6672,-2.6497,-2.3889,-2.2565,-2.2069,-2.0288,0.0,0.0,0.0,0.0,0.0,0.0,0.0,0.0,0.0,0.0,0.0,0.0,0.0,0.0,0.0,0.0,0.0,0.0,0.0,0.0,0.0,0.0,-2.2825,-2.3874,-2.4925,-2.4506,-2.0051,0.0,0.0,0.0,0.0,0.0,0.0,0.0,0.0,0.0,0.0,0.0,-2.5966,-2.9173,-3.119,-3.119,-3.119,-3.119,-3.119,-3.0649,-2.9431,-2.7418,-2.5896,-2.3692,0.0,0.0,0.0,0.0,0.0,0.0,0.0,0.0,0.0,0.0,0.0,0.0,0.0,0.0,0.0,0.0,0.0,0.0,0.0,0.0,0.0,0.0,0.0,0.0,0.0,0.0,0.0,0.0,0.0,0.0,0.0,0.0,-1.1755,-1.338,0.0,0.0,0.0,0.0,0.0,0.0,0.0,0.0,0.0,0.0,0.0,0.0,0.0,-2.2158,-2.2951,-2.5241,-2.6243,-2.5974,-2.7799,-2.8757,-2.9004,-3.0278,-3.0853,-3.0731,-3.0983,0.0,-2.4134,-2.331,0.0,0.0,0.0,0.0,0.0,0.0,0.0,0.0,0.0,0.0,0.0,0.0,0.0,0.0,0.0,0.0,0.0,0.0,0.0,0.0,0.0,0.0,-2.7303,-2.6402,-2.6741,-2.7055,-2.6091,-2.3412,-2.1049,-2.0681,-1.9123,-1.7653,0.0,0.0,0.0,0.0,0.0,0.0,-2.6783,-2.9492,-3.119,-3.119,-3.119,-3.119,-3.119,-3.1106,-3.0649,-2.9719,-2.823,-2.6573,-2.4842,-2.2529,0.0,0.0,0.0,0.0,0.0,0.0,0.0,0.0,0.0,0.0,0.0,0.0,0.0,0.0,0.0,0.0,0.0,0.0,0.0,0.0,0.0,0.0,0.0,0.0,0.0,0.0,0.0,0.0,0.0,-1.1282,-1.3019,-1.4359,-1.4339,-1.4156,0.0,0.0,0.0,0.0,0.0,0.0,0.0,0.0,0.0,-2.2966,-2.4223,-2.536,-2.6393,-2.7934,-2.9169,-3.0063,-3.0835,-3.1634,-3.2492,-3.2612,-3.2685,-3.2632,-3.3016,-3.1581,-2.8921,-2.7141,-2.5061,-2.2921,0.0,0.0,0.0,0.0,-2.2039,-2.2637,-2.3849,-2.4208,-2.4044,-2.361,0.0,0.0,0.0,0.0,0.0,0.0,0.0,-2.3447,-2.4687,-2.6799,-2.8591,-2.8734,-2.9011,-2.9275,-2.9495,-2.7596,-2.533,-2.34,-2.2368,-2.1044,-1.8587,-1.9264,0.0,0.0,0.0,-2.7081,-2.8632,-3.0937,-3.2442,-3.2442,-3.2053,-3.1799,-3.1799,-3.1427,-3.0886,-3.0159,-2.9482,-2.8488,-2.7194,-2.5009,-2.2907,0.0,0.0,0.0,0.0,0.0,0.0,0.0,0.0,0.0,0.0,0.0,0.0,0.0,0.0,0.0,0.0,0.0,0.0,0.0,0.0,0.0,0.0,0.0,0.0,0.0,0.0,0.0,0.0,-1.2997,-1.4622,-1.5414,-1.6335,-1.6528,0.0,0.0,0.0,0.0,0.0,0.0,-2.2143,-2.3744,-2.5241,-2.6587,-2.7425,-2.8427,-2.9594,-3.0253,-3.1369,-3.2875,-3.2792,-3.3306,-3.4355,-3.4014,-3.3668,-3.3484,-3.3728,-3.3292,-3.2347,-3.0238,-2.8278,-2.6557,-2.5899,-2.533,-2.5001,-2.6004,-2.6273,-2.6408,-2.8397,-2.8757,-2.8188,-2.7395,-2.6452,-2.5255,-2.3116,0.0,0.0,0.0,0.0,-2.5151,-2.7485,-2.8592,-2.937,-3.0492,-3.0776,-3.0859,-3.1311,-3.0448,-2.8931,-2.6569,-2.5874,-2.481,-2.1926,-2.2995,0.0,-2.3388,-2.6617,-2.9504,-3.0526,-3.2104,-3.3119,-3.3119,-3.2459,-3.2002,-3.2002,-3.1512,-3.097,-3.0429,-3.0378,-2.9881,-2.8819,-2.7367,-2.576,-2.3995,0.0,0.0,0.0,0.0,0.0,0.0,0.0,0.0,0.0,0.0,0.0,0.0,0.0,0.0,0.0,0.0,0.0,0.0,0.0,0.0,0.0,0.0,0.0,0.0,0.0,0.0,0.0,0.0,0.0,-1.722,-1.8809,0.0,0.0,0.0,0.0,-2.1356,-2.2622,-2.4208,-2.6198,-2.6976,-2.7993,-2.934,-3.0627,-3.1614,-3.2317,-3.2976,-3.3396,-3.3456,-3.3425,-3.3469,-3.3607,-3.4296,-3.4237,-3.3546,-3.4296,-3.3796,-3.2452,-3.1704,-3.0597,-2.931,-2.8652,-2.8382,-2.8368,-2.8427,-2.919,-3.0223,-3.0357,-3.0387,-3.0447,-3.1046,-2.9953,-2.8263,-2.747,-2.6348,0.0,0.0,-2.6856,-2.7694,-2.9116,-2.9939,-3.0597,-3.1258,-3.1422,-3.148,-3.148,-3.0968,-3.0533,-3.0891,-2.977,-2.8813,-2.8834,0.0,-2.8757,-2.8982,-3.0174,-3.1343,-3.207,-3.2273,-3.2341,-3.2341,-3.1681,-3.1258,-3.1258,-3.1207,-3.1173,-3.114,-3.114,-3.0784,-3.0023,-2.9486,-2.8228,-2.6085,-2.327,0.0,0.0,0.0,0.0,0.0,0.0,0.0,0.0,0.0,0.0,0.0,0.0,0.0,0.0,0.0,0.0,0.0,0.0,0.0,0.0,0.0,0.0,0.0,0.0,0.0,0.0,0.0,0.0,-2.0227,-2.1981,0.0,-2.238,-2.3113,-2.4,-2.4792,-2.5659,-2.7021,-2.8996,-2.9759,-3.0731,-3.2063,-3.2557,-3.2901,-3.314,-3.338,-3.3999,-3.493,-3.4411,-3.4411,-3.493,-3.5172,-3.4888,-3.4191,-3.4945,-3.4691,-3.375,-3.3521,-3.2622,-3.145,-3.121,-3.1375,-3.1704,-3.127,-3.1405,-3.1734,-3.1315,-3.1165,-3.121,-3.1392,-3.0761,-2.9774,-2.9535,-2.9131,-2.8801,-2.9041,-2.928,-2.9669,-3.0597,-3.1001,-3.1225,-3.1422,-3.1482,-3.1482,-3.1482,-3.1345,-3.1339,-3.2033,-3.0987,-2.9908,-2.9589,-3.05,-3.1,-3.0244,-3.1942,-3.3237,-3.3034,-3.3406,-3.3525,-3.3051,-3.2341,-3.2087,-3.2577,-3.1749,-3.1393,-3.1867,-3.1444,-3.1072,-3.0818,-2.9748,-2.863,-2.7572,-2.5382,-2.2828,0.0,0.0,0.0,0.0,0.0,0.0,0.0,0.0,0.0,0.0,0.0,0.0,0.0,0.0,0.0,0.0,0.0,0.0,0.0,0.0,0.0,0.0,0.0,0.0,0.0,-1.8275,-2.0625,-2.2203,-2.4523,-2.5789,-2.5188,-2.6026,-2.6976,-2.7844,-2.8532,-2.9669,-3.142,-3.1734,-3.2362,-3.3455,-3.3275,-3.3275,-3.3499,-3.3698,-3.4309,-3.5292,-3.5027,-3.5014,-3.5342,-3.5031,-3.45,-3.3888,-3.4145,-3.3919,-3.3517,-3.3517,-3.3135,-3.2542,-3.2766,-3.311,-3.344,-3.3006,-3.2841,-3.2781,-3.2347,-3.2048,-3.1869,-3.1869,-3.1405,-3.0851,-3.0851,-3.0851,-3.0851,-3.0851,-3.0851,-3.0956,-3.1362,-3.1482,-3.1482,-3.1482,-3.1482,-3.1482,-3.1482,-3.1482,-3.1796,-3.2734,-3.2233,-3.1541,-3.1316,-3.2517,-3.3223,-3.2326,-3.3725,-3.4692,-3.4218,-3.4353,-3.4218,-3.3491,-3.273,-3.2391,-3.2645,-3.1529,-3.114,-3.1867,-3.0987,-3.0565,-3.0818,-2.9381,-2.8389,-2.7987,-2.5948,-2.3741,-2.1386,0.0,0.0,0.0,0.0,0.0,0.0,0.0,0.0,0.0,0.0,0.0,0.0,0.0,0.0,0.0,0.0,0.0,0.0,0.0,0.0,0.0,0.0,0.0,-1.7665,-2.0813,-2.3077,-2.3182,-2.6418,-2.7936,-2.6192,-2.7676,-2.9235,-3.0477,-3.118,-3.2123,-3.3395,-3.2856,-3.2826,-3.3469,-3.2886,-3.2841,-3.3546,-3.4161,-3.4465,-3.4523,-3.5221,-3.524,-3.4553,-3.3921,-3.3262,-3.2633,-3.1955,-3.1642,-3.1584,-3.1584,-3.1973,-3.2602,-3.3215,-3.3484,-3.3499,-3.3469,-3.3455,-3.344,-3.344,-3.3021,-3.2482,-3.2497,-3.2078,-3.1497,-3.1497,-3.1497,-3.1497,-3.1482,-3.1482,-3.1482,-3.1482,-3.1482,-3.1482,-3.1482,-3.1482,-3.1482,-3.1482,-3.1482,-3.1894,-3.3287,-3.3582,-3.3836,-3.4528,-3.5161,-3.5622,-3.5622,-3.5622,0.0,-3.5588,-3.4928,-3.4184,-3.3491,-3.273,-3.2019,-3.136,-3.0615,-3.048,-3.119,-2.9837,-2.9347,-3.0074,-2.8653,-2.7708,-2.7369,-2.5013,-2.3204,-2.195,0.0,0.0,0.0,0.0,0.0,0.0,0.0,0.0,0.0,0.0,0.0,0.0,0.0,0.0,0.0,0.0,0.0,0.0,0.0,0.0,0.0,-1.7989,-2.0067,-2.0744,-2.2791,-2.5091,-2.7474,-2.9074,-3.0167,-3.0636,-3.1096,-3.1584,-3.1928,-3.2138,-3.2407,-3.2766,-3.2617,-3.2826,-3.3469,-3.332,-3.3517,-3.4235,-3.3917,-3.4036,-3.4587,-3.4762,-3.4524,-3.3938,-3.53,-3.523,-3.4133,-3.4931,-3.4652,-3.3683,-3.3683,-3.3484,-3.32,-3.2901,-3.308,-3.344,-3.2961,-3.2482,-3.2078,-3.2078,-3.1958,-3.1884,-3.2362,-3.2392,-3.2243,-3.2243,-3.2243,-3.2138,-3.1616,-3.1482,-3.1482,-3.1482,-3.1482,-3.1482,-3.1482,-3.1482,-3.1482,-3.1482,-3.1482,-3.1796,-3.2695,-3.3287,-3.3987,-3.5115,-3.547,-3.5622,-3.5622,-3.5622,-3.5419,-3.4878,-3.4167,-3.3626,-3.3423,-3.273,-3.2628,-3.3508,-3.2425,-3.1765,-3.1968,-3.0598,-2.9888,-3.0091,-2.947,-2.9057,-2.8951,-2.7166,-2.5923,0.0,0.0,0.0,0.0,0.0,0.0,0.0,0.0,0.0,0.0,0.0,0.0,0.0,0.0,0.0,0.0,0.0,0.0,0.0,0.0,0.0,0.0,-2.0001,-2.2233,-2.401,-2.5466,-2.723,-2.968,-3.0537,-3.124,-3.2033,-3.2093,-3.2213,-3.2497,-3.2512,-3.2632,-3.2901,-3.2662,-3.2691,-3.308,-3.2826,-3.2825,-3.3233,-3.3177,-3.3459,-3.419,-3.4791,-3.4841,-3.4473,-3.5778,-3.5682,-3.4597,-3.5118,-3.4841,-3.4073,-3.4073,-3.3864,-3.3455,0.0,0.0,0.0,0.0,-3.2677,-3.2362,-3.2362,-3.2362,-3.2377,-3.2482,-3.2512,-3.2467,-3.2183,-3.2302,-3.2377,-3.1719,-3.1676,-3.1884,-3.1541,-3.1482,-3.1482,-3.1482,-3.1482,-3.1582,-3.1894,-3.1951,-3.2256,-3.3235,-3.3735,0.0,-3.5424,-3.5622,-3.5622,-3.5622,-3.5622,-3.547,-3.503,-3.459,-3.4218,-3.3897,-3.3474,-3.3423,-3.3981,-3.2949,0.0,0.0,0.0,-2.9895,-2.9433,-2.9247,0.0,0.0,0.0,0.0,0.0,-2.9017,0.0,0.0,-2.6176,-2.6487,0.0,0.0,0.0,0.0,0.0,0.0,0.0,0.0,0.0,0.0,0.0,0.0,0.0,0.0,0.0,0.0,-2.1648,-2.3962,-2.6955,-2.8297,-2.9342,-3.0496,-3.1165,-3.1497,-3.1644,-3.1586,-3.1884,-3.2467,-3.2512,-3.2736,-3.3245,-3.2721,0.0,0.0,0.0,-3.1539,-3.164,-3.2348,-3.3005,-3.3607,-3.5049,-3.5594,-3.5475,-3.5717,-3.5363,-3.4562,-3.4061,-3.3832,-3.3724,-3.3724,-3.3724,-3.3709,-3.3559,-3.3499,-3.3499,-3.3499,-3.3499,-3.3499,-3.3499,0.0,0.0,-3.2811,-3.2617,-3.2512,-3.1928,-3.2153,-3.2497,-3.1913,-3.2168,-3.2497,-3.1898,-3.1764,-3.1676,-3.1601,-3.1687,-3.1887,-3.2453,-3.2641,-3.3093,-3.4333,-3.4576,-3.4783,-3.547,-3.5622,-3.5622,-3.5622,-3.5622,-3.5622,-3.5622,-3.5537,-3.5267,-3.4692,-3.4539,0.0,-3.3711,-3.2966,-3.2493,-3.2408,-3.1123,-2.9941,-2.9051,-2.9069,-2.9814,-3.1255,-3.1283,-3.2156,-3.3935,-3.4669,-3.4743,-3.4119,-3.0356,-3.0136,0.0,0.0,0.0,0.0,0.0,0.0,0.0,0.0,0.0,0.0,0.0,0.0,0.0,0.0,0.0,-2.1531,-2.4332,-2.6754,-2.7861,-2.9695,-3.1008,-3.1258,-3.1392,-3.1676,-3.2273,-3.2332,-3.2377,-3.2497,-3.2512,-3.2332,-3.1943,-3.1735,-3.1719,-3.1719,-3.1541,-3.1796,-3.2382,-3.3002,-3.3417,-3.3528,-3.495,0.0,-3.4767,-3.5943,-3.609,-3.5334,-3.5814,-3.5658,-3.5115,-3.5115,-3.5115,-3.5011,-3.3918,-3.3499,-3.3499,-3.3499,-3.3499,-3.3499,-3.3499,-3.3499,-3.3469,-3.335,-3.3305,-3.3275,-3.3155,-3.32,0.0,-3.3155,-3.3215,-3.3275,-3.3155,-3.311,-3.2976,-3.2452,-3.274,-3.2998,-3.2655,-3.3039,-3.3633,-3.4431,-3.4576,-3.4783,-3.547,-3.5622,-3.5622,-3.5622,-3.5622,-3.5622,-3.5622,-3.5081,-3.4895,-3.5351,-3.4861,-3.4675,-3.5148,-3.4506,-3.3812,-3.322,-3.2357,-3.1935,-3.2137,-3.2689,-3.3195,-3.3628,-3.364,-3.4014,-3.4752,-3.4917,-3.5624,-3.6725,-3.4614,-3.3927,0.0,0.0,0.0,0.0,0.0,0.0,0.0,0.0,0.0,0.0,0.0,-1.7375,-1.8756,0.0,-2.1762,-2.385,-2.5834,-2.7598,-2.9031,-3.0187,-3.1029,-3.1467,-3.1482,-3.1601,-3.1988,-3.2018,-3.2018,-3.2018,-3.2018,-3.1884,-3.1497,-3.1482,-3.1482,-3.1482,-3.1854,-3.2193,-3.2566,-3.3206,-3.3686,-3.4001,-3.5102,-3.5388,-3.5053,-3.615,-3.624,-3.5535,-3.5917,-3.5831,-3.5504,-3.5504,-3.5504,-3.5429,-3.4756,-3.4502,-3.4502,-3.4502,-3.4502,-3.4502,-3.4502,-3.4502,-3.4442,-3.4098,-3.3978,-3.3918,-3.3589,-3.3724,-3.3918,-3.3589,-3.3724,-3.3903,-3.3589,-3.3774,-3.4042,-3.3707,-3.4146,-3.458,-3.4217,-3.442,-3.4725,-3.5024,-3.5098,-3.5207,-3.5515,-3.5622,-3.5622,-3.5622,-3.5622,-3.5622,-3.5622,-3.5301,-3.5199,-3.5571,-3.5284,-3.5216,-3.5588,-3.4928,-3.4336,-3.3964,-3.3254,-3.3059,-3.3554,-3.4149,-3.4765,-3.5483,-3.5774,-3.6206,-3.6853,-3.6853,-3.7294,-3.8065,-3.7257,-3.6853,0.0,0.0,0.0,0.0,0.0,0.0,0.0,-1.4762,-1.5658,-1.7739,-1.8618,-1.9572,-2.1468,-2.245,-2.3718,-2.5928,-2.697,-2.8201,-3.0061,-3.045,-3.0777,-3.1409,-3.1482,-3.1482,-3.1482,-3.1482,-3.1482,-3.1482,-3.1482,-3.1482,-3.1482,-3.1601,-3.1661,-3.1661,-3.2362,-3.2706,-3.2706,-3.3365,-3.3955,-3.4493,-3.5245,-3.5523,-3.5493,-3.6153,-3.6054,-3.5504,-3.5504,-3.5504,-3.5504,-3.5504,-3.5504,-3.5504,-3.5504,-3.5504,-3.5504,-3.5504,-3.5504,-3.5504,-3.5504,-3.5504,-3.5415,-3.4861,-3.4666,-3.464,-3.4209,-3.4467,-3.4846,-3.4425,-3.4713,-3.5002,-3.4471,-3.4799,-3.5279,-3.5138,-3.5681,-3.6125,-3.5941,-3.6059,-3.6105,-3.6072,-3.6062,-3.6011,-3.5876,-3.5842,-3.5791,-3.5639,-3.5622,-3.5622,-3.5622,-3.5622,-3.5622,-3.5622,-3.5622,-3.5622,-3.5622,-3.5064,-3.4709,-3.4709,-3.4167,-3.4023,-3.4518,-3.4911,-3.5705,-3.6922,-3.7366,-3.7967,-3.8707,-3.8707,-3.8707,-3.8707,-3.8707,-3.8707,-1.0558,-1.0799,-1.1605,-1.4024,-1.434,-1.5073,0.0,-1.912,-1.8957,-2.0677,-2.1468,-2.2071,-2.2811,-2.4451,-2.5893,-2.6667,-2.8567,-3.0001,-3.0254,-3.0896,-3.1409,-3.1482,-3.1482,-3.1482,-3.1482,-3.1482,-3.1482,-3.1482,-3.1482,-3.1482,-3.1482,-3.2078,-3.2407,-3.2407,-3.3036,-3.338,-3.338,-3.4038,-3.443,-3.4478,-3.5183,-3.5514,-3.5514,-3.5589,-3.5554,-3.5504,-3.5504,-3.5504,-3.5504,-3.5504,-3.5504,-3.5504,-3.5504,-3.5504,-3.5504,-3.5504,-3.5504,-3.5504,-3.5504,-3.5504,-3.5489,-3.5415,-3.5385,-3.5484,-3.6075,-3.6322,-3.6491,-3.7133,-3.734,-3.7388,-3.7367,-3.7409,-3.7307,-3.671,-3.7064,-3.742,-3.6834,-3.7202,-3.7641,-3.7621,-3.7652,-3.7432,-3.6772,-3.6654,-3.6417,-3.5723,-3.5622,-3.5622,-3.5622,-3.5622,-3.5622,-3.5622,-3.5622,-3.5622,-3.5622,-3.5537,-3.5504,-3.5504,-3.5419,-3.5615,-3.6132,-3.6197,-3.6714,-3.7733,-3.7801,-3.8125,-3.8707,-3.8707,-3.8707,-3.8707,-3.8707,-3.8707,-1.3181,-1.3824,-1.4677,-1.6464,-1.6965,-1.7765,-2.0552,-2.0539,-2.0539,-2.2535,-2.3138,-2.3552,-2.4406,-2.5256,-2.631,-2.7904,-2.8899,-3.0017,-3.141,-3.1515,-3.1616,-3.2063,-3.1764,-3.1482,-3.1482,-3.1482,-3.1482,-3.1482,-3.1482,-3.1646,-3.2078,-3.2362,-3.2691,-3.308,-3.3724,-3.4068,-3.4068,-3.4741,-3.507,-3.5085,-3.537,-3.5504,-3.5504,-3.5504,-3.5504,-3.5504,-3.5504,-3.5504,-3.5504,-3.5504,-3.5504,-3.5504,-3.5504,-3.5504,-3.5504,-3.5504,-3.5504,-3.5504,-3.5504,-3.5504,-3.5504,-3.5504,-3.5504,-3.5554,-3.5894,-3.6275,-3.6676,-3.704,-3.7456,-3.7822,-3.7822,-3.8149,-3.8388,-3.8079,-3.8586,-3.8957,-3.8221,-3.8302,-3.8413,-3.799,-3.7905,-3.7804,-3.7483,-3.7432,-3.733,-3.6992,-3.618,-3.5622,-3.5622,-3.5622,-3.5622,-3.5622,-3.5622,-3.5622,-3.5622,-3.5622,-3.5622,-3.5622,-3.5622,-3.5854,-3.6374,-3.6684,-3.721,-3.7911,-3.8216,-3.8465,-3.8707,-3.8707,-3.8707,-3.8707,-3.9184,-3.9405,-1.4932,-1.5858,-1.6788,-1.8435,-1.9257,-2.0137,-2.1807,-2.187,-2.2121,-2.4042,-2.4431,-2.4784,-2.5968,-2.6398,-2.7157,-2.9045,-2.9566,-3.0291,-3.199,-3.1839,-3.1704,-3.2183,-3.1824,-3.1541,-3.1735,-3.1586,-3.1482,-3.1482,-3.1482,-3.1824,-3.2482,-3.2691,-3.308,-3.3739,-3.4412,-3.4756,-3.4756,-3.525,-3.5504,-3.5504,-3.5504,-3.5504,-3.5504,-3.5504,-3.5504,-3.5504,-3.5504,-3.5504,-3.5504,-3.5504,-3.5504,-3.5504,-3.5504,-3.5504,-3.5504,-3.5504,-3.5504,-3.5504,-3.5504,-3.5504,-3.5504,-3.5504,-3.5504,-3.5569,-3.6037,-3.6523,-3.7024,-3.7424,-3.8003,-3.843,-3.843,-3.8816,-3.9262,-3.9262,-3.9662,-3.9935,-3.9411,-3.9292,-3.914,-3.8616,-3.8514,-3.8447,-3.8244,-3.821,-3.8142,-3.7939,-3.6958,-3.6248,-3.6248,-3.6079,-3.5859,-3.5639,-3.5622,-3.5622,-3.5622,-3.5622,-3.5622,-3.5622,-3.5739,-3.6054,-3.662,-3.7135,-3.7614,-3.8099,-3.8496,-3.8817,-3.9038,-3.9038,-3.9148,-3.9386,-3.9955,-4.023,-1.5068,-1.5913,-1.7071,-1.9837,-2.1001,-2.1857,-2.354,-2.3904,-2.4205,-2.5322,-2.5548,-2.5978,-2.7406,-2.8349,-2.9164,-3.0133,-3.0896,-3.1482,-3.1497,-3.1482,-3.1482,-3.1497,-3.1482,-3.1779,-3.2422,-3.1855,-3.1482,-3.1482,-3.1482,-3.1824,-3.2482,-3.3125,-3.3769,-3.4427,-3.5115,-3.5474,-3.5474,-3.5489,-3.5504,-3.5504,-3.5504,-3.5504,-3.5504,-3.5504,-3.5504,-3.5504,-3.5504,-3.5504,-3.5504,-3.5504,-3.5504,-3.5504,-3.5504,-3.5504,-3.5504,-3.5504,-3.5504,-3.5504,-3.5504,-3.5504,-3.5504,-3.5504,-3.5504,-3.5797,-3.7294,-3.7764,-3.8092,-3.9558,-4.002,-4.002,-4.002,-4.007,-4.007,-4.007,-4.007,-4.007,-4.0054,-4.0054,-4.0037,-4.002,-4.0003,-3.9783,-3.9089,-3.8954,-3.8717,-3.8024,-3.7872,-3.7838,-3.7838,-3.7195,-3.6451,-3.569,-3.5622,-3.5622,-3.5622,-3.5622,-3.5622,-3.5622,-3.6097,-3.662,-3.7135,-3.7614,-3.8132,-3.8676,-3.8707,-3.9074,-3.9845,-3.9845,-4.0267,-4.1038,-4.1056,-4.1075,-1.6162,-1.7829,-1.9591,-2.1289,-2.248,-2.3489,-2.477,-2.5059,-2.5159,-2.5523,-2.5322,-2.5199,-2.5702,-2.6096,-2.6925,-2.8638,-2.9516,-3.0558,-3.193,-3.2183,-3.2183,-3.2183,-3.2183,-3.2273,-3.2497,-3.2317,-3.2183,-3.2183,-3.2587,-3.2931,-3.3155,-3.3784,-3.4457,-3.513,-3.5385,-3.5504,-3.5504,-3.5504,-3.5504,-3.5504,-3.5504,-3.5504,-3.5504,-3.5504,-3.5504,-3.5504,-3.5504,-3.5504,-3.5504,-3.5504,-3.5504,-3.5504,-3.5504,-3.5504,-3.5504,-3.5504,-3.5504,-3.5504,-3.5504,-3.5504,-3.5504,-3.5504,-3.5831,-3.6337,-3.6859,-3.7716,-3.8635,-3.9139,-3.9662,-4.007,-4.007,-4.007,-4.007,-4.007,-4.007,-4.007,-4.007,-4.007,-4.007,-4.007,-4.007,-4.0003,-3.9749,-3.9715,-3.9631,-3.9394,-3.8531,-3.7905,-3.7905,-3.7686,-3.7432,-3.7161,-3.7144,-3.7144,-3.7144,-3.7473,-3.7644,-3.7644,-3.8185,-3.8752,-3.9246,-3.9392,-3.9745,-4.0272,-4.0304,-4.0432,-4.0708,-4.0708,-4.0855,-4.113,-4.1662,-4.1901,-1.8107,-1.9826,-2.1569,-2.3117,-2.4029,-2.4745,-2.5435,-2.5598,-2.5485,-2.5109,-2.4594,-2.428,-2.463,-2.4793,-2.5656,-2.797,-2.8929,-3.0132,-3.2228,-3.2512,-3.2602,-3.2841,-3.2871,-3.2961,-3.3185,-3.3215,-3.3021,-3.2557,-3.3125,-3.3499,-3.3499,-3.4128,-3.4801,-3.5489,-3.5504,-3.5504,-3.5504,-3.5504,-3.5504,-3.5504,-3.5504,-3.5504,-3.5504,-3.5504,-3.5504,-3.5504,-3.5504,-3.5504,-3.5504,-3.5504,-3.5504,-3.5504,-3.5504,-3.5504,-3.5504,-3.5504,-3.5504,-3.5504,-3.5504,-3.5504,-3.5504,-3.5504,-3.6006,-3.6661,-3.6964,-3.7873,-3.8962,-3.9262,-3.9714,-4.007,-4.007,-4.007,-4.007,-4.007,-4.007,-4.007,-4.007,-4.007,-4.007,-4.007,-4.007,-4.007,-4.007,-4.007,-4.007,-4.007,-3.9276,-3.8582,-3.8328,-3.8294,-3.8193,-3.7939,-3.7905,-3.7984,-3.8167,-3.8508,-3.8764,-3.9021,-3.9554,-3.9998,-4.0312,-4.0473,-4.0737,-4.1079,-4.1111,-4.1258,-4.1534,-4.1534,-4.168,-4.1974,-4.2488,-4.2727,-2.0594,-2.1874,-2.2896,-2.5065,-2.5598,-2.5598,-2.5598,-2.5548,-2.5209,-2.413,-2.3427,-2.3213,-2.401,-2.4286,-2.528,-2.8035,-2.9138,-3.0298,-3.2243,-3.2572,-3.2841,-3.3425,-3.3499,-3.3739,-3.4367,-3.4397,-3.3873,-3.2662,-3.32,-3.3559,-3.3499,-3.4158,-3.4831,-3.5489,-3.5504,-3.5504,-3.5504,-3.5504,-3.5504,-3.5504,-3.5504,-3.5504,-3.5504,-3.5504,-3.5504,-3.5504,-3.5504,-3.5504,-3.5504,-3.5504,-3.5504,-3.5504,-3.5504,-3.5504,-3.5504,-3.5504,-3.5504,-3.5504,-3.5504,-3.5504,-3.5504,-3.5554,-3.6054,-3.6783,-3.7632,-3.8358,-3.9139,-3.9901,-4.007,-4.007,-4.007,-4.007,-4.007,-4.007,-4.007,-4.007,-4.007,-4.007,-4.007,-4.007,-4.007,-4.007,-4.007,-4.007,-4.007,-4.007,-4.007,-3.9834,-3.914,-3.9056,-3.8785,-3.8091,-3.8024,-3.824,-3.8772,-3.8842,-3.9101,-3.9736,-4.0199,-4.0456,-4.0456,-4.0933,-4.124,-4.124,-4.124,-4.1607,-4.2359,-4.2359,-4.2745,-4.3497,-4.3497,-4.3497,-2.1009,-2.3009,-2.4863,-2.5419,-2.5598,-2.5598,-2.5598,-2.4983,-2.4092,-2.2975,-2.197,-2.1264,-2.1023,-2.224,-2.4021,-2.6087,-2.8598,-3.0791,-3.2302,-3.3365,-3.3858,-3.3529,-3.3499,-3.3559,-3.3724,-3.3305,-3.308,-3.323,-3.4337,-3.4562,-3.3544,-3.4607,-3.5325,-3.5504,-3.5504,-3.5504,-3.5504,-3.5504,-3.5504,-3.5504,-3.5504,-3.5504,-3.5504,-3.5504,-3.5504,-3.5504,-3.5504,-3.5504,-3.5504,-3.5504,-3.5504,-3.5504,-3.5504,-3.5504,-3.5504,-3.5504,-3.5504,-3.5504,-3.5504,-3.5504,-3.5619,-3.6165,-3.6859,-3.7616,-3.8414,-3.9156,-3.9833,-4.002,-4.007,-4.007,-4.007,-4.007,-4.007,-4.007,-4.007,-4.007,-4.007,-4.007,-4.007,-4.007,-4.007,-4.007,-4.007,-4.007,-4.007,-4.007,-4.007,-4.0003,-3.9817,-3.98,-3.9732,-3.9546,-3.9529,-3.9773,-4.0285,-4.0762,-4.1268,-4.1869,-4.2396,-4.2699,-4.2699,-4.2839,-4.2892,-4.2892,-4.2892,-4.2983,-4.3185,-4.3185,-4.3296,-4.3497,-4.3497,-4.3497,-2.2823,-2.4561,-2.5975,-2.5975,-2.5787,-2.541,-2.4682,-2.3866,-2.2799,-2.1204,-2.0188,-1.9586,-1.9492,-2.0927,-2.2881,-2.5261,-2.7935,-3.0328,-3.2243,-3.3155,-3.3589,-3.3499,-3.3499,-3.3499,-3.3499,-3.3425,-3.341,-3.3484,-3.4457,-3.4726,-3.3963,-3.4936,-3.5504,-3.5504,-3.5504,-3.5504,-3.5504,-3.5504,-3.5504,-3.5504,-3.5504,-3.5504,-3.5504,-3.5504,-3.5504,-3.5504,-3.5504,-3.5504,-3.5504,-3.5504,-3.5504,-3.5504,-3.5504,-3.5504,-3.5504,-3.5504,-3.5504,-3.5504,-3.5504,-3.5504,-3.5619,-3.6384,-3.7144,-3.7921,-3.869,-3.9489,-4.007,-4.007,-4.007,-4.007,-4.007,-4.007,-4.007,-4.007,-4.007,-4.007,-4.007,-4.007,-4.007,-4.007,-4.007,-4.007,-4.007,-4.007,-4.007,-4.007,-4.007,-4.007,-4.007,-4.007,-4.007,-4.007,-4.0336,-4.0672,-4.1268,-4.1853,-4.2422,-4.3014,-4.3321,-4.3497,-4.3497,-4.3497,-4.3497,-4.3497,-4.3497,-4.3497,-4.3497,-4.3497,-4.3497,-4.3497,-4.3497,-4.3497,-2.4975,-2.6013,-2.6508,-2.6433,-2.5862,-2.4971,-2.3389,-2.2435,-2.1292,-1.9233,-1.8367,-1.8113,-1.8479,-1.9853,-2.1921,-2.4869,-2.7167,-2.952,-3.2138,-3.2587,-3.2856,-3.3425,-3.3425,-3.3365,-3.3365,-3.3873,-3.4008,-3.3529,-3.4098,-3.4472,-3.4472,-3.513,-3.5504,-3.5504,-3.5504,-3.5504,-3.5504,-3.5504,-3.5504,-3.5504,-3.5504,-3.5504,-3.5504,-3.5504,-3.5504,-3.5504,-3.5504,-3.5504,-3.5504,-3.5504,-3.5504,-3.5504,-3.5504,-3.5504,-3.5504,-3.5504,-3.5504,-3.5504,-3.5504,-3.5504,-3.5619,-3.6508,-3.7219,-3.7994,-3.8914,-3.9625,-4.0104,-4.0206,-4.0155,-4.007,-4.007,-4.0155,-4.0223,-4.0223,-4.0223,-4.0223,-4.0223,-4.0223,-4.0257,-4.0341,-4.0375,-4.0375,-4.0375,-4.0375,-4.0375,-4.0375,-4.029,-4.0223,-4.0223,-4.0222,-4.0204,-4.0204,-4.0703,-4.1251,-4.1853,-4.2382,-4.2939,-4.3463,-4.3497,-4.3497,-4.3497,-4.3497,-4.3497,-4.3497,-4.3497,-4.3497,-4.3497,-4.3497,-4.3534,-4.3644,-4.3644,-4.3718,-2.5186,-2.6013,-2.6352,-2.5862,-2.5008,-2.3954,-2.2736,-2.0966,-1.9233,-1.794,-1.7212,-1.665,-1.6179,-1.8385,-2.1147,-2.3692,-2.6627,-2.952,-3.2138,-3.2976,-3.3365,-3.3484,-3.3021,-3.2677,-3.2677,-3.2781,-3.3036,-3.3469,-3.4098,-3.4472,-3.4472,-3.513,-3.5504,-3.5504,-3.5504,-3.5504,-3.5504,-3.5504,-3.5504,-3.5504,-3.5504,-3.5504,-3.5504,-3.5504,-3.5504,-3.5504,-3.5504,-3.5504,-3.5504,-3.5504,-3.5504,-3.5504,-3.5504,-3.5504,-3.5504,-3.5504,-3.5504,-3.5504,-3.5504,-3.5504,-3.5733,-3.7115,-3.769,-3.8148,-4.0188,-4.0458,-4.0206,-4.0832,-4.0561,-4.007,-4.007,-4.0544,-4.1018,-4.1018,-4.1018,-4.1018,-4.1018,-4.1018,-4.1187,-4.1796,-4.1914,-4.1914,-4.1914,-4.1914,-4.1914,-4.1914,-4.139,-4.1018,-4.1018,-4.0891,-4.078,-4.078,-4.1313,-4.1895,-4.248,-4.2655,-4.2939,-4.3463,-4.3497,-4.3497,-4.3497,-4.3497,-4.3497,-4.3497,-4.3497,-4.3497,-4.3497,-4.3497,-4.3828,-4.4488,-4.4488,-4.4856,-2.5745,-2.6251,-2.6395,-2.5737,-2.4782,-2.3552,-2.1845,0.0,0.0,-1.7076,-1.6211,-1.5889,-1.6637,-1.8377,-2.0543,-2.3245,-2.5263,-2.7575,-3.0567,-3.0971,-3.133,-3.2347,-3.2198,-3.2003,-3.2003,-3.2617,-3.3155,-3.3469,-3.4442,-3.5011,-3.5011,-3.5325,-3.5504,-3.5504,-3.5504,-3.5504,-3.5504,-3.5504,-3.5504,-3.5504,-3.5504,-3.5504,-3.5504,-3.5504,-3.5504,-3.5504,-3.5504,-3.5504,-3.5504,-3.5504,-3.5504,-3.5504,-3.5504,-3.5504,-3.5504,-3.5504,-3.5504,-3.5504,-3.5504,-3.5718,-3.6228,-3.7397,-3.7822,-3.818,-4.005,-4.0656,-4.0815,-4.1559,-4.1508,-4.1221,-4.1221,-4.1491,-4.1762,-4.1762,-4.1762,-4.1762,-4.1762,-4.1762,-4.188,-4.2219,-4.2286,-4.2286,-4.2286,-4.2286,-4.2286,-4.2286,-4.1999,-4.1731,-4.168,-4.1846,-4.1642,-4.0984,-4.1446,-4.2021,-4.2655,-4.2939,-4.3214,-4.3479,-4.3497,-4.3681,-4.4103,-4.4121,-4.4323,-4.4727,-4.4745,-4.4745,-4.4745,-4.4745,-4.4947,-4.5333,-4.5333,-4.5535,-2.6013,-2.6433,-2.6302,-2.5598,-2.4519,-2.3088,-2.0966,-1.902,-1.7384,-1.6348,-1.5441,-1.5395,-1.7206,-1.8328,-1.9912,-2.2736,-2.3879,-2.557,-2.8906,-2.9041,-2.949,-3.1315,-3.1482,-3.1482,-3.1482,-3.2602,-3.335,-3.3484,-3.4741,-3.5504,-3.5504,-3.5504,-3.5504,-3.5504,-3.5504,-3.5504,-3.5504,-3.5504,-3.5504,-3.5504,-3.5504,-3.5504,-3.5504,-3.5504,-3.5504,-3.5504,-3.5504,-3.5504,-3.5504,-3.5504,-3.5504,-3.5504,-3.5504,-3.5504,-3.5504,-3.5504,-3.5504,-3.5504,-3.5504,-3.6006,-3.6753,-3.7512,-3.803,-3.8577,-4.01,-4.0966,-4.1593,-4.232,-4.2422,-4.2286,-4.2286,-4.2405,-4.254,-4.254,-4.254,-4.254,-4.254,-4.254,-4.2591,-4.2743,-4.2777,-4.2777,-4.2777,-4.2777,-4.2777,-4.2777,-4.2785,-4.2689,-4.259,-4.2928,-4.2811,-4.1901,-4.2172,-4.2687,-4.3353,-4.3761,-4.3993,-4.3993,-4.3993,-4.4287,-4.4929,-4.4966,-4.5259,-4.5883,-4.5902,-4.5902,-4.5902,-4.5902,-4.5993,-4.6159,-4.6159,-4.625,-2.5523,-2.6063,-2.6214,-2.5159,-2.3665,-2.2008,-2.0275,0.0,-1.5853,-1.5632,-1.5105,-1.5028,-1.6066,-1.7245,-1.8875,-2.1466,-2.2892,-2.4866,-2.8218,-2.9146,-2.9998,-3.1317,-3.1482,-3.1482,-3.1482,-3.2183,-3.2856,-3.344,-3.4741,-3.5504,-3.5504,-3.5504,-3.5504,-3.5504,-3.5504,-3.5504,-3.5504,-3.5504,-3.5504,-3.5504,-3.5504,-3.5504,-3.5504,-3.5504,-3.5504,-3.5504,-3.5504,-3.5504,-3.5504,-3.5504,-3.5504,-3.5504,-3.5504,-3.5504,-3.5504,-3.5504,-3.5504,-3.5504,-3.5504,-3.6006,-3.6708,-3.7468,-3.869,-4.0188,-4.1665,-4.2132,-4.2337,-4.3098,-4.2828,-4.2286,-4.2286,-4.2811,-4.3318,-4.3318,-4.3318,-4.3318,-4.3318,-4.3318,-4.3521,-4.4231,-4.4367,-4.4367,-4.4367,-4.4367,-4.4367,-4.4367,-4.4283,-4.4179,-4.421,-4.4144,-4.4252,-4.4682,-4.456,-4.4766,-4.5535,-4.5627,-4.5681,-4.5681,-4.5681,-4.57,-4.5792,-4.5792,-4.581,-4.5902,-4.5902,-4.5902,-4.5902,-4.5902,-4.6287,-4.7003,-4.7003,-4.7388,-2.5272,-2.6013,-2.6269,-2.5096,-2.3552,-2.187,-2.0188,-1.7677,-1.5731,-1.5851,-1.4999,-1.4782,-1.6699,-1.7267,-1.8243,-2.0691,-2.1186,-2.2263,-2.5181,-2.6168,-2.7395,-2.952,-3.0447,-3.1076,-3.1437,-3.2138,-3.2961,-3.4008,-3.4577,-3.507,-3.5489,-3.5504,-3.5504,-3.5504,-3.5504,-3.5504,-3.5504,-3.5504,-3.5504,-3.5504,-3.5504,-3.5504,-3.5504,-3.5504,-3.5504,-3.5504,-3.5504,-3.5504,-3.5504,-3.5504,-3.5504,-3.5504,-3.5504,-3.5504,-3.5504,-3.5504,-3.5504,-3.5554,-3.6006,-3.6692,-3.7429,-3.8152,-3.9762,-4.1519,-4.2128,-4.2601,-4.3132,-4.3893,-4.3893,-4.3656,-4.3656,-4.3893,-4.4113,-4.4113,-4.4113,-4.4113,-4.4113,-4.4113,-4.4215,-4.4519,-4.4587,-4.4587,-4.4587,-4.4906,-4.5142,-4.5142,-4.5387,-4.5575,-4.5488,-4.5436,-4.5642,-4.6239,-4.5472,-4.5202,-4.5828,-4.5902,-4.5902,-4.5902,-4.5902,-4.6122,-4.6617,-4.6636,-4.6856,-4.7352,-4.7352,-4.7352,-4.7352,-4.7352,-4.7517,-4.7829,-4.7829,-4.7994,-2.4305,-2.5285,-2.5711,-2.4594,-2.3062,-2.143,-1.9911,-1.7516,-1.5711,-1.6032,-1.5108,-1.4971,-1.7267,-1.7471,-1.7944,-2.0072,-2.0168,-2.0902,-2.3535,-2.4492,-2.5914,-2.8577,-2.9684,-3.0492,-3.1165,-3.2003,-3.2901,-3.3829,-3.4262,-3.4696,-3.5175,-3.5385,-3.5504,-3.5504,-3.5504,-3.5504,-3.5504,-3.5504,-3.5504,-3.5504,-3.5504,-3.5504,-3.5504,-3.5504,-3.5504,-3.5504,-3.5504,-3.5504,-3.5504,-3.5504,-3.5504,-3.5504,-3.5504,-3.5504,-3.5504,-3.5504,-3.5504,-3.5554,-3.6117,-3.6919,-3.7895,-3.8658,-4.0425,-4.2368,-4.2579,-4.3149,-4.3876,-4.4418,-4.4587,-4.4587,-4.4587,-4.4587,-4.4587,-4.4587,-4.4587,-4.4587,-4.4587,-4.4587,-4.4587,-4.4587,-4.4587,-4.4682,-4.4814,-4.5232,-4.5545,-4.5732,-4.6288,-4.665,-4.6542,-4.6698,-4.6979,-4.7424,-4.6606,-4.6221,-4.6562,-4.6617,-4.6617,-4.6617,-4.6617,-4.6856,-4.7443,-4.7462,-4.7737,-4.8306,-4.8306,-4.8306,-4.8306,-4.8306,-4.8306,-4.8306,-4.8306,-4.8306,-2.2347,-2.3565,-2.4569,-2.3378,-2.1907,-2.0401,-1.9284,-1.7209,-1.5634,-1.6023,-1.5576,-1.5616,-1.7379,-1.7697,-1.813,-1.948,-2.0258,-2.162,-2.4209,-2.5181,-2.6587,-2.925,-2.9579,-2.9834,-3.0447,-3.1734,-3.2527,-3.2542,-3.3739,-3.4472,-3.4487,-3.513,-3.5504,-3.5504,-3.5504,-3.5504,-3.5504,-3.5504,-3.5504,-3.5504,-3.5504,-3.5504,-3.5504,-3.5504,-3.5504,-3.5504,-3.5504,-3.5504,-3.5504,-3.5504,-3.5504,-3.5504,-3.5504,-3.5504,-3.5504,-3.5504,-3.5504,-3.5504,-3.5504,-3.6554,-3.7918,-3.8665,-4.0433,-4.2439,-4.3183,-4.3961,-4.457,-4.4587,-4.4587,-4.4587,-4.4587,-4.4587,-4.4587,-4.4587,-4.4587,-4.4587,-4.4587,-4.4587,-4.4587,-4.4587,-4.4587,-4.4759,-4.5372,-4.5511,-4.5681,-4.6288,-4.6955,-4.7385,-4.7385,-4.7919,-4.8288,-4.8306,-4.8288,-4.8288,-4.8269,-4.8288,-4.8288,-4.8288,-4.8288,-4.8288,-4.8306,-4.8306,-4.8306,-4.8306,-4.8306,-4.8306,-4.8306,-4.8306,-4.8306,-4.8306,-4.8306,-4.8306,-2.0878,-2.1845,-2.2359,-2.1631,-2.0489,-1.9296,-1.8503,-1.684,-1.5611,-1.5977,-1.5538,-1.5485,-1.6768,-1.7384,-1.828,-2.0094,-2.0946,-2.1979,-2.3684,-2.5285,-2.6931,-2.8712,-3.0492,-3.1495,-3.1225,-3.1599,-3.2033,-3.2482,-3.2901,-3.3335,-3.3784,-3.4442,-3.5026,-3.5489,-3.5504,-3.5504,-3.5504,-3.5504,-3.5504,-3.5504,-3.5504,-3.5504,-3.5504,-3.5504,-3.5504,-3.5504,-3.5504,-3.5504,-3.5504,-3.5504,-3.5504,-3.5504,-3.5504,-3.5504,-3.5504,-3.5504,-3.5504,-3.5683,-3.6723,-3.7413,-3.801,-3.9313,-4.0534,-4.1694,-4.2422,-4.3555,-4.4587,-4.4587,-4.4587,-4.4587,-4.4587,-4.4587,-4.4587,-4.4587,-4.4587,-4.4587,-4.4587,-4.4587,-4.4587,-4.4587,-4.4587,-4.4814,-4.5425,-4.5815,-4.6336,-4.6999,-4.7614,-4.8035,-4.8035,-4.8172,-4.8306,-4.8306,-4.8306,-4.8306,-4.8306,-4.8306,-4.8306,-4.8306,-4.8306,-4.8306,-4.8306,-4.8306,-4.8306,-4.8306,-4.8306,-4.8306,-4.8306,-4.8306,-4.8306,-4.8306,-4.8306,-4.8306,-1.8969,-2.0125,-2.0727,-2.0175,-1.9221,-1.8213,-1.7593,-1.6402,-1.547,-1.5683,-1.5535,-1.5654,-1.6516,-1.7249,-1.8175,-1.972,-2.0513,-2.156,-2.3355,-2.5106,-2.6991,-2.9071,-3.0986,-3.1884,-3.121,-3.1317,-3.1646,-3.2108,-3.2377,-3.2691,-3.3095,-3.3754,-3.4307,-3.4741,-3.525,-3.5504,-3.5504,-3.5504,-3.5504,-3.5504,-3.5504,-3.5504,-3.5504,-3.5504,-3.5504,-3.5504,-3.5504,-3.5504,0.0,-3.5504,-3.5504,-3.5504,-3.5504,-3.5504,-3.5504,-3.5846,-3.5894,-3.6133,-3.7354,-3.7978,-3.8358,-3.9332,-4.0355,-4.139,-4.2405,-4.3589,-4.4587,-4.4587,-4.4587,-4.4587,-4.4587,-4.4587,-4.4587,-4.4587,-4.4587,-4.4587,-4.4587,-4.4587,-4.4587,-4.4587,-4.4759,-4.5142,-4.5732,-4.6336,-4.6999,-4.7656,-4.8075,-4.8306,-4.8306,-4.8306,-4.8306,-4.8306,-4.8306,-4.8306,-4.8306,-4.8306,-4.8306,-4.8306,-4.8306,-4.8306,-4.8306,-4.8306,-4.8306,-4.8306,-4.8306,-4.8306,-4.8306,-4.8306,-4.8306,-4.8306,-4.8306,-4.8306,0.0,-1.8267,-1.9334,-1.8844,-1.7965,-1.7049,-1.6514,-1.5811,0.0,-1.5277,-1.5569,-1.5994,-1.6652,-1.7279,-1.7984,-1.8792,-1.951,-2.0842,-2.3385,-2.5016,-2.7111,-3.0208,-3.118,-3.133,-3.0642,-3.115,-3.1482,-3.1482,-3.2093,-3.2437,-3.2437,-3.3066,-3.3425,-3.3425,-3.4681,-3.5385,-3.5429,-3.5489,-3.5504,-3.5504,-3.5504,-3.5504,-3.5504,-3.5504,-3.5504,-3.5504,-3.5504,-3.5504,-3.5504,-3.5504,-3.5504,-3.5504,-3.5504,-3.5504,-3.5554,-3.6275,-3.6554,-3.6737,-3.7515,-3.8302,-3.8908,-3.8978,-3.999,-4.1474,-4.2912,-4.3876,-4.4502,-4.4553,-4.4587,-4.4587,-4.4587,-4.4587,-4.4587,-4.4587,-4.4587,-4.4587,-4.4587,-4.4587,-4.4587,-4.4587,-4.5089,-4.5681,-4.6288,-4.6955,-4.7614,-4.821,-4.8306,-4.8306,-4.8306,-4.8306,-4.8306,-4.8306,-4.8306,-4.8306,-4.8306,-4.8306,-4.8306,-4.8306,-4.8306,-4.8306,-4.8306,-4.8306,-4.8306,-4.8306,-4.8306,-4.8306,-4.8306,-4.8306,-4.8306,-4.8306,-4.8306,-4.8306,-1.4727,0.0,-1.5994,-1.5881,-1.5655,-1.5423,0.0,-1.5229,-1.5275,-1.517,-1.5491,-1.6158,-1.7249,-1.7593,-1.8414,-2.0647,-2.1934,-2.3251,-2.4896,-2.756,-2.9834,-3.1135,-3.1884,-3.2018,-3.136,-3.1377,-3.1482,-3.1482,-3.1616,-3.1764,-3.1764,-3.2392,-3.2751,-3.2751,-3.3544,-3.4218,-3.4711,-3.5235,-3.5504,-3.5504,-3.5504,-3.5504,-3.5504,-3.5504,-3.5504,-3.5504,-3.5504,-3.5504,-3.5504,-3.5504,-3.5504,-3.5504,-3.5504,-3.5504,-3.5504,-3.5668,-3.6117,-3.6737,-3.7515,-3.8302,-3.9016,-3.961,-4.0458,-4.1373,-4.2286,-4.3081,-4.3809,-4.4418,-4.4587,-4.4587,-4.4587,-4.4587,-4.4587,-4.4587,-4.4587,-4.4587,-4.4587,-4.4587,-4.4587,-4.4587,-4.5089,-4.5681,-4.6288,-4.6955,-4.7614,-4.821,-4.8306,-4.8306,-4.8306,-4.8306,-4.8306,-4.8306,-4.8306,-4.8306,-4.8306,-4.8306,-4.8306,-4.8306,-4.8306,-4.8306,-4.8306,-4.8306,-4.8306,-4.8306,-4.8306,-4.8306,-4.8306,-4.8306,-4.8306,-4.8306,-4.8306,-4.8306,-1.3609,-1.4438,-1.5254,-1.5254,-1.5104,-1.4866,-1.4811,0.0,0.0,0.0,0.0,-1.6113,-1.7055,-1.7727,-1.8747,-2.0498,-2.2128,-2.4073,-2.6617,-2.9295,-3.1225,-3.1898,-3.2302,-3.2258,-3.1541,-3.1482,-3.1482,-3.1482,-3.1482,-3.1482,-3.1482,-3.181,-3.2063,-3.2063,-3.2706,-3.3365,-3.4023,-3.4696,-3.504,-3.504,-3.5355,-3.5504,-3.5504,-3.5504,-3.5504,-3.5504,-3.5504,-3.5504,-3.5504,-3.5504,-3.5504,-3.5504,-3.5504,-3.5504,-3.5569,-3.6321,-3.6829,-3.7322,-3.8486,-3.9102,-3.9542,-3.9952,-4.0358,-4.0832,-4.1559,-4.2066,-4.2709,-4.4164,-4.4587,-4.4587,-4.4587,-4.4587,-4.4587,-4.4587,-4.4587,-4.4587,-4.4587,-4.4587,-4.4665,-4.4944,-4.5511,-4.6112,-4.6756,-4.7385,-4.7937,-4.8267,-4.8306,-4.8306,-4.8306,-4.8306,-4.8306,-4.8306,-4.8306,-4.8306,-4.8306,-4.8306,-4.8306,-4.8306,-4.8306,-4.8306,-4.8306,-4.8306,-4.8306,-4.8306,-4.8306,-4.8306,-4.8306,-4.8306,-4.8306,-4.8306,-4.8306,-4.8402,-1.3023,-1.4375,-1.5542,-1.5467,-1.5193,-1.4916,-1.4916,0.0,0.0,0.0,0.0,0.0,-1.7128,-1.8235,-1.9286,-2.0139,-2.1964,-2.4597,-2.8368,-3.0328,-3.1629,-3.2287,-3.2362,-3.2138,-3.1584,-3.1482,-3.1482,-3.1482,-3.1482,-3.1482,-3.1482,-3.1482,-3.1482,-3.1482,-3.2078,-3.2632,-3.3185,-3.3948,-3.4382,-3.4487,-3.507,-3.54,-3.5504,-3.5504,-3.5504,-3.5504,-3.5504,-3.5504,-3.5504,-3.5504,-3.5504,-3.5504,-3.5504,-3.5554,-3.5846,-3.7115,-3.7748,-3.8149,-3.961,-4.007,-4.007,-4.007,-4.007,-4.0223,-4.0984,-4.1204,-4.1627,-4.3656,-4.4316,-4.4434,-4.4553,-4.4587,-4.4587,-4.4587,-4.4587,-4.4587,-4.4587,-4.4682,-4.4906,-4.5407,-4.6063,-4.671,-4.7299,-4.7897,-4.8306,-4.8306,-4.8306,-4.8306,-4.8306,-4.8306,-4.8306,-4.8306,-4.8306,-4.8306,-4.8306,-4.8306,-4.8306,-4.8306,-4.8306,-4.8306,-4.8306,-4.8306,-4.8306,-4.8306,-4.8306,-4.8306,-4.8306,-4.8306,-4.8306,-4.8306,-4.8364,-4.8642,-1.2922,-1.4099,-1.4928,-1.4462,-1.4626,-1.4916,-1.4916,0.0,0.0,0.0,0.0,0.0,0.0,-2.0236,-2.0976,-2.2712,-2.4687,-2.6976,-2.9819,-3.0477,-3.0911,-3.1541,-3.1616,-3.1586,-3.1482,-3.1482,-3.1482,-3.1482,-3.1482,-3.1482,-3.1482,-3.1482,-3.1482,-3.1482,-3.1571,-3.1676,-3.1839,-3.3036,-3.3918,-3.4472,-3.4577,-3.4936,-3.5504,-3.5504,-3.5504,-3.5504,-3.5504,-3.5504,-3.5504,-3.5504,-3.5504,-3.5504,-3.5504,-3.5894,-3.6446,-3.6676,-3.76,-3.8854,-3.9782,-4.007,-4.007,-4.007,-4.007,-4.0223,-4.0984,-4.1204,-4.1407,-4.2371,-4.3098,-4.3741,-4.4401,-4.4587,-4.4587,-4.4587,-4.4587,-4.4587,-4.4587,-4.4998,-4.5372,-4.5459,-4.6448,-4.7281,-4.7385,-4.7897,-4.8306,-4.8306,-4.8306,-4.8306,-4.8306,-4.8306,-4.8306,-4.8306,-4.8306,-4.8306,-4.8306,-4.8306,-4.8306,-4.8306,-4.8306,-4.8306,-4.8306,-4.8306,-4.8306,-4.8306,-4.8306,-4.8306,-4.8306,-4.8306,-4.8306,-4.8306,-4.8657,-4.9219,-1.2459,-1.3596,-1.4613,-1.5335,-1.5841,-1.6296,-1.6651,-1.6804,0.0,0.0,0.0,0.0,0.0,-2.1065,-2.2637,-2.5315,-2.7141,-2.8742,-3.0298,-3.0821,-3.118,-3.1437,-3.1482,-3.1482,-3.1482,-3.1482,-3.1482,-3.1482,-3.1482,-3.1482,-3.1482,-3.1482,-3.1482,-3.1482,-3.1482,-3.1482,-3.1482,-3.2138,-3.2766,-3.3425,-3.3784,-3.4292,-3.4951,-3.4951,-3.516,-3.5504,-3.5504,-3.5504,-3.5504,-3.5504,-3.5504,-3.5569,-3.5943,-3.6275,-3.6722,-3.7526,-3.8564,-3.961,-3.9952,-4.007,-4.007,-4.007,-4.007,-4.0138,-4.0493,-4.0595,-4.0747,-4.1491,-4.2523,-4.3504,-4.3859,-4.4265,-4.4587,-4.4587,-4.4587,-4.4587,-4.4587,-4.5089,-4.5597,-4.5915,-4.6774,-4.7512,-4.7838,-4.8132,-4.8306,-4.8306,-4.8306,-4.8306,-4.8306,-4.8306,-4.8306,-4.8306,-4.8306,-4.8306,-4.8306,-4.8306,-4.8306,-4.8306,-4.8306,-4.8306,-4.8306,-4.8306,-4.8306,-4.8306,-4.8306,-4.8306,-4.8306,-4.8306,-4.8421,-4.864,-4.9312,-5.0052,-1.2234,-1.3342,-1.4497,-1.6229,0.0,-1.7418,-1.8672,-1.8655,-1.8531,0.0,0.0,0.0,-2.0567,-2.2256,-2.4567,-2.761,-2.9026,-2.9968,-3.0432,-3.0956,-3.124,-3.1091,-3.121,-3.13,-3.13,-3.1377,-3.1482,-3.1482,-3.1482,-3.1482,-3.1482,-3.1482,-3.1482,-3.1482,-3.1482,-3.1482,-3.1482,-3.1482,-3.1869,-3.2527,-3.3021,-3.3604,-3.4247,-3.4412,-3.4756,-3.5265,-3.5429,-3.5504,-3.5504,-3.5504,-3.5619,-3.5846,-3.6384,-3.6843,-3.7291,-3.869,-3.9558,-4.007,-4.007,-4.007,-4.007,-4.007,-4.007,-4.007,-4.007,-4.007,-4.0206,-4.0781,-4.1897,-4.298,-4.3335,-4.3859,-4.435,-4.4536,-4.4587,-4.4626,-4.4759,-4.5267,-4.5865,-4.6524,-4.7132,-4.7756,-4.821,-4.8306,-4.8306,-4.8306,-4.8306,-4.8306,-4.8306,-4.8306,-4.8306,-4.8306,-4.8306,-4.8306,-4.8306,-4.8306,-4.8306,-4.8306,-4.8306,-4.8306,-4.8306,-4.8306,-4.8306,-4.8306,-4.8306,-4.8306,-4.8306,-4.8383,-4.8697,-4.9195,-5.0062,-5.0967,-1.2697,-1.3596,-1.4485,-1.6125,-1.6537,-1.7334,-2.0216,-2.0014,0.0,-2.2087,0.0,-2.2805,-2.3241,-2.4986,-2.6991,-2.9086,-2.9998,-3.0447,-3.0492,-3.0552,-3.0357,-2.9789,-3.0223,-3.0567,-3.0567,-3.115,-3.1482,-3.1482,-3.1482,-3.1482,-3.1482,-3.1482,-3.1482,-3.1482,-3.1482,-3.1482,-3.1482,-3.1482,-3.1869,-3.2512,-3.2557,-3.2931,-3.3589,-3.4203,-3.4502,-3.4592,-3.5235,-3.5504,-3.5504,-3.5504,-3.5894,-3.6554,-3.6615,-3.7467,-3.8854,-3.9731,-4.007,-4.007,-4.007,-4.007,-4.007,-4.007,-4.007,-4.007,-4.007,-4.007,-4.0087,-4.0138,-4.0747,-4.1677,-4.3064,-4.3453,-4.3673,-4.4401,-4.4587,-4.4776,-4.532,-4.5915,-4.6524,-4.7194,-4.7797,-4.8267,-4.8306,-4.8306,-4.8306,-4.8306,-4.8306,-4.8306,-4.8306,-4.8306,-4.8306,-4.8306,-4.8306,-4.8306,-4.8306,-4.8306,-4.8306,-4.8306,-4.8306,-4.8306,-4.8306,-4.8306,-4.8306,-4.8306,-4.8306,-4.8306,-4.8306,-4.8657,-4.9306,-5.0138,-5.0866,-5.2126,-1.2266,-1.3405,-1.4497,-1.619,-1.7093,0.0,0.0,-2.1253,-2.1372,-2.3019,-2.3985,-2.4741,-2.5344,-2.6422,-2.7724,-2.9325,-3.0103,-3.0657,-3.1091,-3.0776,-3.0417,-3.0178,-3.0028,-2.9924,-2.9924,-3.0163,-3.0477,-3.0866,-3.0896,-3.1076,-3.1452,-3.1482,-3.1482,-3.1482,-3.1482,-3.1482,-3.1482,-3.1482,-3.1601,-3.1898,-3.1898,-3.2243,-3.2901,-3.314,-3.3484,-3.3903,-3.4577,-3.5148,-3.5569,-3.5997,-3.6631,-3.7381,-3.7815,-3.8674,-3.9662,-4.002,-4.007,-4.007,-4.007,-4.007,-4.007,-4.007,-4.007,-4.007,-4.007,-4.007,-4.007,-4.007,-4.029,-4.0747,-4.1779,-4.2371,-4.2912,-4.3673,-4.419,-4.4647,-4.5356,-4.6305,-4.7106,-4.7342,-4.7897,-4.8306,-4.8306,-4.8306,-4.8306,-4.8306,-4.8306,-4.8306,-4.8306,-4.8306,-4.8306,-4.8306,-4.8306,-4.8306,-4.8306,-4.8306,-4.8306,-4.8306,-4.8306,-4.8306,-4.8306,-4.8306,-4.8306,-4.8306,-4.8306,-4.8306,-4.8306,-4.8674,-4.9492,-5.0604,-5.1646,-5.2886,-1.2316,-1.3471,-1.4727,-1.6231,0.0,0.0,-2.1282,-2.2033,-2.2712,-2.4497,-2.5243,-2.5869,-2.6737,-2.726,-2.806,-2.9355,-3.0283,-3.0911,-3.1165,-3.0627,-3.0133,-2.9924,-2.9535,-2.9265,-2.9265,-2.946,-2.9759,-3.0178,-3.0223,-3.0417,-3.0896,-3.1106,-3.121,-3.121,-3.1362,-3.1482,-3.1482,-3.1482,-3.1482,-3.1482,-3.1482,-3.1764,-3.2213,-3.2422,-3.2766,-3.3215,-3.409,-3.4897,-3.5623,-3.6328,-3.7234,-3.8189,-3.8978,-3.961,-4.007,-4.007,-4.007,-4.007,-4.007,-4.007,-4.007,-4.007,-4.007,-4.007,-4.007,-4.007,-4.007,-4.007,-4.007,-4.0206,-4.0713,-4.139,-4.2187,-4.3129,-4.3855,-4.464,-4.5558,-4.6613,-4.747,-4.7656,-4.8035,-4.8306,-4.8306,-4.8306,-4.8306,-4.8306,-4.8306,-4.8306,-4.8306,-4.8306,-4.8306,-4.8306,-4.8306,-4.8306,-4.8306,-4.8306,-4.8306,-4.8306,-4.8306,-4.8306,-4.8306,-4.8306,-4.8306,-4.8306,-4.8306,-4.8364,-4.8477,-4.9157,-5.0134,-5.1414,-5.2616,-5.3798,-1.3048,-1.4036,-1.518,-1.6245,0.0,0.0,-2.1139,-2.2351,-2.3773,-2.6941,-2.6527,-2.6033,-2.7335,-2.7625,-2.8075,-2.937,-3.0672,-3.1285,-3.0612,-2.9968,-2.934,-2.8682,-2.8607,-2.8592,-2.8592,-2.9175,-2.9564,-2.9564,-2.9564,-2.9564,-2.9579,-3.0163,-3.0492,-3.0492,-3.1165,-3.1467,-3.1467,-3.1482,-3.1482,-3.1482,-3.1482,-3.1482,-3.1497,-3.2213,-3.2497,-3.2601,-3.3943,-3.4942,-3.5636,-3.6394,-3.7598,-3.8962,-3.9782,-4.007,-4.007,-4.007,-4.007,-4.007,-4.007,-4.007,-4.007,-4.007,-4.007,-4.007,-4.007,-4.007,-4.007,-4.007,-4.007,-4.007,-4.0138,-4.0629,-4.1511,-4.2871,-4.3796,-4.4712,-4.5939,-4.6825,-4.7572,-4.8172,-4.8306,-4.8306,-4.8306,-4.8306,-4.8306,-4.8306,-4.8306,-4.8306,-4.8306,-4.8306,-4.8306,-4.8306,-4.8306,-4.8306,-4.8306,-4.8306,-4.8306,-4.8306,-4.8306,-4.8306,-4.8306,-4.8306,-4.8306,-4.8306,-4.8306,-4.8513,-4.8897,-5.0172,-5.1414,-5.2641,-5.39,-5.4934,-1.3048,-1.4036,0.0,-1.6245,0.0,0.0,0.0,-2.1961,0.0,-2.6159,-2.652,-2.6528,-2.7449,-2.7979,-2.8577,-2.9445,-3.0268,-3.0911,-3.1195,-3.0283,-2.9505,-2.931,-2.8457,-2.7874,-2.7874,-2.8053,-2.8368,-2.8861,-2.8891,-2.9086,-2.9549,-2.9759,-2.9864,-2.9864,-3.0477,-3.0806,-3.0806,-3.1228,-3.1482,-3.1482,-3.1482,-3.1482,-3.1482,-3.1734,-3.2098,-3.2609,-3.3465,-3.451,-3.5805,-3.7614,-3.8554,-3.9026,-3.9817,-4.007,-4.007,-4.007,-4.007,-4.007,-4.007,-4.007,-4.007,-4.007,-4.007,-4.007,-4.007,-4.007,-4.007,-4.007,-4.007,-4.0204,-4.0577,-4.0827,-4.1237,-4.2175,-4.324,-4.4467,-4.5894,-4.6717,-4.7417,-4.8157,-4.8306,-4.8306,-4.8306,-4.8306,-4.8306,-4.8306,-4.8306,-4.8306,-4.8306,-4.8306,-4.8306,-4.8306,-4.8306,-4.8306,-4.8306,-4.8306,-4.8306,-4.8306,-4.8306,-4.8306,-4.8306,-4.8306,-4.8306,-4.8306,-4.8306,-4.8513,-4.8897,-5.0172,-5.1414,-5.2641,-5.39,-5.4934,-1.3622,-1.4689,0.0,-1.6911,-1.8505,-2.0166,-2.165,-2.2844,-2.4267,-2.6474,-2.6725,-2.674,-2.7464,-2.7919,-2.8412,-2.9086,-2.9924,-3.0567,-3.0731,-3.0073,-2.949,-2.922,-2.8233,-2.7625,-2.7625,-2.7625,-2.779,-2.8158,-2.8188,-2.8368,-2.8757,-2.9041,-2.919,-2.919,-2.9804,-3.0253,-3.0507,-3.0911,-3.127,-3.1482,-3.1482,-3.164,-3.1951,-3.1951,-3.216,-3.2687,-3.3855,-3.504,-3.6252,-3.7896,-3.8734,-3.9039,-3.9478,-3.9817,-4.007,-4.007,-4.007,-4.007,-4.007,-4.007,-4.007,-4.007,-4.007,-4.007,-4.007,-4.007,-4.007,-4.007,-4.0237,-4.0497,-4.0827,-4.1268,-4.1744,-4.2212,-4.3126,-4.4216,-4.5352,-4.6391,-4.726,-4.7737,-4.8086,-4.8306,-4.8306,-4.8306,-4.8306,-4.8306,-4.8306,-4.8306,-4.8306,-4.8306,-4.8306,-4.8306,-4.8306,-4.8306,-4.8306,-4.8306,-4.8306,-4.8306,-4.8306,-4.8306,-4.8306,-4.8306,-4.8306,-4.8306,-4.8458,-4.8911,-4.9677,-5.0931,-5.2144,-5.3383,-5.4485,-5.5241,-1.4312,-1.5567,-1.6722,-1.7903,-1.9083,-2.0363,-2.2059,-2.4448,-2.6602,-2.724,-2.7031,-2.6856,-2.7505,-2.767,-2.7874,-2.8502,-2.9624,-3.0223,-2.9669,-2.9535,-2.9265,-2.8667,-2.7993,-2.7625,-2.7625,-2.7625,-2.7625,-2.7625,-2.7625,-2.7625,-2.7625,-2.8173,-2.8502,-2.8502,-2.9146,-2.9759,-3.0328,-3.0447,-3.0821,-3.1492,-3.1552,-3.1951,-3.2695,-3.2641,-3.2641,-3.2873,-3.4836,-3.6069,-3.6738,-3.7499,-3.8193,-3.8802,-3.887,-3.9343,-3.9986,-3.9986,-4.002,-4.007,-4.007,-4.007,-4.007,-4.007,-4.007,-4.007,-4.007,-4.007,-4.0121,-4.0171,-4.0528,-4.0949,-4.1041,-4.1895,-4.2711,-4.275,-4.333,-4.4028,-4.4565,-4.5865,-4.6929,-4.7095,-4.77,-4.8214,-4.8306,-4.8306,-4.8306,-4.8306,-4.8306,-4.8306,-4.8306,-4.8306,-4.8306,-4.8306,-4.8306,-4.8306,-4.8306,-4.8306,-4.8306,-4.8306,-4.8306,-4.8306,-4.8306,-4.8306,-4.8306,-4.8364,-4.8709,-4.9551,-5.0856,-5.2022,-5.3245,-5.4511,-5.5318,-5.5703,-1.3461,-1.4701,0.0,-1.7815,-1.9673,-2.1483,-2.2877,-2.4461,-2.5673,-2.5837,-2.6695,-2.7445,-2.7595,-2.8008,-2.8427,-2.8577,-2.9265,-2.9729,-2.9609,-2.9146,-2.8757,-2.8622,-2.7993,-2.7625,-2.7625,-2.7625,-2.7625,-2.7625,-2.7625,-2.7625,-2.7625,-2.776,-2.785,-2.785,-2.8457,-2.8876,-2.9011,-2.9998,-3.0845,-3.1597,-3.2121,-3.2734,-3.3391,-3.2841,-3.3182,-3.4235,-3.5171,-3.5706,-3.5926,-3.6705,-3.711,-3.7313,-3.7905,-3.8582,-3.9225,-3.9225,-3.958,-4.007,-4.007,-4.007,-4.007,-4.007,-4.007,-4.007,-4.007,-4.007,-4.0204,-4.0625,-4.0827,-4.1133,-4.208,-4.2519,-4.2826,-4.3214,-4.3467,-4.3796,-4.4526,-4.4984,-4.5608,-4.6837,-4.726,-4.7572,-4.8196,-4.8306,-4.8306,-4.8306,-4.8306,-4.8306,-4.8306,-4.8306,-4.8306,-4.8306,-4.8306,-4.8306,-4.8306,-4.8306,-4.8306,-4.8306,-4.8306,-4.8306,-4.8306,-4.8306,-4.8458,-4.8779,-4.8863,-4.964,-5.1173,-5.2152,-5.3245,-5.4511,-5.5318,-5.5703,-1.3659,0.0,0.0,-1.8832,0.0,-2.1415,-2.2609,-2.3689,-2.4598,-2.5287,-2.6587,-2.7625,-2.7625,-2.7874,-2.8113,-2.8113,-2.8667,-2.8996,-2.8667,-2.8607,-2.8472,-2.8143,-2.7784,-2.7625,-2.7625,-2.7625,-2.7625,-2.7625,-2.7625,-2.7625,-2.7625,-2.7625,-2.7625,-2.7625,-2.7919,-2.8263,-2.8607,-2.9265,-3.0273,-3.1579,-3.1935,-3.2814,-3.4087,-3.3735,-3.4087,-3.5098,-3.547,-3.5622,-3.5656,-3.6062,-3.6451,-3.6823,-3.7212,-3.7821,-3.8514,-3.887,-3.9225,-3.9597,-3.9952,-4.007,-4.007,-4.007,-4.007,-4.007,-4.007,-4.007,-4.0204,-4.0733,-4.1133,-4.1534,-4.248,-4.2902,-4.3124,-4.3444,-4.3497,-4.3608,-4.403,-4.4433,-4.4966,-4.581,-4.6581,-4.7241,-4.7664,-4.8049,-4.8306,-4.8306,-4.8306,-4.8306,-4.8306,-4.8306,-4.8306,-4.8306,-4.8306,-4.8306,-4.8306,-4.8306,-4.8306,-4.8306,-4.8306,-4.8306,-4.8306,-4.8477,-4.8692,-4.8897,-4.9295,-5.0288,-5.1929,-5.2571,-5.3651,-5.5068,-5.5491,-5.5703,-1.3509,0.0,-1.7137,-1.9736,-2.0526,0.0,-2.182,-2.2683,-2.3617,-2.4998,-2.6409,-2.7458,-2.7575,-2.7625,-2.7625,-2.7625,-2.8053,-2.8218,-2.77,-2.8068,-2.8203,-2.7685,-2.7625,-2.7625,-2.7625,-2.7625,-2.7625,-2.7625,-2.7625,-2.7625,-2.7625,-2.7625,-2.7625,-2.7625,-2.7625,-2.7844,-2.8412,-2.8636,-2.9678,-3.1415,-3.1907,-3.2946,-3.4601,-3.4717,-3.5098,-3.5622,-3.5622,-3.5622,-3.5622,-3.5622,-3.5994,-3.6586,-3.6586,-3.7043,-3.7787,-3.8396,-3.8768,-3.9089,-3.9681,-3.9969,-4.007,-4.007,-4.007,-4.007,-4.007,-4.0154,-4.0319,-4.092,-4.149,-4.208,-4.2675,-4.3178,-4.3497,-4.3497,-4.3497,-4.3497,-4.3497,-4.4011,-4.4544,-4.4672,-4.6012,-4.7113,-4.7113,-4.7774,-4.8306,-4.8306,-4.8306,-4.8306,-4.8306,-4.8306,-4.8306,-4.8306,-4.8306,-4.8306,-4.8306,-4.8306,-4.8306,-4.8306,-4.8306,-4.8344,-4.8383,-4.8779,-4.9043,-4.9108,-4.9773,-5.0961,-5.2714,-5.3039,-5.4068,-5.5703,-5.5703,-5.5703,-1.1019,0.0,-1.6961,0.0,-1.9962,-2.0756,-2.0853,-2.1818,-2.3058,-2.4352,-2.5724,-2.6826,-2.7458,-2.7625,-2.7625,-2.7625,-2.77,-2.773,-2.7625,-2.77,-2.773,-2.7625,-2.7625,-2.7625,-2.7625,-2.7625,-2.7625,-2.7625,-2.7625,-2.7625,-2.7625,-2.7625,-2.7625,-2.7625,-2.7625,-2.767,-2.7709,-2.8808,-2.9808,-3.0671,-3.3003,-3.4242,-3.4553,-3.5166,-3.5515,-3.5622,-3.5622,-3.5622,-3.5622,-3.5622,-3.5673,-3.5774,-3.5774,-3.6248,-3.6941,-3.7043,-3.7889,-3.9005,-3.9106,-3.9546,-4.007,-4.007,-4.007,-4.007,-4.007,-4.04,-4.092,-4.149,-4.2121,-4.2693,-4.325,-4.3444,-4.3497,-4.3497,-4.3497,-4.3497,-4.3497,-4.3571,-4.3864,-4.4562,-4.6012,-4.7113,-4.7113,-4.7774,-4.8306,-4.8306,-4.8306,-4.8306,-4.8306,-4.8306,-4.8306,-4.8306,-4.8306,-4.8306,-4.8306,-4.8306,-4.8306,-4.8306,-4.8306,-4.8458,-4.8813,-4.9202,-4.9589,-4.9924,-5.0043,-5.1094,-5.3121,-5.3163,-5.4068,-5.5703,-5.5703,-5.5703,-1.1939,-1.4287,-1.6534,0.0,-1.9397,-1.9911,-2.0526,-2.111,-2.1901,-2.3138,-2.4182,-2.544,-2.7274,-2.7625,-2.7625,-2.7625,-2.7625,-2.7625,-2.7625,-2.7625,-2.7625,-2.7625,-2.7625,-2.7625,-2.7625,-2.7625,-2.7625,-2.7625,-2.7625,-2.7625,-2.7625,-2.7625,-2.7625,-2.7625,-2.7625,-2.776,-2.8091,-2.8676,-2.9643,-3.1038,-3.2981,-3.41,-3.4506,-3.4844,-3.5216,-3.5622,-3.5622,-3.5622,-3.5622,-3.5622,-3.5622,-3.5622,-3.5622,-3.5825,-3.618,-3.662,-3.7195,-3.7821,-3.8244,-3.887,-3.9462,-3.9462,-3.9749,-4.0171,-4.0449,-4.0685,-4.1087,-4.2021,-4.248,-4.2826,-4.3375,-4.3497,-4.3497,-4.3497,-4.3497,-4.3497,-4.3497,-4.3497,-4.3736,-4.4544,-4.5278,-4.6049,-4.6966,-4.7407,-4.7792,-4.8233,-4.8306,-4.8306,-4.8306,-4.8306,-4.8306,-4.8306,-4.8306,-4.8306,-4.8306,-4.8306,-4.8306,-4.8306,-4.8306,-4.8477,-4.8897,-4.9295,-4.9692,-5.0092,-5.0336,-5.1348,-5.3203,-5.3203,-5.4068,-5.5703,-5.5703,-5.5703,0.0,0.0,-1.5392,-1.7626,-1.8392,-1.8894,-1.9999,-2.025,-2.069,-2.2299,-2.3032,-2.4132,-2.6644,-2.72,-2.743,-2.7595,-2.7625,-2.7625,-2.7625,-2.7625,-2.7625,-2.7625,-2.7625,-2.7625,-2.7625,-2.7625,-2.7625,-2.7625,-2.7625,-2.7625,-2.7625,-2.7625,-2.7625,-2.7625,-2.776,-2.8042,-2.8527,-2.8779,-2.9753,-3.1357,-3.2563,-3.3406,-3.3931,-3.4117,-3.4523,-3.5081,-3.5453,-3.5622,-3.5622,-3.5622,-3.5622,-3.5622,-3.5622,-3.5622,-3.569,-3.6265,-3.6603,-3.6857,-3.7432,-3.8108,-3.8751,-3.8937,-3.9442,-4.0129,-4.0728,-4.1133,-4.1534,-4.244,-4.2788,-4.2976,-4.341,-4.3497,-4.3497,-4.3497,-4.3497,-4.3497,-4.3497,-4.3497,-4.3663,-4.4287,-4.4562,-4.5094,-4.6287,-4.6856,-4.7315,-4.7921,-4.8177,-4.8306,-4.8306,-4.8306,-4.8306,-4.8306,-4.8306,-4.8306,-4.8306,-4.8306,-4.8306,-4.8306,-4.8402,-4.8621,-4.9062,-4.9445,-4.9827,-5.0249,-5.0544,-5.151,-5.3203,-5.3203,-5.4068,-5.5703,-5.5703,-5.5703,0.0,-1.1726,0.0,-1.5316,-1.6672,-1.7752,-1.8857,-1.912,-1.9784,-2.221,-2.274,-2.3343,-2.5334,-2.6213,-2.6841,-2.752,-2.7625,-2.7625,-2.7625,-2.7625,-2.7625,-2.7625,-2.7625,-2.7625,-2.7625,-2.7625,-2.7625,-2.7625,-2.7625,-2.7625,-2.7625,-2.7625,-2.7625,-2.7625,-2.814,-2.8463,-2.8511,-2.9629,-3.0535,-3.1219,-3.1985,-3.2357,-3.2466,-3.3136,-3.3491,-3.3592,-3.5013,-3.5622,-3.5622,-3.5622,-3.5622,-3.5622,-3.5622,-3.5622,-3.5622,-3.5673,-3.6146,-3.6789,-3.6823,-3.733,-3.8075,-3.8768,-3.9388,-3.9939,-4.0695,-4.1707,-4.2616,-4.2655,-4.3069,-4.3444,-4.3479,-4.3497,-4.3497,-4.3497,-4.3497,-4.3497,-4.3497,-4.3497,-4.3497,-4.3534,-4.4176,-4.4745,-4.4819,-4.6104,-4.7131,-4.7186,-4.7829,-4.8306,-4.8306,-4.8306,-4.8306,-4.8306,-4.8306,-4.8306,-4.8306,-4.8306,-4.8306,-4.8306,-4.8657,-4.9043,-4.9445,-4.9872,-5.0249,-5.0663,-5.0683,-5.151,-5.3203,-5.3203,-5.4068,-5.5703,-5.5703,-5.5703,0.0,0.0,0.0,-1.4211,-1.552,-1.6597,-1.7714,-1.8518,-1.922,-2.0148,-2.1264,-2.2428,-2.3558,-2.4945,-2.6033,-2.6273,-2.6662,-2.6946,-2.6946,-2.7355,-2.7625,-2.7625,-2.7625,-2.7625,-2.7625,-2.7625,-2.7625,-2.7625,-2.7625,-2.7625,-2.7625,-2.7625,-2.776,-2.8189,-2.8367,-2.8873,-2.9629,-3.0477,-3.0975,-3.119,-3.1461,-3.1833,-3.229,-3.256,-3.2949,-3.344,-3.3964,-3.4472,-3.4928,-3.5419,-3.5622,-3.5622,-3.5622,-3.5622,-3.5622,-3.5622,-3.5791,-3.6028,-3.6028,-3.6535,-3.7305,-3.7832,-3.8853,-3.9964,-4.0925,-4.1912,-4.2788,-4.3142,-4.3375,-4.3497,-4.3497,-4.3497,-4.3497,-4.3497,-4.3497,-4.3497,-4.3497,-4.3497,-4.3497,-4.3497,-4.3718,-4.4085,-4.4617,-4.5608,-4.6526,-4.704,-4.7792,-4.8306,-4.8306,-4.8306,-4.8306,-4.8306,-4.8306,-4.8306,-4.8306,-4.8306,-4.8306,-4.8306,-4.8692,-4.9075,-4.9475,-4.9898,-5.0272,-5.0683,-5.0702,-5.1241,-5.2375,-5.2933,-5.3799,-5.4934,-5.5453,-5.5703,-0.8034,0.0,0.0,0.0,-1.3946,-1.4802,-1.6672,-1.7513,-1.805,-1.8652,-2.0046,-2.1403,-2.2258,-2.3623,-2.4845,-2.5478,-2.5974,-2.6258,-2.6258,-2.6632,-2.6991,-2.7215,-2.7245,-2.732,-2.7595,-2.7625,-2.7625,-2.7625,-2.7625,-2.7625,-2.7625,-2.7625,-2.7944,-2.8779,-2.9012,-2.9585,-3.0601,-3.1015,-3.119,-3.119,-3.119,-3.1444,-3.1918,-3.1918,-3.2188,-3.2679,-3.2916,-3.3592,-3.4523,-3.503,-3.5402,-3.5622,-3.5622,-3.5622,-3.5622,-3.5622,-3.5622,-3.5622,-3.5622,-3.6078,-3.6761,-3.7344,-3.8614,-4.0164,-4.1094,-4.2139,-4.305,-4.341,-4.3497,-4.3497,-4.3497,-4.3497,-4.3497,-4.3497,-4.3497,-4.3497,-4.3497,-4.3497,-4.3497,-4.3497,-4.3497,-4.3663,-4.4213,-4.5186,-4.6085,-4.6636,-4.7627,-4.8306,-4.8306,-4.8306,-4.8306,-4.8306,-4.8306,-4.8306,-4.8306,-4.8306,-4.8364,-4.8477,-4.8863,-4.9295,-4.9673,-5.0092,-5.0421,-5.0683,-5.0702,-5.0952,-5.151,-5.2645,-5.3645,-5.4511,-5.5318,-5.5703,0.0,0.0,0.0,-1.1801,-1.1964,-1.2441,-1.568,-1.6019,-1.6163,-1.7906,-1.9144,-2.0327,-2.1584,-2.2292,-2.3312,-2.5207,-2.5555,-2.5585,-2.5585,-2.56,-2.5839,-2.6482,-2.6557,-2.6811,-2.7535,-2.7595,-2.7595,-2.7625,-2.7625,-2.7625,-2.7625,-2.7625,-2.8174,-2.9361,-2.9995,-3.0601,-3.119,-3.119,-3.119,-3.119,-3.119,-3.119,-3.119,-3.119,-3.119,-3.1241,-3.1935,-3.3068,-3.4438,-3.4472,-3.4928,-3.5588,-3.5605,-3.5622,-3.5622,-3.5622,-3.5622,-3.5605,-3.5605,-3.5968,-3.6537,-3.7265,-3.8779,-4.0456,-4.1159,-4.2395,-4.3497,-4.3497,-4.3497,-4.3497,-4.3497,-4.3497,-4.3497,-4.3497,-4.3497,-4.3497,-4.3497,-4.3497,-4.3497,-4.3497,-4.3497,-4.3497,-4.3497,-4.4819,-4.5902,-4.5902,-4.7278,-4.8306,-4.8306,-4.8306,-4.8306,-4.8306,-4.8306,-4.8306,-4.8306,-4.8306,-4.8477,-4.8863,-4.9265,-4.9692,-5.0068,-5.0483,-5.0702,-5.0702,-5.0702,-5.0702,-5.0702,-5.2375,-5.3626,-5.4472,-5.5299,-5.5703,-0.7361,0.0,0.0,0.0,0.0,0.0,-1.3711,-1.4325,-1.5005,-1.6676,-1.7626,-1.8647,-2.0185,-2.1354,-2.2411,-2.3329,-2.4283,-2.4896,-2.4896,-2.5315,-2.5674,-2.5854,-2.5884,-2.6138,-2.6797,-2.6856,-2.7066,-2.758,-2.7625,-2.7625,-2.7625,-2.7993,-2.8591,-2.9361,-2.9995,-3.0601,-3.119,-3.119,-3.119,-3.119,-3.119,-3.119,-3.119,-3.119,-3.119,-3.1207,-3.141,-3.2036,-3.2966,-3.4049,-3.4624,-3.4861,-3.5402,-3.5622,-3.5622,-3.5622,-3.5871,-3.6182,-3.6182,-3.6522,-3.7055,-3.7591,-3.8923,-4.042,-4.0992,-4.2276,-4.3497,-4.3497,-4.3497,-4.3497,-4.3497,-4.3497,-4.3497,-4.3497,-4.3497,-4.3497,-4.3497,-4.3497,-4.3497,-4.3497,-4.3497,-4.3497,-4.3497,-4.4819,-4.5902,-4.5902,-4.7278,-4.8306,-4.8306,-4.8306,-4.8306,-4.8306,-4.8306,-4.8306,-4.8306,-4.8306,-4.8477,-4.8863,-4.9265,-4.9692,-5.0068,-5.0483,-5.0702,-5.0702,-5.0702,-5.0702,-5.0702,-5.2375,-5.3318,-5.3587,-5.503,-5.5703,-0.7571,0.0,-1.0049,-1.0234,0.0,0.0,-1.2847,-1.3132,-1.3518,-1.5141,-1.6171,-1.7098,-1.8343,-1.9922,-2.1183,-2.155,-2.2867,-2.3909,-2.4163,-2.4522,-2.4881,-2.5166,-2.5196,-2.5465,-2.6123,-2.6183,-2.6452,-2.7111,-2.7156,-2.7425,-2.7944,-2.8543,-2.9134,-2.9761,-3.0335,-3.0838,-3.119,-3.119,-3.119,-3.119,-3.119,-3.119,-3.119,-3.119,-3.119,-3.119,-3.119,-3.1427,-3.1918,-3.3085,-3.3931,-3.4539,-3.4979,-3.5351,-3.5622,-3.5854,-3.6139,-3.6416,-3.6661,-3.7058,-3.7542,-3.7825,-3.8898,-4.0247,-4.0884,-4.1992,-4.3057,-4.3406,-4.3497,-4.3497,-4.3497,-4.3497,-4.3497,-4.3497,-4.3497,-4.3497,-4.3497,-4.3497,-4.3497,-4.3497,-4.3497,-4.3497,-4.3497,-4.4819,-4.5902,-4.5902,-4.7278,-4.8306,-4.8306,-4.8306,-4.8306,-4.8306,-4.8306,-4.8306,-4.8306,-4.8458,-4.8709,-4.9108,-4.9532,-4.9924,-5.0336,-5.0584,-5.0702,-5.0702,-5.0702,-5.0856,-5.1202,-5.2183,-5.3029,-5.378,-5.5088,-5.5703,-0.7993,0.0,0.0,-1.072,-1.0512,0.0,-1.2509,-1.2241,-1.2058,-1.3594,-1.4639,-1.5489,-1.6334,-1.8167,-1.9614,-1.9835,-2.1355,-2.273,-2.3415,-2.355,-2.3819,-2.4403,-2.4462,-2.4777,-2.5435,-2.5495,-2.5779,-2.6437,-2.6557,-2.7149,-2.8432,-2.9012,-2.9629,-3.0293,-3.0838,-3.1151,-3.119,-3.119,-3.119,-3.119,-3.119,-3.119,-3.119,-3.119,-3.119,-3.119,-3.119,-3.119,-3.1241,-3.1901,-3.2983,-3.4269,-3.4438,-3.4895,-3.5548,-3.619,-3.6416,-3.6563,-3.7097,-3.7578,-3.798,-3.798,-3.8879,-4.0047,-4.0873,-4.1662,-4.247,-4.3259,-4.3497,-4.3497,-4.3497,-4.3497,-4.3497,-4.3497,-4.3497,-4.3497,-4.3497,-4.3497,-4.3497,-4.3497,-4.3497,-4.3497,-4.3497,-4.4819,-4.5902,-4.5902,-4.7278,-4.8306,-4.8306,-4.8306,-4.8306,-4.8306,-4.8306,-4.8306,-4.8364,-4.8674,-4.9075,-4.9532,-4.9898,-5.0272,-5.0683,-5.0702,-5.0702,-5.0702,-5.0702,-5.1048,-5.1779,-5.1952,-5.2895,-5.4511,-5.5318,-5.5703,-0.9939,-1.0783,-1.1723,-1.0923,-1.164,0.0,-1.1395,-1.1412,-1.1801,-1.258,-1.2542,-1.2979,-1.4818,-1.634,-1.7564,-1.8345,-2.004,-2.1618,-2.2715,-2.3281,-2.3655,-2.3789,-2.3804,-2.4073,-2.4701,-2.4776,-2.5091,-2.5749,-2.6303,-2.7149,-2.8432,-2.8606,-2.918,-3.0251,-3.0435,-3.0699,-3.119,-3.119,-3.119,-3.119,-3.119,-3.119,-3.119,-3.119,-3.119,-3.119,-3.119,-3.119,-3.1207,-3.1343,-3.1918,-3.2831,-3.4032,-3.459,-3.4864,-3.6,-3.6684,-3.7097,-3.7614,-3.8117,-3.8546,-3.8546,-3.9158,-4.0047,-4.0873,-4.1662,-4.247,-4.3259,-4.3497,-4.3497,-4.3497,-4.3497,-4.3497,-4.3497,-4.3497,-4.3497,-4.3497,-4.3497,-4.3497,-4.3497,-4.3497,-4.3497,-4.3497,-4.4819,-4.5902,-4.5902,-4.7278,-4.8306,-4.8306,-4.8306,-4.8306,-4.8306,-4.8306,-4.8421,-4.8744,-4.8863,-4.9202,-4.9949,-5.0068,-5.0272,-5.0683,-5.0702,-5.0702,-5.0702,-5.0702,-5.0779,-5.0933,-5.2299,-5.3491,-5.4511,-5.5318,-5.5703,-1.0535,-1.1329,-1.2361,-1.1716,-1.2376,0.0,0.0,-1.152,-1.155,-1.2977,-1.2354,-1.2095,-1.3715,-1.4944,-1.5891,-1.6381,-1.8161,-1.9706,-2.0235,-2.1639,-2.2652,-2.2652,-2.2936,-2.3266,-2.3625,-2.3924,-2.4403,-2.5076,-2.6033,-2.7126,-2.8353,-2.8761,-2.9496,-3.0699,-3.074,-3.0878,-3.119,-3.119,-3.119,-3.119,-3.119,-3.119,-3.119,-3.119,-3.119,-3.119,-3.119,-3.119,-3.119,-3.119,-3.1533,-3.2209,-3.3733,-3.4555,-3.5091,-3.6605,-3.7305,-3.7614,-3.8117,-3.8465,-3.8707,-3.8707,-3.8964,-3.9441,-4.0267,-4.135,-4.247,-4.3259,-4.3497,-4.3497,-4.3497,-4.3497,-4.3497,-4.3497,-4.3497,-4.3497,-4.3497,-4.3497,-4.3497,-4.3497,-4.3497,-4.3497,-4.3497,-4.4507,-4.5443,-4.5847,-4.6929,-4.7865,-4.8251,-4.8306,-4.8306,-4.8306,-4.8477,-4.8692,-4.8897,-4.9265,-4.9673,-5.0068,-5.0272,-5.0483,-5.0683,-5.0702,-5.0702,-5.0702,-5.0702,-5.0702,-5.0702,-5.2375,-5.3414,-5.3876,-5.5126,-5.5703,-1.0974,-1.1804,-1.2901,-1.248,-1.3028,-1.3536,0.0,0.0,0.0,-1.3279,-1.2549,-1.1889,-1.286,-1.3822,-1.443,-1.4451,-1.6271,-1.7624,-1.7424,-1.9325,-2.0842,-2.1081,-2.1814,-2.2293,-2.2293,-2.2757,-2.3533,-2.4672,-2.5422,-2.6658,-2.8458,-2.8966,-2.9831,-3.1151,-3.119,-3.119,-3.119,-3.119,-3.119,-3.119,-3.119,-3.119,-3.119,-3.119,-3.119,-3.119,-3.119,-3.119,-3.119,-3.1291,-3.1507,-3.1963,-3.3422,-3.4449,-3.5392,-3.7041,-3.7767,-3.798,-3.8496,-3.8707,-3.8707,-3.8707,-3.8799,-3.9074,-3.9882,-4.1148,-4.247,-4.3259,-4.3497,-4.3497,-4.3497,-4.3497,-4.3497,-4.3497,-4.3497,-4.3497,-4.3497,-4.3497,-4.3497,-4.3497,-4.3497,-4.3497,-4.3497,-4.4305,-4.5149,-4.5792,-4.6728,-4.759,-4.8233,-4.8306,-4.8344,-4.8402,-4.8728,-4.8945,-4.9108,-4.9746,-5.0135,-5.0206,-5.0523,-5.0702,-5.0702,-5.0702,-5.0702,-5.0702,-5.0702,-5.0702,-5.0702,-5.2375,-5.3203,-5.3241,-5.4914,-5.5703,-1.2302,-1.3202,-1.4094,-1.2604,-1.3832,-1.4777,-1.2328,0.0,-1.271,-1.2015,0.0,-1.1776,-1.2391,0.0,0.0,-1.32,-1.492,-1.6099,-1.5661,-1.6555,-1.7712,-1.8912,-2.0168,-2.0932,-2.0932,-2.1006,-2.2224,-2.5102,-2.397,-2.489,-2.8895,-2.8741,-2.9352,-3.1134,-3.119,-3.119,-3.119,-3.119,-3.119,-3.119,-3.119,-3.119,-3.119,-3.119,-3.119,-3.119,-3.119,-3.119,-3.123,-3.1603,-3.1752,-3.1912,-3.2795,-3.382,-3.5031,-3.6357,-3.7282,-3.798,-3.8496,-3.8707,-3.8707,-3.8707,-3.9184,-3.99,-4.0726,-4.1589,-4.247,-4.3259,-4.3497,-4.3497,-4.3497,-4.3497,-4.3497,-4.3497,-4.3497,-4.3497,-4.3497,-4.3497,-4.3497,-4.3497,-4.3497,-4.3497,-4.3497,-4.4764,-4.5792,-4.5883,-4.7186,-4.8214,-4.8306,-4.8306,-4.8421,-4.8813,-4.8863,-4.9202,-4.9879,-5.0043,-5.0249,-5.0604,-5.0663,-5.0702,-5.0702,-5.0702,-5.0702,-5.0702,-5.0702,-5.0702,-5.0702,-5.2375,-5.3203,-5.3241,-5.4914,-5.5703,-1.2969,-1.3806,-1.4693,-1.3917,-1.4482,-1.4827,-1.3393,-1.2881,-1.2806,-1.3015,0.0,0.0,0.0,0.0,0.0,0.0,-1.3758,-1.4285,-1.3984,-1.4567,-1.5786,-1.7861,-1.8608,-1.9435,-2.0602,-2.0722,-2.1499,-2.3434,-2.3268,-2.4343,-2.7191,-2.8298,-2.9395,-3.0509,-3.097,-3.119,-3.119,-3.119,-3.119,-3.119,-3.119,-3.119,-3.119,-3.119,-3.119,-3.119,-3.119,-3.1312,-3.1565,-3.1716,-3.2127,-3.2634,-3.2971,-3.3993,-3.5406,-3.6694,-3.7658,-3.8382,-3.8627,-3.8707,-3.8707,-3.8707,-3.8927,-3.935,-4.0157,-4.0965,-4.1772,-4.258,-4.313,-4.3497,-4.3497,-4.3497,-4.3497,-4.3497,-4.3497,-4.3497,-4.3497,-4.3497,-4.3497,-4.3497,-4.3497,-4.3497,-4.3497,-4.4452,-4.5369,-4.5828,-4.6874,-4.7774,-4.8251,-4.8306,-4.844,-4.8863,-4.9108,-4.9475,-5.0043,-5.0313,-5.0523,-5.0683,-5.0702,-5.0702,-5.0702,-5.0702,-5.0702,-5.0702,-5.0702,-5.0702,-5.0702,-5.1875,-5.2722,-5.3241,-5.4914,-5.5703,-1.3509,-1.4223,-1.4995,-1.4298,-1.4496,-1.4689,-1.3833,-1.3254,-1.3082,-1.3921,-1.3254,0.0,0.0,0.0,-1.2883,-1.2904,0.0,-1.3445,-1.2901,-1.3235,-1.4303,-1.6368,-1.71,-1.813,-1.9989,-1.9803,-2.0349,-2.2113,-2.2279,-2.3449,-2.6057,-2.7536,-2.8849,-3.0053,-3.0615,-3.1004,-3.119,-3.119,-3.119,-3.119,-3.119,-3.119,-3.119,-3.119,-3.119,-3.119,-3.1329,-3.1545,-3.1825,-3.2092,-3.2598,-3.3214,-3.3302,-3.4359,-3.5908,-3.682,-3.7808,-3.8707,-3.8707,-3.8707,-3.8707,-3.8707,-3.8707,-3.8854,-3.9662,-4.0469,-4.1277,-4.2066,-4.2873,-4.3497,-4.3497,-4.3497,-4.3497,-4.3497,-4.3497,-4.3497,-4.3497,-4.3497,-4.3497,-4.3497,-4.3497,-4.3497,-4.3497,-4.4342,-4.5241,-4.581,-4.6783,-4.7645,-4.8233,-4.8402,-4.864,-4.9011,-4.9416,-4.9827,-5.0225,-5.0544,-5.0702,-5.0702,-5.0702,-5.0702,-5.0702,-5.0702,-5.0702,-5.0702,-5.0702,-5.0702,-5.0702,-5.151,-5.2356,-5.3241,-5.4684,-5.5491,-1.4016,-1.4704,-1.5076,-1.2918,-1.3655,-1.4488,-1.2831,-1.3292,-1.4047,-1.4072,-1.4475,-1.4815,-1.4853,-1.5042,-1.468,-1.315,-1.3941,0.0,0.0,-1.2627,-1.3092,-1.3855,-1.5591,-1.7264,-1.8642,-1.7593,-1.8281,-2.1855,-2.049,-2.1616,-2.6421,-2.6329,-2.7324,-3.0002,-3.0125,-3.048,-3.119,-3.119,-3.119,-3.119,-3.119,-3.119,-3.119,-3.119,-3.119,-3.123,-3.1603,-3.1789,-3.188,-3.2777,-3.3184,-3.3243,-3.3625,-3.4789,-3.6285,-3.6321,-3.7331,-3.8707,-3.8707,-3.8707,-3.8707,-3.8707,-3.8707,-3.8854,-3.9662,-4.0469,-4.1277,-4.2066,-4.2873,-4.3497,-4.3497,-4.3497,-4.3497,-4.3497,-4.3497,-4.3497,-4.3497,-4.3497,-4.3497,-4.3497,-4.3497,-4.3497,-4.3497,-4.48,-4.5865,-4.5902,-4.726,-4.8269,-4.8306,-4.8621,-4.9043,-4.9445,-4.9827,-5.0249,-5.0663,-5.0683,-5.0702,-5.0702,-5.0702,-5.0702,-5.0702,-5.0702,-5.0702,-5.0702,-5.0702,-5.0702,-5.0702,-5.151,-5.2356,-5.3222,-5.4126,-5.4953,-1.5066,-1.56,-1.5923,-1.4839,-1.4736,-1.4664,-1.3745,-1.3821,-1.3984,-1.3584,-1.4237,-1.4904,-1.4842,-1.5104,-1.5103,-1.4446,-1.4239,-1.3799,0.0,-1.273,-1.3056,-1.3735,-1.5171,-1.6099,-1.6114,-1.6458,-1.7624,-1.9883,-1.9935,-2.1207,-2.436,-2.5748,-2.7093,-2.8516,-2.9583,-3.0446,-3.119,-3.119,-3.119,-3.119,-3.119,-3.119,-3.119,-3.119,-3.119,-3.123,-3.164,-3.2004,-3.2298,-3.2952,-3.3361,-3.3606,-3.3734,-3.4468,-3.5514,-3.6083,-3.7312,-3.8707,-3.8707,-3.8707,-3.8707,-3.8707,-3.8707,-3.8762,-3.9019,-4.0047,-4.1167,-4.1442,-4.247,-4.3497,-4.3497,-4.3497,-4.3497,-4.3497,-4.3497,-4.3497,-4.3497,-4.3497,-4.3497,-4.3497,-4.3497,-4.3497,-4.3497,-4.4819,-4.5902,-4.5902,-4.7278,-4.8402,-4.8657,-4.8813,-4.9171,-4.9827,-5.0019,-5.0272,-5.0663,-5.0702,-5.0702,-5.0702,-5.0702,-5.0702,-5.0702,-5.0702,-5.0702,-5.0702,-5.0702,-5.0702,-5.0702,-5.0971,-5.1529,-5.2375,-5.3241,-5.4376,-1.5678,-1.6046,-1.6283,-1.5341,-1.518,-1.4903,-1.3758,-1.3808,-1.4056,-1.383,-1.4518,-1.5348,-1.5895,-1.6115,-1.5974,-1.5184,-1.4567,-1.375,0.0,-1.2433,-1.2598,-1.3047,-1.4259,-1.5137,-1.5318,-1.5329,-1.6379,-1.8989,-1.9086,-2.0287,-2.3245,-2.4983,-2.6488,-2.7755,-2.9042,-3.0192,-3.119,-3.119,-3.119,-3.119,-3.119,-3.119,-3.119,-3.119,-3.119,-3.123,-3.1806,-3.2196,-3.255,-3.3166,-3.355,-3.3807,-3.3807,-3.4302,-3.51,-3.5973,-3.7312,-3.8707,-3.8707,-3.8707,-3.8707,-3.8707,-3.8707,-3.8707,-3.8707,-3.9625,-4.0744,-4.1038,-4.2047,-4.313,-4.3424,-4.3497,-4.3497,-4.3497,-4.3497,-4.3497,-4.3497,-4.3497,-4.3497,-4.3497,-4.3497,-4.3497,-4.3497,-4.4819,-4.5902,-4.5902,-4.7278,-4.8458,-4.8829,-4.9011,-4.9386,-5.0043,-5.0225,-5.0421,-5.0683,-5.0702,-5.0702,-5.0702,-5.0702,-5.0702,-5.0702,-5.0702,-5.0702,-5.0702,-5.0702,-5.0702,-5.0702,-5.0702,-5.1106,-5.1933,-5.2799,-5.3933]},{"header":{"parameterUnit":"m.s-1","parameterCategory":1,"la1":30.6,"la2":29.2853,"lo1":-89.7004,"lo2":-87.6739,"dy":0.0162,"dx":0.0183,"nx":112,"ny":82,"refTime":"2025-11-22T12:00:00:Z","depth":0,"parameterNumber":3,"parameterNumberName":"V-component_of_WINDS"},"data":[0.0,0.0,0.0,0.0,0.0,0.0,0.0,0.0,0.0,0.0,0.0,0.0,0.0,0.0,0.0,0.0,0.0,0.0,0.0,0.0,0.0,0.0,0.0,0.0,0.0,0.0,0.0,0.0,0.0,0.0,0.0,0.0,0.0,0.0,0.0,0.0,0.0,0.0,0.0,0.0,0.0,0.0,0.0,0.0,0.0,0.0,0.0,0.0,0.0,0.0,0.0,0.0,0.0,0.0,0.0,0.0,0.0,0.0,0.0,0.0,0.0,0.0,0.0,0.0,0.0,0.0,0.0,0.0,0.0,0.0,0.0,0.0,0.0,0.0,0.0,0.0,0.0,0.0,0.0,0.0,0.0,0.0,0.0,0.0,0.0,0.0,0.0,0.0,0.0,0.0,-1.4865,-1.6938,-1.9228,-2.042,-2.0049,-1.8262,-1.6713,-1.5671,0.0,0.0,0.0,0.0,0.0,0.0,0.0,0.0,0.0,0.0,0.0,0.0,0.0,0.0,0.0,0.0,0.0,0.0,0.0,0.0,0.0,0.0,0.0,0.0,0.0,0.0,0.0,0.0,0.0,0.0,0.0,0.0,0.0,0.0,0.0,0.0,0.0,0.0,0.0,0.0,0.0,0.0,0.0,0.0,0.0,0.0,0.0,0.0,0.0,0.0,0.0,0.0,0.0,0.0,0.0,0.0,0.0,0.0,0.0,0.0,0.0,0.0,0.0,0.0,0.0,0.0,0.0,0.0,0.0,0.0,0.0,0.0,0.0,0.0,0.0,0.0,0.0,0.0,0.0,0.0,0.0,0.0,0.0,0.0,0.0,0.0,0.0,0.0,0.0,0.0,0.0,0.0,0.0,0.0,0.0,0.0,0.0,0.0,0.0,0.0,0.0,0.0,0.0,0.0,-1.543,-1.9053,-2.0117,-2.0537,-2.0469,-1.9149,-1.782,-1.6568,0.0,0.0,0.0,0.0,0.0,0.0,0.0,0.0,0.0,0.0,0.0,0.0,0.0,0.0,0.0,0.0,0.0,0.0,0.0,0.0,0.0,0.0,0.0,0.0,0.0,0.0,0.0,0.0,0.0,0.0,0.0,0.0,0.0,0.0,0.0,0.0,0.0,0.0,0.0,0.0,0.0,0.0,0.0,0.0,0.0,0.0,0.0,0.0,0.0,0.0,0.0,0.0,0.0,0.0,0.0,0.0,0.0,0.0,0.0,0.0,0.0,0.0,0.0,0.0,0.0,0.0,0.0,0.0,0.0,0.0,0.0,0.0,0.0,0.0,0.0,0.0,0.0,0.0,0.0,0.0,0.0,0.0,0.0,0.0,0.0,0.0,0.0,0.0,0.0,0.0,0.0,0.0,0.0,0.0,0.0,0.0,0.0,0.0,0.0,0.0,0.0,0.0,0.0,-1.5399,-1.6924,-1.9629,-2.0303,-2.0566,-2.0566,-1.9134,-1.7773,-1.6763,-1.3105,0.0,0.0,0.0,0.0,0.0,0.0,0.0,0.0,0.0,0.0,0.0,0.0,0.0,0.0,0.0,0.0,0.0,0.0,0.0,0.0,0.0,0.0,0.0,0.0,0.0,0.0,0.0,0.0,0.0,0.0,0.0,0.0,0.0,0.0,0.0,0.0,0.0,0.0,0.0,0.0,0.0,0.0,0.0,0.0,0.0,0.0,0.0,0.0,0.0,0.0,0.0,0.0,0.0,0.0,0.0,0.0,0.0,0.0,0.0,0.0,0.0,0.0,0.0,0.0,0.0,0.0,0.0,0.0,0.0,0.0,0.0,0.0,0.0,0.0,0.0,0.0,0.0,0.0,0.0,0.0,0.0,0.0,0.0,0.0,0.0,0.0,0.0,0.0,0.0,0.0,0.0,0.0,0.0,0.0,0.0,0.0,0.0,0.0,0.0,0.0,0.0,0.0,-1.7432,-1.8291,-1.9893,-2.0361,-2.0527,-2.042,-1.8834,-1.7366,-1.6461,-1.3171,0.0,0.0,0.0,0.0,0.0,0.0,0.0,0.0,0.0,0.0,0.0,0.0,0.0,0.0,0.0,0.0,0.0,0.0,0.0,0.0,0.0,0.0,0.0,0.0,0.0,0.0,0.0,0.0,0.0,0.0,0.0,0.0,0.0,0.0,0.0,0.0,0.0,0.0,0.0,0.0,0.0,0.0,0.0,0.0,0.0,0.0,0.0,0.0,0.0,0.0,0.0,0.0,0.0,0.0,0.0,0.0,0.0,0.0,0.0,0.0,0.0,0.0,0.0,0.0,0.0,0.0,0.0,0.0,0.0,0.0,0.0,0.0,0.0,0.0,0.0,0.0,0.0,0.0,0.0,0.0,0.0,0.0,0.0,0.0,0.0,0.0,0.0,0.0,0.0,0.0,0.0,0.0,0.0,0.0,0.0,0.0,0.0,0.0,0.0,0.0,0.0,0.0,-1.7559,-1.9053,-2.0381,-2.0547,-2.04,-2.0,-1.8387,-1.687,-1.5586,-1.2599,0.0,0.0,0.0,0.0,0.0,0.0,0.0,0.0,0.0,0.0,0.0,0.0,0.0,0.0,0.0,0.0,0.0,0.0,0.0,0.0,0.0,0.0,0.0,0.0,0.0,0.0,0.0,0.0,0.0,0.0,0.0,0.0,0.0,0.0,0.0,0.0,0.0,0.0,0.0,0.0,0.0,0.0,0.0,0.0,0.0,0.0,0.0,0.0,0.0,0.0,0.0,0.0,0.0,0.0,0.0,0.0,0.0,0.0,0.0,0.0,0.0,0.0,0.0,0.0,0.0,0.0,0.0,0.0,0.0,0.0,0.0,0.0,0.0,0.0,0.0,0.0,0.0,0.0,0.0,0.0,0.0,0.0,0.0,0.0,0.0,0.0,0.0,0.0,0.0,0.0,0.0,0.0,0.0,0.0,0.0,0.0,0.0,0.0,0.0,0.0,0.0,0.0,-1.751,-1.8848,-2.04,-2.0566,-2.0391,-1.9951,-1.8838,-1.7383,-1.5527,0.0,0.0,0.0,0.0,0.0,0.0,0.0,0.0,0.0,0.0,0.0,0.0,0.0,0.0,0.0,0.0,0.0,0.0,0.0,0.0,0.0,0.0,0.0,0.0,0.0,0.0,0.0,0.0,0.0,0.0,0.0,0.0,0.0,0.0,0.0,0.0,0.0,0.0,0.0,0.0,0.0,0.0,0.0,0.0,0.0,0.0,0.0,0.0,0.0,0.0,0.0,0.0,0.0,0.0,0.0,0.0,0.0,0.0,0.0,0.0,0.0,0.0,0.0,0.0,0.0,0.0,0.0,0.0,0.0,0.0,0.0,0.0,0.0,0.0,0.0,0.0,0.0,0.0,0.0,0.0,0.0,0.0,0.0,0.0,0.0,0.0,0.0,0.0,0.0,0.0,0.0,0.0,0.0,0.0,0.0,0.0,0.0,0.0,0.0,0.0,0.0,0.0,-1.638,-1.7715,-1.8916,-2.0225,-2.0478,-2.0273,-1.957,-1.8603,-1.7168,-1.5127,0.0,0.0,0.0,0.0,0.0,0.0,0.0,0.0,0.0,0.0,0.0,0.0,0.0,0.0,0.0,0.0,0.0,0.0,0.0,0.0,0.0,0.0,0.0,0.0,0.0,0.0,0.0,0.0,0.0,0.0,0.0,0.0,0.0,0.0,0.0,0.0,0.0,0.0,0.0,0.0,0.0,0.0,0.0,0.0,0.0,0.0,0.0,0.0,0.0,0.0,0.0,0.0,0.0,0.0,0.0,0.0,0.0,0.0,0.0,0.0,0.0,0.0,0.0,0.0,0.0,0.0,0.0,0.0,0.0,0.0,0.0,0.0,0.0,0.0,0.0,0.0,0.0,0.0,0.0,0.0,0.0,0.0,0.0,0.0,0.0,0.0,0.0,0.0,0.0,0.0,0.0,0.0,0.0,0.0,0.0,0.0,0.0,0.0,0.0,0.0,0.0,0.0,-1.6387,-1.8223,-1.9443,-1.9863,-2.0293,-2.0029,-1.8679,-1.7395,-1.5986,0.0,0.0,0.0,0.0,0.0,0.0,0.0,0.0,0.0,0.0,0.0,0.0,0.0,0.0,0.0,0.0,0.0,0.0,0.0,0.0,0.0,0.0,0.0,0.0,0.0,0.0,0.0,0.0,0.0,0.0,0.0,0.0,0.0,0.0,0.0,0.0,0.0,0.0,0.0,0.0,0.0,0.0,0.0,0.0,0.0,0.0,0.0,0.0,0.0,0.0,0.0,0.0,0.0,0.0,0.0,0.0,0.0,0.0,0.0,0.0,0.0,0.0,0.0,0.0,0.0,0.0,0.0,0.0,0.0,0.0,0.0,0.0,0.0,0.0,0.0,0.0,0.0,0.0,0.0,0.0,0.0,0.0,0.0,0.0,0.0,0.0,0.0,0.0,0.0,0.0,0.0,0.0,0.0,0.0,0.0,0.0,0.0,0.0,0.0,0.0,0.0,0.0,0.0,-1.6665,-1.8022,-1.8994,-1.9424,-1.959,-1.9385,-1.8691,-1.7395,-1.5986,-1.4194,0.0,0.0,0.0,0.0,0.0,0.0,0.0,0.0,0.0,0.0,0.0,0.0,0.0,0.0,0.0,0.0,0.0,0.0,0.0,0.0,0.0,0.0,0.0,0.0,0.0,0.0,0.0,0.0,0.0,0.0,0.0,0.0,0.0,0.0,0.0,0.0,0.0,0.0,0.0,0.0,0.0,0.0,0.0,0.0,0.0,0.0,0.0,0.0,0.0,0.0,0.0,0.0,0.0,0.0,0.0,0.0,0.0,0.0,0.0,0.0,0.0,0.0,0.0,0.0,0.0,0.0,0.0,0.0,0.0,0.0,0.0,0.0,0.0,0.0,0.0,0.0,0.0,0.0,0.0,0.0,0.0,0.0,0.0,0.0,0.0,0.0,0.0,0.0,0.0,0.0,0.0,0.0,0.0,0.0,0.0,0.0,0.0,0.0,0.0,0.0,0.0,0.0,-1.6705,-1.7955,-1.874,-1.8994,-1.918,-1.9043,-1.8437,-1.7529,-1.6182,-1.4204,0.0,0.0,0.0,0.0,0.0,0.0,0.0,0.0,0.0,0.0,0.0,0.0,0.0,0.0,0.0,0.0,0.0,0.0,0.0,0.0,0.0,0.0,0.0,0.0,0.0,0.0,0.0,0.0,0.0,0.0,0.0,0.0,0.0,0.0,0.0,0.0,0.0,0.0,0.0,0.0,0.0,0.0,0.0,0.0,0.0,0.0,0.0,0.0,0.0,0.0,0.0,0.0,0.0,0.0,0.0,0.0,0.0,0.0,0.0,0.0,0.0,0.0,0.0,0.0,0.0,0.0,0.0,0.0,0.0,0.0,0.0,0.0,0.0,0.0,0.0,0.0,0.0,0.0,0.0,0.0,0.0,0.0,0.0,0.0,0.0,0.0,0.0,0.0,0.0,0.0,0.0,0.0,0.0,0.0,0.0,0.0,0.0,0.0,0.0,0.0,0.0,0.0,-1.6701,-1.7895,-1.8504,-1.8504,-1.8936,-1.8857,-1.8076,-1.7588,-1.6445,-1.433,0.0,0.0,0.0,0.0,0.0,0.0,0.0,0.0,0.0,0.0,0.0,0.0,0.0,0.0,0.0,0.0,0.0,0.0,0.0,0.0,0.0,0.0,0.0,0.0,0.0,0.0,0.0,0.0,0.0,0.0,0.0,0.0,0.0,0.0,0.0,0.0,0.0,0.0,0.0,0.0,0.0,0.0,0.0,0.0,0.0,0.0,0.0,0.0,0.0,0.0,0.0,0.0,0.0,0.0,0.0,0.0,0.0,0.0,0.0,0.0,-1.4175,-1.3232,0.0,0.0,0.0,0.0,0.0,0.0,0.0,0.0,0.0,0.0,0.0,0.0,0.0,0.0,0.0,0.0,0.0,0.0,0.0,0.0,0.0,0.0,0.0,0.0,0.0,0.0,0.0,0.0,0.0,0.0,0.0,0.0,0.0,0.0,0.0,0.0,0.0,0.0,0.0,0.0,-1.6971,-1.7744,-1.8144,-1.8144,-1.8232,-1.8203,-1.8027,-1.7305,-1.6377,-1.5215,-1.2891,0.0,0.0,0.0,0.0,0.0,0.0,0.0,0.0,0.0,0.0,0.0,0.0,0.0,0.0,0.0,0.0,0.0,0.0,0.0,0.0,0.0,0.0,0.0,0.0,0.0,0.0,0.0,0.0,0.0,0.0,0.0,0.0,0.0,0.0,0.0,0.0,0.0,0.0,0.0,0.0,0.0,0.0,0.0,0.0,0.0,0.0,0.0,0.0,0.0,0.0,0.0,0.0,0.0,0.0,0.0,0.0,0.0,0.0,0.0,-1.6804,-1.5643,0.0,0.0,0.0,0.0,0.0,0.0,0.0,0.0,0.0,0.0,0.0,0.0,0.0,0.0,0.0,0.0,0.0,0.0,0.0,0.0,0.0,0.0,0.0,0.0,0.0,0.0,0.0,0.0,0.0,0.0,0.0,0.0,0.0,0.0,0.0,0.0,0.0,0.0,0.0,0.0,-1.6652,-1.7549,-1.8008,-1.8008,-1.8008,-1.8008,-1.8008,-1.7412,-1.6582,-1.5478,-1.376,0.0,0.0,0.0,0.0,0.0,0.0,0.0,0.0,0.0,0.0,0.0,0.0,0.0,0.0,0.0,0.0,0.0,0.0,0.0,0.0,0.0,0.0,0.0,0.0,0.0,0.0,0.0,0.0,0.0,0.0,0.0,0.0,0.0,0.0,0.0,0.0,0.0,0.0,0.0,0.0,0.0,0.0,0.0,0.0,0.0,0.0,0.0,0.0,0.0,0.0,0.0,0.0,0.0,-1.9685,-2.0514,-2.1405,-2.1773,-2.2085,-2.2234,-1.978,-1.8684,-1.8518,-1.7024,0.0,0.0,0.0,0.0,0.0,0.0,0.0,0.0,0.0,0.0,0.0,0.0,0.0,0.0,0.0,0.0,0.0,0.0,0.0,0.0,0.0,0.0,-1.7832,-1.9768,-2.0274,-1.9233,-1.5385,0.0,0.0,0.0,0.0,0.0,0.0,0.0,0.0,0.0,0.0,0.0,-1.6384,-1.7356,-1.8008,-1.8008,-1.8008,-1.8008,-1.8008,-1.7695,-1.6992,-1.583,-1.4951,-1.3336,0.0,0.0,0.0,0.0,0.0,0.0,0.0,0.0,0.0,0.0,0.0,0.0,0.0,0.0,0.0,0.0,0.0,0.0,0.0,0.0,0.0,0.0,0.0,0.0,0.0,0.0,0.0,0.0,0.0,0.0,0.0,0.0,-1.3642,-1.4602,0.0,0.0,0.0,0.0,0.0,0.0,0.0,0.0,0.0,0.0,0.0,0.0,0.0,-1.8593,-1.9258,-2.1179,-2.202,-2.1794,-2.3326,-2.413,-2.423,-2.3869,-2.4432,-2.5787,-2.4425,0.0,-2.0341,-1.956,0.0,0.0,0.0,0.0,0.0,0.0,0.0,0.0,0.0,0.0,0.0,0.0,0.0,0.0,0.0,0.0,0.0,0.0,0.0,0.0,0.0,0.0,-2.1332,-2.1861,-2.2339,-2.2204,-2.0661,-1.8127,-1.5718,-1.4081,-1.2899,-1.2246,0.0,0.0,0.0,0.0,0.0,0.0,-1.6736,-1.7546,-1.8008,-1.8008,-1.8008,-1.8008,-1.8008,-1.7959,-1.7695,-1.7158,-1.6299,-1.5342,-1.4198,-1.2169,0.0,0.0,0.0,0.0,0.0,0.0,0.0,0.0,0.0,0.0,0.0,0.0,0.0,0.0,0.0,0.0,0.0,0.0,0.0,0.0,0.0,0.0,0.0,0.0,0.0,0.0,0.0,0.0,0.0,-1.3505,-1.5311,-1.6373,-1.6208,-1.5585,0.0,0.0,0.0,0.0,0.0,0.0,0.0,0.0,0.0,-1.9271,-2.0326,-2.128,-2.2146,-2.3439,-2.3938,-2.37,-2.5418,-2.6077,-2.5729,-2.6174,-2.6705,-2.7381,-2.6855,-2.5802,-2.4268,-2.2774,-2.1029,-1.9233,0.0,0.0,0.0,0.0,-1.8493,-1.8995,-2.0012,-2.0313,-2.0175,-1.9811,0.0,0.0,0.0,0.0,0.0,0.0,0.0,-1.8902,-2.0532,-2.1993,-2.3256,-2.4004,-2.4343,-2.424,-2.3252,-2.1464,-1.9349,-1.7236,-1.6855,-1.6368,-1.4785,-1.4516,0.0,0.0,0.0,-1.6514,-1.7119,-1.8133,-1.873,-1.873,-1.8506,-1.8359,-1.8359,-1.8144,-1.7832,-1.7412,-1.7021,-1.6282,-1.4996,-1.3862,-1.2373,0.0,0.0,0.0,0.0,0.0,0.0,0.0,0.0,0.0,0.0,0.0,0.0,0.0,0.0,0.0,0.0,0.0,0.0,0.0,0.0,0.0,0.0,0.0,0.0,0.0,0.0,0.0,0.0,-1.515,-1.6895,-1.7889,-1.7748,-1.7191,0.0,0.0,0.0,0.0,0.0,0.0,-1.8581,-1.9924,-2.1179,-2.2309,-2.3012,-2.3853,-2.4833,-2.5385,-2.5629,-2.5685,-2.6912,-2.7333,-2.6962,-2.7422,-2.7877,-2.8097,-2.7804,-2.7566,-2.7143,-2.5372,-2.3728,-2.2284,-2.1732,-2.1255,-2.0978,-2.182,-2.2046,-2.2159,-2.3828,-2.413,-2.3653,-2.2987,-2.2196,-2.1192,-1.9397,0.0,0.0,0.0,0.0,-2.1104,-2.3062,-2.3991,-2.4644,-2.5586,-2.5824,-2.5665,-2.5018,-2.422,-2.2706,-1.975,-1.9764,-1.9384,-1.6824,-1.6631,0.0,-1.548,-1.6632,-1.764,-1.7713,-1.8535,-1.9121,-1.9121,-1.874,-1.8477,-1.8477,-1.8193,-1.7881,-1.7568,-1.7539,-1.6992,-1.5729,-1.5248,-1.3914,-1.1574,0.0,0.0,0.0,0.0,0.0,0.0,0.0,0.0,0.0,0.0,0.0,0.0,0.0,0.0,0.0,0.0,0.0,0.0,0.0,0.0,0.0,0.0,0.0,0.0,0.0,0.0,0.0,0.0,0.0,-1.8792,-1.9224,0.0,0.0,0.0,0.0,-1.7999,-1.8982,-2.0313,-2.1983,-2.2636,-2.3489,-2.4619,-2.5699,-2.6527,-2.7118,-2.767,-2.7898,-2.7949,-2.8047,-2.8084,-2.795,-2.7037,-2.7112,-2.8024,-2.7037,-2.6882,-2.7231,-2.6603,-2.5674,-2.4594,-2.4042,-2.3816,-2.3803,-2.3853,-2.4494,-2.536,-2.5473,-2.5498,-2.5548,-2.605,-2.5134,-2.3715,-2.305,-2.2108,0.0,0.0,-2.2535,-2.3238,-2.4431,-2.5121,-2.5674,-2.6345,-2.6483,-2.6414,-2.6414,-2.587,-2.4396,-2.0739,-1.9425,-1.8711,-1.8281,0.0,-1.7024,-1.7934,-1.8041,-1.8096,-1.8516,-1.8633,-1.8672,-1.8672,-1.8291,-1.8047,-1.8047,-1.8018,-1.7998,-1.7978,-1.7978,-1.7773,-1.7334,-1.626,-1.493,-1.3507,-1.1412,0.0,0.0,0.0,0.0,0.0,0.0,0.0,0.0,0.0,0.0,0.0,0.0,0.0,0.0,0.0,0.0,0.0,0.0,0.0,0.0,0.0,0.0,0.0,0.0,0.0,0.0,0.0,0.0,-2.0404,-2.1042,0.0,-2.0329,-2.027,-2.0408,-2.0803,-2.1531,-2.2673,-2.433,-2.4971,-2.5787,-2.6904,-2.7318,-2.7607,-2.7808,-2.8009,-2.7409,-2.6083,-2.6764,-2.6764,-2.6083,-2.5789,-2.6171,-2.7075,-2.6095,-2.6141,-2.6846,-2.6664,-2.6535,-2.6389,-2.6189,-2.6327,-2.6603,-2.6239,-2.6352,-2.6628,-2.6276,-2.6151,-2.6189,-2.6458,-2.5812,-2.4983,-2.4782,-2.4443,-2.4167,-2.4368,-2.4569,-2.4895,-2.5674,-2.6013,-2.6201,-2.6483,-2.6533,-2.6533,-2.6533,-2.6302,-2.5605,-2.3595,-2.2411,-2.1235,-1.977,-1.9337,-1.909,-1.8715,-1.9004,-1.9189,-1.9072,-1.9287,-1.9355,-1.9082,-1.8672,-1.8525,-1.8809,-1.833,-1.8125,-1.8398,-1.8154,-1.7939,-1.7793,-1.6831,-1.5789,-1.4583,-1.2517,-1.0524,0.0,0.0,0.0,0.0,0.0,0.0,0.0,0.0,0.0,0.0,0.0,0.0,0.0,0.0,0.0,0.0,0.0,0.0,0.0,0.0,0.0,0.0,0.0,0.0,0.0,-1.8925,-2.0806,-2.1629,-2.2471,-2.2816,-2.258,-2.2426,-2.2636,-2.3364,-2.3941,-2.4895,-2.6364,-2.6628,-2.7155,-2.8072,-2.7921,-2.7921,-2.8109,-2.7779,-2.6926,-2.5524,-2.5919,-2.5673,-2.4747,-2.5219,-2.5646,-2.6003,-2.573,-2.6027,-2.6542,-2.6542,-2.6832,-2.7306,-2.7494,-2.7783,-2.8059,-2.7695,-2.7557,-2.7507,-2.7143,-2.6892,-2.6741,-2.6741,-2.6352,-2.5887,-2.5887,-2.5887,-2.5887,-2.5887,-2.5887,-2.5975,-2.6433,-2.6533,-2.6533,-2.6533,-2.6533,-2.6533,-2.6533,-2.6533,-2.6094,-2.4779,-2.3851,-2.2811,-2.1123,-2.0715,-2.0359,-1.9616,-1.9865,-2.0029,-1.9756,-1.9834,-1.9756,-1.9336,-1.8896,-1.8701,-1.8848,-1.8203,-1.7978,-1.8398,-1.7891,-1.7646,-1.7793,-1.6963,-1.598,-1.4802,-1.2516,-1.0446,-0.8695,0.0,0.0,0.0,0.0,0.0,0.0,0.0,0.0,0.0,0.0,0.0,0.0,0.0,0.0,0.0,0.0,0.0,0.0,0.0,0.0,0.0,0.0,0.0,-1.8778,-2.0813,-2.2383,-2.2386,-2.3373,-2.386,-2.3275,-2.3742,-2.4531,-2.5573,-2.6163,-2.6954,-2.8021,-2.757,-2.7544,-2.8084,-2.7595,-2.7557,-2.8024,-2.7051,-2.6566,-2.6491,-2.5589,-2.479,-2.4307,-2.5215,-2.5407,-2.504,-2.5992,-2.6433,-2.6502,-2.6502,-2.6829,-2.7356,-2.7871,-2.8097,-2.8109,-2.8084,-2.8072,-2.8059,-2.8059,-2.7708,-2.7256,-2.7268,-2.6917,-2.6546,-2.6546,-2.6546,-2.6546,-2.6533,-2.6533,-2.6533,-2.6533,-2.6533,-2.6533,-2.6533,-2.6533,-2.6533,-2.6533,-2.6533,-2.5943,-2.3963,-2.3514,-2.3147,-2.2103,-2.1231,-2.0566,-2.0566,-2.0566,0.0,-2.0547,-2.0166,-1.9736,-1.9336,-1.8896,-1.8486,-1.8105,-1.7676,-1.7598,-1.8008,-1.7227,-1.6943,-1.7363,-1.6543,-1.5438,-1.4172,-1.1333,-0.9199,-0.7935,0.0,0.0,0.0,0.0,0.0,0.0,0.0,0.0,0.0,0.0,0.0,0.0,0.0,0.0,0.0,0.0,0.0,0.0,0.0,0.0,0.0,-2.0333,-2.1425,-2.0744,-2.2396,-2.381,-2.4094,-2.4722,-2.5426,-2.6051,-2.6324,-2.6502,-2.6791,-2.6967,-2.7193,-2.7494,-2.7369,-2.7544,-2.8084,-2.7959,-2.763,-2.6989,-2.638,-2.5648,-2.4899,-2.3558,-2.3177,-2.3653,-2.2815,-2.3208,-2.4459,-2.4346,-2.5176,-2.6553,-2.6553,-2.7115,-2.7858,-2.7607,-2.7758,-2.8059,-2.7657,-2.7256,-2.6917,-2.6917,-2.6816,-2.6753,-2.7155,-2.718,-2.7055,-2.7055,-2.7055,-2.6967,-2.6647,-2.6533,-2.6533,-2.6533,-2.6533,-2.6533,-2.6533,-2.6533,-2.6533,-2.6533,-2.6533,-2.6094,-2.4862,-2.3963,-2.2925,-2.1308,-2.0789,-2.0566,-2.0566,-2.0566,-2.0449,-2.0137,-1.9727,-1.9414,-1.9297,-1.8896,-1.8838,-1.9346,-1.8721,-1.834,-1.8457,-1.7666,-1.7256,-1.7373,-1.6168,-1.4646,-1.2814,-1.1531,-1.0342,0.0,0.0,0.0,0.0,0.0,0.0,0.0,0.0,0.0,0.0,0.0,0.0,0.0,0.0,0.0,0.0,0.0,0.0,0.0,0.0,0.0,0.0,-2.2907,-2.4052,-2.3802,-2.4378,-2.4952,-2.5126,-2.5624,-2.6214,-2.6879,-2.6929,-2.703,-2.7268,-2.7281,-2.7381,-2.7607,-2.7406,-2.7431,-2.7758,-2.7544,-2.7179,-2.6554,-2.5805,-2.4985,-2.394,-2.281,-2.2626,-2.3252,-2.2903,-2.3729,-2.5252,-2.5398,-2.6136,-2.7224,-2.7224,-2.7545,-2.8072,0.0,0.0,0.0,0.0,-2.7419,-2.7155,-2.7155,-2.7155,-2.7168,-2.7256,-2.7281,-2.7243,-2.7005,-2.7105,-2.7168,-2.6615,-2.6697,-2.6753,-2.6584,-2.6533,-2.6533,-2.6533,-2.6533,-2.6383,-2.5943,-2.5873,-2.5429,-2.4036,-2.3294,0.0,-2.0867,-2.0566,-2.0566,-2.0566,-2.0566,-2.0478,-2.0225,-1.9971,-1.9756,-1.957,-1.9326,-1.9297,-1.9619,-1.9023,0.0,0.0,0.0,-1.7086,-1.6315,-1.5469,0.0,0.0,0.0,0.0,0.0,-1.0561,0.0,0.0,-0.9852,-0.9969,0.0,0.0,0.0,0.0,0.0,0.0,0.0,0.0,0.0,0.0,0.0,0.0,0.0,0.0,0.0,0.0,-2.5458,-2.673,-2.7072,-2.6387,-2.5845,-2.5703,-2.6151,-2.6546,-2.6553,-2.6622,-2.6753,-2.7243,-2.7281,-2.7469,-2.7896,-2.7457,0.0,0.0,0.0,-2.6465,-2.6314,-2.5501,-2.4646,-2.3751,-2.3199,-2.3115,-2.3369,-2.4548,-2.5693,-2.6761,-2.7705,-2.8138,-2.8298,-2.8298,-2.8298,-2.8285,-2.816,-2.8109,-2.8109,-2.8109,-2.8109,-2.8109,-2.8109,0.0,0.0,-2.7532,-2.7369,-2.7281,-2.6791,-2.6979,-2.7268,-2.6779,-2.6992,-2.7268,-2.6766,-2.6653,-2.6697,-2.6634,-2.6471,-2.6169,-2.5241,-2.4933,-2.4264,-2.2403,-2.2027,-2.1735,-2.0789,-2.0566,-2.0566,-2.0566,-2.0566,-2.0566,-2.0566,-2.0518,-2.0361,-2.0029,-1.9941,0.0,-1.9463,-1.9033,-1.876,-1.8711,-1.7969,-1.6768,-1.5043,-1.5052,-1.4301,-1.2787,-1.2719,-1.2586,-1.2351,-1.2619,-1.2645,-1.2418,-1.1049,-1.0969,0.0,0.0,0.0,0.0,0.0,0.0,0.0,0.0,0.0,0.0,0.0,0.0,0.0,0.0,0.0,-2.5659,-2.6553,-2.7106,-2.774,-2.6973,-2.6367,-2.6345,-2.6458,-2.6697,-2.708,-2.713,-2.7168,-2.7268,-2.7281,-2.713,-2.6804,-2.6747,-2.6615,-2.6615,-2.6584,-2.6094,-2.53,-2.5553,-2.5526,-2.538,-2.4929,0.0,-2.5844,-2.5756,-2.6221,-2.7358,-2.7855,-2.8619,-2.9465,-2.9465,-2.9465,-2.9377,-2.8461,-2.8109,-2.8109,-2.8109,-2.8109,-2.8109,-2.8109,-2.8109,-2.8084,-2.7984,-2.7946,-2.7921,-2.7821,-2.7858,0.0,-2.7821,-2.7871,-2.7921,-2.7821,-2.7783,-2.767,-2.7231,-2.6513,-2.5781,-2.5171,-2.4337,-2.3441,-2.2253,-2.2027,-2.1735,-2.0789,-2.0566,-2.0566,-2.0566,-2.0566,-2.0566,-2.0566,-2.0254,-2.0146,-2.041,-2.0127,-2.0019,-2.0293,-1.9922,-1.9521,-1.918,-1.8682,-1.7884,-1.6729,-1.7107,-1.628,-1.4101,-1.402,-1.357,-1.2735,-1.2795,-1.2966,-1.3367,-1.2599,-1.2432,0.0,0.0,0.0,0.0,0.0,0.0,0.0,0.0,0.0,0.0,0.0,-2.0707,-2.2353,0.0,-2.5592,-2.7195,-2.7825,-2.8084,-2.7913,-2.742,-2.6973,-2.6521,-2.6533,-2.6634,-2.6841,-2.6866,-2.6866,-2.6866,-2.6866,-2.6753,-2.6546,-2.6533,-2.6533,-2.6533,-2.6728,-2.6656,-2.6137,-2.6651,-2.6675,-2.6208,-2.6212,-2.6546,-2.7019,-2.6995,-2.7557,-2.8648,-2.8827,-2.9275,-2.9792,-2.9792,-2.9792,-2.9729,-2.9164,-2.895,-2.895,-2.895,-2.895,-2.895,-2.895,-2.895,-2.89,-2.8612,-2.8511,-2.8461,-2.8185,-2.8298,-2.8461,-2.8185,-2.8298,-2.8448,-2.8185,-2.7717,-2.72,-2.6932,-2.6083,-2.5009,-2.4071,-2.3435,-2.2767,-2.1568,-2.1298,-2.1155,-2.0712,-2.0566,-2.0566,-2.0566,-2.0566,-2.0566,-2.0566,-2.0381,-2.0322,-2.0537,-2.0371,-2.0332,-2.0547,-2.0166,-1.9824,-1.9609,-1.9199,-1.8514,-1.756,-1.7213,-1.6396,-1.4879,-1.4272,-1.3808,-1.3414,-1.3414,-1.3574,-1.3854,-1.3561,-1.3414,0.0,0.0,0.0,0.0,0.0,0.0,0.0,-1.7749,-1.8578,-2.1141,-2.2188,-2.3325,-2.5585,-2.6519,-2.7284,-2.8296,-2.8795,-2.8697,-2.7788,-2.7537,-2.7229,-2.6589,-2.6533,-2.6533,-2.6533,-2.6533,-2.6533,-2.6533,-2.6533,-2.6533,-2.6533,-2.6634,-2.6684,-2.6684,-2.7155,-2.7444,-2.7444,-2.7996,-2.7866,-2.7071,-2.7536,-2.7878,-2.798,-2.8246,-2.8937,-2.9792,-2.9792,-2.9792,-2.9792,-2.9792,-2.9792,-2.9792,-2.9792,-2.9792,-2.9792,-2.9792,-2.9792,-2.9792,-2.9792,-2.9792,-2.9716,-2.9252,-2.9089,-2.8938,-2.8325,-2.8412,-2.8597,-2.8001,-2.811,-2.8344,-2.7914,-2.7188,-2.6464,-2.6359,-2.5451,-2.4366,-2.3118,-2.2642,-2.2234,-2.1036,-2.082,-2.0791,-2.0713,-2.0693,-2.0664,-2.0576,-2.0566,-2.0566,-2.0566,-2.0566,-2.0566,-2.0566,-2.0566,-2.0566,-2.0566,-2.0244,-2.0039,-2.0039,-1.9727,-1.9151,-1.8161,-1.7216,-1.6272,-1.5388,-1.4437,-1.4007,-1.4088,-1.4088,-1.4088,-1.4088,-1.4088,-1.4088,-1.8756,-1.7709,-1.745,-1.9481,-1.8858,-1.8781,0.0,-2.2787,-2.2592,-2.4642,-2.5585,-2.6303,-2.7186,-2.7759,-2.8381,-2.9102,-2.8443,-2.7854,-2.7723,-2.7095,-2.6589,-2.6533,-2.6533,-2.6533,-2.6533,-2.6533,-2.6533,-2.6533,-2.6533,-2.6533,-2.6533,-2.6917,-2.7193,-2.7193,-2.772,-2.8009,-2.8009,-2.8561,-2.8762,-2.8675,-2.9262,-2.9537,-2.9537,-2.9599,-2.9702,-2.9792,-2.9792,-2.9792,-2.9792,-2.9792,-2.9792,-2.9792,-2.9792,-2.9792,-2.9792,-2.9792,-2.9792,-2.9792,-2.9792,-2.9792,-2.9779,-2.9716,-2.9691,-2.9512,-2.844,-2.8124,-2.8001,-2.6978,-2.6758,-2.6792,-2.6653,-2.656,-2.6366,-2.5824,-2.5,-2.4069,-2.3353,-2.2575,-2.1952,-2.183,-2.1738,-2.1611,-2.123,-2.1162,-2.1025,-2.0625,-2.0566,-2.0566,-2.0566,-2.0566,-2.0566,-2.0566,-2.0566,-2.0566,-2.0566,-2.0518,-2.0498,-2.0498,-2.0449,-1.9946,-1.891,-1.8743,-1.7709,-1.5726,-1.5561,-1.5018,-1.4088,-1.4088,-1.4088,-1.4088,-1.4088,-1.4088,-2.1197,-2.0689,-2.0671,-2.1168,-2.1044,-2.1551,-2.4492,-2.4477,-2.4477,-2.6856,-2.7575,-2.8068,-2.9086,-2.944,-2.9478,-2.9148,-2.8774,-2.8237,-2.7546,-2.6917,-2.6647,-2.6904,-2.6653,-2.6533,-2.6533,-2.6533,-2.6533,-2.6533,-2.6533,-2.6672,-2.6917,-2.7155,-2.7431,-2.7758,-2.8298,-2.8586,-2.8586,-2.9151,-2.9428,-2.944,-2.9679,-2.9792,-2.9792,-2.9792,-2.9792,-2.9792,-2.9792,-2.9792,-2.9792,-2.9792,-2.9792,-2.9792,-2.9792,-2.9792,-2.9792,-2.9792,-2.9792,-2.9792,-2.9792,-2.9792,-2.9792,-2.9792,-2.9792,-2.9702,-2.9197,-2.8597,-2.8016,-2.7533,-2.6964,-2.6483,-2.6483,-2.5975,-2.5408,-2.5204,-2.4346,-2.3408,-2.2965,-2.2562,-2.2178,-2.1934,-2.1885,-2.1826,-2.1641,-2.1611,-2.1553,-2.1357,-2.0889,-2.0566,-2.0566,-2.0566,-2.0566,-2.0566,-2.0566,-2.0566,-2.0566,-2.0566,-2.0566,-2.0566,-2.0566,-2.0079,-1.9036,-1.839,-1.7253,-1.5703,-1.5054,-1.4573,-1.4088,-1.4088,-1.4088,-1.4088,-1.4262,-1.4342,-2.2883,-2.2753,-2.3001,-2.297,-2.3257,-2.3999,-2.5989,-2.6063,-2.6363,-2.8652,-2.9116,-2.9406,-3.027,-3.0234,-2.9766,-2.8793,-2.8427,-2.8,-2.7202,-2.6716,-2.6603,-2.7005,-2.6703,-2.6584,-2.6747,-2.6622,-2.6533,-2.6533,-2.6533,-2.6703,-2.7256,-2.7431,-2.7758,-2.831,-2.8875,-2.9164,-2.9164,-2.9578,-2.9792,-2.9792,-2.9792,-2.9792,-2.9792,-2.9792,-2.9792,-2.9792,-2.9792,-2.9792,-2.9792,-2.9792,-2.9792,-2.9792,-2.9792,-2.9792,-2.9792,-2.9792,-2.9792,-2.9792,-2.9792,-2.9792,-2.9792,-2.9792,-2.9792,-2.9714,-2.9052,-2.8279,-2.7522,-2.6942,-2.6119,-2.5557,-2.5557,-2.4967,-2.4296,-2.4296,-2.3714,-2.3057,-2.2754,-2.2685,-2.2598,-2.2295,-2.2236,-2.2197,-2.208,-2.206,-2.2021,-2.1904,-2.1338,-2.0928,-2.0928,-2.083,-2.0703,-2.0576,-2.0566,-2.0566,-2.0566,-2.0566,-2.0566,-2.0566,-2.0323,-1.9678,-1.8559,-1.7415,-1.6355,-1.5296,-1.4489,-1.4128,-1.4208,-1.4208,-1.4249,-1.4335,-1.4543,-1.4643,-2.3539,-2.3262,-2.3496,-2.562,-2.5819,-2.6048,-2.8053,-2.8487,-2.8846,-3.0178,-3.0447,-3.0416,-3.0305,-2.9614,-2.8784,-2.7855,-2.7095,-2.6533,-2.6546,-2.6533,-2.6533,-2.6546,-2.6533,-2.6666,-2.7205,-2.6848,-2.6533,-2.6533,-2.6533,-2.6703,-2.7256,-2.7795,-2.8335,-2.8888,-2.9465,-2.9767,-2.9767,-2.9779,-2.9792,-2.9792,-2.9792,-2.9792,-2.9792,-2.9792,-2.9792,-2.9792,-2.9792,-2.9792,-2.9792,-2.9792,-2.9792,-2.9792,-2.9792,-2.9792,-2.9792,-2.9792,-2.9792,-2.9792,-2.9792,-2.9792,-2.9792,-2.9792,-2.9792,-2.9378,-2.7221,-2.6565,-2.6058,-2.3887,-2.3222,-2.3222,-2.3222,-2.3135,-2.3135,-2.3135,-2.3135,-2.3135,-2.3125,-2.3125,-2.3115,-2.3105,-2.3096,-2.2969,-2.2568,-2.249,-2.2353,-2.1953,-2.1865,-2.1846,-2.1846,-2.1475,-2.1045,-2.0605,-2.0566,-2.0566,-2.0566,-2.0566,-2.0566,-2.0566,-1.9599,-1.8559,-1.7415,-1.6355,-1.5213,-1.4173,-1.4088,-1.4222,-1.4502,-1.4502,-1.4656,-1.4937,-1.4943,-1.495,-2.3848,-2.4539,-2.5416,-2.6289,-2.703,-2.7993,-2.952,-2.9864,-2.9983,-3.0417,-3.0178,-2.9899,-2.9829,-2.8856,-2.8003,-2.7898,-2.7285,-2.6799,-2.7031,-2.7005,-2.7005,-2.7005,-2.7005,-2.708,-2.7268,-2.7118,-2.7005,-2.7005,-2.7344,-2.7632,-2.7821,-2.8348,-2.8913,-2.9478,-2.9691,-2.9792,-2.9792,-2.9792,-2.9792,-2.9792,-2.9792,-2.9792,-2.9792,-2.9792,-2.9792,-2.9792,-2.9792,-2.9792,-2.9792,-2.9792,-2.9792,-2.9792,-2.9792,-2.9792,-2.9792,-2.9792,-2.9792,-2.9792,-2.9792,-2.9792,-2.9792,-2.9792,-2.9275,-2.8518,-2.7775,-2.6532,-2.521,-2.4457,-2.3714,-2.3135,-2.3135,-2.3135,-2.3135,-2.3135,-2.3135,-2.3135,-2.3135,-2.3135,-2.3135,-2.3135,-2.3135,-2.3096,-2.2949,-2.293,-2.2881,-2.2744,-2.2246,-2.1885,-2.1885,-2.1758,-2.1611,-2.1455,-2.1445,-2.1445,-2.1445,-2.0665,-2.0227,-2.0227,-1.9143,-1.7968,-1.6861,-1.6518,-1.5756,-1.4757,-1.4669,-1.4716,-1.4816,-1.4816,-1.487,-1.497,-1.5164,-1.5251,-2.5037,-2.6072,-2.7116,-2.7795,-2.8637,-2.949,-3.0313,-3.0507,-3.0372,-2.9924,-2.931,-2.8808,-2.8459,-2.7295,-2.6568,-2.7128,-2.6625,-2.6425,-2.7163,-2.7281,-2.7356,-2.7557,-2.7582,-2.7657,-2.7846,-2.7871,-2.7708,-2.7318,-2.7795,-2.8109,-2.8109,-2.8637,-2.9202,-2.9779,-2.9792,-2.9792,-2.9792,-2.9792,-2.9792,-2.9792,-2.9792,-2.9792,-2.9792,-2.9792,-2.9792,-2.9792,-2.9792,-2.9792,-2.9792,-2.9792,-2.9792,-2.9792,-2.9792,-2.9792,-2.9792,-2.9792,-2.9792,-2.9792,-2.9792,-2.9792,-2.9792,-2.9792,-2.9028,-2.8004,-2.7602,-2.6273,-2.4702,-2.4296,-2.3627,-2.3135,-2.3135,-2.3135,-2.3135,-2.3135,-2.3135,-2.3135,-2.3135,-2.3135,-2.3135,-2.3135,-2.3135,-2.3135,-2.3135,-2.3135,-2.3135,-2.3135,-2.2676,-2.2275,-2.2129,-2.2109,-2.2051,-2.1904,-2.1885,-2.1709,-2.1265,-2.0475,-1.9858,-1.9349,-1.8235,-1.7288,-1.6595,-1.625,-1.5739,-1.5053,-1.4963,-1.5017,-1.5117,-1.5117,-1.517,-1.5277,-1.5464,-1.5551,-2.696,-2.7747,-2.8656,-3.0138,-3.0507,-3.0507,-3.0507,-3.0447,-3.0043,-2.8757,-2.7919,-2.7179,-2.6318,-2.5149,-2.4627,-2.5577,-2.5218,-2.5423,-2.7055,-2.7331,-2.7557,-2.8047,-2.8109,-2.831,-2.8837,-2.8863,-2.8423,-2.7406,-2.7858,-2.816,-2.8109,-2.8662,-2.9227,-2.9779,-2.9792,-2.9792,-2.9792,-2.9792,-2.9792,-2.9792,-2.9792,-2.9792,-2.9792,-2.9792,-2.9792,-2.9792,-2.9792,-2.9792,-2.9792,-2.9792,-2.9792,-2.9792,-2.9792,-2.9792,-2.9792,-2.9792,-2.9792,-2.9792,-2.9792,-2.9792,-2.9792,-2.9702,-2.8937,-2.7844,-2.6719,-2.563,-2.4457,-2.3387,-2.3135,-2.3135,-2.3135,-2.3135,-2.3135,-2.3135,-2.3135,-2.3135,-2.3135,-2.3135,-2.3135,-2.3135,-2.3135,-2.3135,-2.3135,-2.3135,-2.3135,-2.3135,-2.3135,-2.2998,-2.2598,-2.2549,-2.2393,-2.1992,-2.1953,-2.1415,-2.0183,-2.0005,-1.9495,-1.8213,-1.7167,-1.6551,-1.6551,-1.561,-1.501,-1.501,-1.501,-1.5144,-1.5418,-1.5418,-1.5558,-1.5832,-1.5832,-1.5832,-2.7257,-2.854,-3.0027,-3.0428,-3.0507,-3.0507,-3.0507,-2.9774,-2.8712,-2.738,-2.6183,-2.5118,-2.4399,-2.3538,-2.34,-2.4973,-2.5301,-2.5837,-2.7105,-2.7996,-2.8411,-2.8134,-2.8109,-2.816,-2.8298,-2.7946,-2.7758,-2.7883,-2.8812,-2.9001,-2.8147,-2.9038,-2.9641,-2.9792,-2.9792,-2.9792,-2.9792,-2.9792,-2.9792,-2.9792,-2.9792,-2.9792,-2.9792,-2.9792,-2.9792,-2.9792,-2.9792,-2.9792,-2.9792,-2.9792,-2.9792,-2.9792,-2.9792,-2.9792,-2.9792,-2.9792,-2.9792,-2.9792,-2.9792,-2.9792,-2.9624,-2.8767,-2.7775,-2.6707,-2.5546,-2.4467,-2.3464,-2.3222,-2.3135,-2.3135,-2.3135,-2.3135,-2.3135,-2.3135,-2.3135,-2.3135,-2.3135,-2.3135,-2.3135,-2.3135,-2.3135,-2.3135,-2.3135,-2.3135,-2.3135,-2.3135,-2.3135,-2.3096,-2.2988,-2.2978,-2.2939,-2.2832,-2.2822,-2.2274,-2.1083,-2.0102,-1.9134,-1.788,-1.67,-1.5964,-1.5964,-1.5698,-1.5611,-1.5611,-1.5611,-1.5645,-1.5718,-1.5718,-1.5758,-1.5832,-1.5832,-1.5832,-2.8564,-2.9795,-3.0956,-3.0956,-3.0731,-3.0283,-2.9415,-2.8442,-2.7171,-2.527,-2.4059,-2.3135,-2.2522,-2.1956,-2.2192,-2.3971,-2.4606,-2.5448,-2.7055,-2.7821,-2.8185,-2.8109,-2.8109,-2.8109,-2.8109,-2.8047,-2.8034,-2.8097,-2.8913,-2.9139,-2.8499,-2.9315,-2.9792,-2.9792,-2.9792,-2.9792,-2.9792,-2.9792,-2.9792,-2.9792,-2.9792,-2.9792,-2.9792,-2.9792,-2.9792,-2.9792,-2.9792,-2.9792,-2.9792,-2.9792,-2.9792,-2.9792,-2.9792,-2.9792,-2.9792,-2.9792,-2.9792,-2.9792,-2.9792,-2.9792,-2.9624,-2.8426,-2.736,-2.6307,-2.5126,-2.3963,-2.3135,-2.3135,-2.3135,-2.3135,-2.3135,-2.3135,-2.3135,-2.3135,-2.3135,-2.3135,-2.3135,-2.3135,-2.3135,-2.3135,-2.3135,-2.3135,-2.3135,-2.3135,-2.3135,-2.3135,-2.3135,-2.3135,-2.3135,-2.3135,-2.3135,-2.3135,-2.2589,-2.1854,-2.0576,-1.9405,-1.8226,-1.6943,-1.6197,-1.5832,-1.5832,-1.5832,-1.5832,-1.5832,-1.5832,-1.5832,-1.5832,-1.5832,-1.5832,-1.5832,-1.5832,-1.5832,-3.0162,-3.1001,-3.1452,-3.1362,-3.0821,-2.9759,-2.7874,-2.6737,-2.5375,-2.2921,-2.1889,-2.1208,-2.0524,-2.0469,-2.1077,-2.2788,-2.3616,-2.477,-2.6967,-2.7344,-2.757,-2.8047,-2.8047,-2.7996,-2.7996,-2.8423,-2.8536,-2.8134,-2.8612,-2.8925,-2.8925,-2.9478,-2.9792,-2.9792,-2.9792,-2.9792,-2.9792,-2.9792,-2.9792,-2.9792,-2.9792,-2.9792,-2.9792,-2.9792,-2.9792,-2.9792,-2.9792,-2.9792,-2.9792,-2.9792,-2.9792,-2.9792,-2.9792,-2.9792,-2.9792,-2.9792,-2.9792,-2.9792,-2.9792,-2.9792,-2.9624,-2.8267,-2.729,-2.6235,-2.5031,-2.3927,-2.3154,-2.3213,-2.3184,-2.3135,-2.3135,-2.3184,-2.3223,-2.3223,-2.3223,-2.3223,-2.3223,-2.3223,-2.3242,-2.3291,-2.331,-2.331,-2.331,-2.331,-2.331,-2.331,-2.3262,-2.3223,-2.3223,-2.2989,-2.2862,-2.2862,-2.1756,-2.0567,-1.9405,-1.8319,-1.7131,-1.5927,-1.5832,-1.5832,-1.5832,-1.5832,-1.5832,-1.5832,-1.5832,-1.5832,-1.5832,-1.5832,-1.5845,-1.5885,-1.5885,-1.5912,-3.0418,-3.1001,-3.1405,-3.0821,-2.9804,-2.8547,-2.7096,-2.4986,-2.2921,-2.138,-2.0513,-1.9581,-1.8048,-1.8955,-2.0332,-2.1615,-2.3045,-2.477,-2.6967,-2.767,-2.7996,-2.8097,-2.7708,-2.7419,-2.7419,-2.7507,-2.772,-2.8084,-2.8612,-2.8925,-2.8925,-2.9478,-2.9792,-2.9792,-2.9792,-2.9792,-2.9792,-2.9792,-2.9792,-2.9792,-2.9792,-2.9792,-2.9792,-2.9792,-2.9792,-2.9792,-2.9792,-2.9792,-2.9792,-2.9792,-2.9792,-2.9792,-2.9792,-2.9792,-2.9792,-2.9792,-2.9792,-2.9792,-2.9792,-2.9792,-2.9456,-2.7464,-2.6637,-2.6218,-2.4506,-2.3595,-2.3213,-2.3574,-2.3418,-2.3135,-2.3135,-2.3408,-2.3682,-2.3682,-2.3682,-2.3682,-2.3682,-2.3682,-2.3779,-2.4131,-2.4199,-2.4199,-2.4199,-2.4199,-2.4199,-2.4199,-2.3896,-2.3682,-2.3682,-2.2434,-2.1569,-2.1569,-2.0486,-1.9314,-1.8141,-1.7777,-1.7131,-1.5927,-1.5832,-1.5832,-1.5832,-1.5832,-1.5832,-1.5832,-1.5832,-1.5832,-1.5832,-1.5832,-1.5952,-1.6192,-1.6192,-1.6326,-3.0818,-3.1285,-3.1317,-3.0672,-2.9535,-2.8068,-2.6033,0.0,0.0,-1.973,-1.898,-1.8278,-1.7004,-1.8138,-1.958,-2.0475,-2.1576,-2.3138,-2.5649,-2.5988,-2.6289,-2.7143,-2.7017,-2.6854,-2.6854,-2.7369,-2.7821,-2.8084,-2.89,-2.9377,-2.9377,-2.9641,-2.9792,-2.9792,-2.9792,-2.9792,-2.9792,-2.9792,-2.9792,-2.9792,-2.9792,-2.9792,-2.9792,-2.9792,-2.9792,-2.9792,-2.9792,-2.9792,-2.9792,-2.9792,-2.9792,-2.9792,-2.9792,-2.9792,-2.9792,-2.9792,-2.9792,-2.9792,-2.9792,-2.9443,-2.8688,-2.7046,-2.6483,-2.624,-2.5026,-2.4068,-2.3564,-2.3994,-2.3965,-2.3799,-2.3799,-2.3955,-2.4111,-2.4111,-2.4111,-2.4111,-2.4111,-2.4111,-2.418,-2.4375,-2.4414,-2.4414,-2.4414,-2.4414,-2.4414,-2.4414,-2.4248,-2.3851,-2.2985,-2.1552,-2.0876,-2.1221,-2.0215,-1.9039,-1.7777,-1.7131,-1.648,-1.5825,-1.5832,-1.5899,-1.6052,-1.6059,-1.6132,-1.6279,-1.6286,-1.6286,-1.6286,-1.6286,-1.6359,-1.65,-1.65,-1.6573,-3.1001,-3.1362,-3.1345,-3.0507,-2.922,-2.7515,-2.4986,-2.2667,-2.0444,-1.8316,-1.7607,-1.7098,-1.6257,-1.7317,-1.8568,-1.9332,-2.0037,-2.1455,-2.4255,-2.4368,-2.4745,-2.6276,-2.6533,-2.6533,-2.6533,-2.7356,-2.7984,-2.8097,-2.9151,-2.9792,-2.9792,-2.9792,-2.9792,-2.9792,-2.9792,-2.9792,-2.9792,-2.9792,-2.9792,-2.9792,-2.9792,-2.9792,-2.9792,-2.9792,-2.9792,-2.9792,-2.9792,-2.9792,-2.9792,-2.9792,-2.9792,-2.9792,-2.9792,-2.9792,-2.9792,-2.9792,-2.9792,-2.9792,-2.9792,-2.9028,-2.7947,-2.7254,-2.6629,-2.6143,-2.5424,-2.4615,-2.4014,-2.4434,-2.4492,-2.4414,-2.4414,-2.4482,-2.456,-2.456,-2.456,-2.456,-2.456,-2.456,-2.459,-2.4678,-2.4697,-2.4697,-2.4697,-2.4697,-2.4697,-2.4697,-2.433,-2.3663,-2.2408,-2.1053,-2.0305,-2.0663,-1.9553,-1.845,-1.7516,-1.658,-1.6012,-1.6012,-1.6012,-1.6119,-1.6353,-1.6366,-1.6473,-1.67,-1.6707,-1.6707,-1.6707,-1.6707,-1.674,-1.68,-1.68,-1.6834,-3.0417,-3.1061,-3.124,-2.9983,-2.8203,-2.6228,-2.4163,0.0,-1.8644,-1.7437,-1.6702,-1.5976,-1.5047,-1.5872,-1.707,-1.8172,-1.9208,-2.0865,-2.3678,-2.4456,-2.5172,-2.6395,-2.6533,-2.6533,-2.6533,-2.7005,-2.757,-2.8059,-2.9151,-2.9792,-2.9792,-2.9792,-2.9792,-2.9792,-2.9792,-2.9792,-2.9792,-2.9792,-2.9792,-2.9792,-2.9792,-2.9792,-2.9792,-2.9792,-2.9792,-2.9792,-2.9792,-2.9792,-2.9792,-2.9792,-2.9792,-2.9792,-2.9792,-2.9792,-2.9792,-2.9792,-2.9792,-2.9792,-2.9792,-2.9028,-2.8167,-2.8491,-2.7217,-2.5357,-2.4665,-2.4447,-2.4443,-2.4883,-2.4727,-2.4414,-2.4414,-2.4717,-2.501,-2.501,-2.501,-2.501,-2.501,-2.501,-2.5127,-2.5537,-2.5615,-2.5615,-2.5615,-2.5615,-2.5615,-2.5615,-2.4169,-2.3121,-2.2892,-2.1411,-1.9934,-1.8851,-1.744,-1.6626,-1.6799,-1.672,-1.6627,-1.6627,-1.6627,-1.6633,-1.6667,-1.6667,-1.6673,-1.6707,-1.6707,-1.6707,-1.6707,-1.6707,-1.6847,-1.7108,-1.7108,-1.7248,-3.0118,-3.1001,-3.1168,-2.9909,-2.8068,-2.6063,-2.4059,-2.1066,-1.8337,-1.6998,-1.6084,-1.5374,-1.4904,-1.5411,-1.6283,-1.7516,-1.7777,-1.8681,-2.1129,-2.1958,-2.2987,-2.477,-2.5548,-2.6076,-2.6496,-2.6967,-2.7657,-2.8536,-2.9013,-2.9428,-2.9779,-2.9792,-2.9792,-2.9792,-2.9792,-2.9792,-2.9792,-2.9792,-2.9792,-2.9792,-2.9792,-2.9792,-2.9792,-2.9792,-2.9792,-2.9792,-2.9792,-2.9792,-2.9792,-2.9792,-2.9792,-2.9792,-2.9792,-2.9792,-2.9792,-2.9792,-2.9792,-2.9702,-2.9028,-2.8028,-2.7069,-2.659,-2.5699,-2.4947,-2.5564,-2.5345,-2.4902,-2.5342,-2.5342,-2.5205,-2.5205,-2.5342,-2.5469,-2.5469,-2.5469,-2.5469,-2.5469,-2.5469,-2.5527,-2.5703,-2.5742,-2.5742,-2.5742,-2.502,-2.451,-2.451,-2.3251,-2.186,-2.085,-2.0111,-1.9139,-1.7865,-1.7683,-1.7351,-1.6794,-1.6707,-1.6707,-1.6707,-1.6707,-1.6787,-1.6967,-1.6974,-1.7054,-1.7235,-1.7235,-1.7235,-1.7235,-1.7235,-1.7295,-1.7408,-1.7408,-1.7468,-2.8966,-3.0133,-3.0642,-2.931,-2.7485,-2.554,-2.3729,-2.0691,-1.7915,-1.6747,-1.5576,-1.4776,-1.4878,-1.512,-1.5737,-1.6917,-1.6923,-1.7539,-1.9748,-2.0552,-2.1744,-2.3979,-2.4908,-2.5586,-2.6151,-2.6854,-2.7607,-2.8386,-2.875,-2.9114,-2.9515,-2.9691,-2.9792,-2.9792,-2.9792,-2.9792,-2.9792,-2.9792,-2.9792,-2.9792,-2.9792,-2.9792,-2.9792,-2.9792,-2.9792,-2.9792,-2.9792,-2.9792,-2.9792,-2.9792,-2.9792,-2.9792,-2.9792,-2.9792,-2.9792,-2.9792,-2.9792,-2.9702,-2.8858,-2.7695,-2.6412,-2.5708,-2.5016,-2.4585,-2.5837,-2.5799,-2.5332,-2.5644,-2.5742,-2.5742,-2.5742,-2.5742,-2.5742,-2.5742,-2.5742,-2.5742,-2.5742,-2.5742,-2.5742,-2.5742,-2.5742,-2.5538,-2.5226,-2.4304,-2.3583,-2.3176,-2.1954,-2.0648,-1.9517,-1.8986,-1.8387,-1.7378,-1.789,-1.7858,-1.7062,-1.6967,-1.6967,-1.6967,-1.6967,-1.7054,-1.7268,-1.7275,-1.7375,-1.7582,-1.7582,-1.7582,-1.7582,-1.7582,-1.7582,-1.7582,-1.7582,-1.7582,-2.6632,-2.8083,-2.928,-2.7985,-2.6108,-2.4313,-2.2981,-1.9796,-1.6987,-1.6593,-1.5108,-1.4122,-1.4778,-1.4916,-1.5281,-1.6346,-1.6999,-1.8141,-2.0404,-2.1129,-2.2309,-2.4544,-2.482,-2.5034,-2.5548,-2.6628,-2.7293,-2.7306,-2.831,-2.8925,-2.8938,-2.9478,-2.9792,-2.9792,-2.9792,-2.9792,-2.9792,-2.9792,-2.9792,-2.9792,-2.9792,-2.9792,-2.9792,-2.9792,-2.9792,-2.9792,-2.9792,-2.9792,-2.9792,-2.9792,-2.9792,-2.9792,-2.9792,-2.9792,-2.9792,-2.9792,-2.9792,-2.9792,-2.9792,-2.8303,-2.655,-2.6948,-2.5883,-2.4502,-2.4932,-2.5381,-2.5732,-2.5742,-2.5742,-2.5742,-2.5742,-2.5742,-2.5742,-2.5742,-2.5742,-2.5742,-2.5742,-2.5742,-2.5742,-2.5742,-2.5742,-2.5323,-2.3998,-2.3692,-2.3276,-2.1954,-2.0538,-1.9627,-1.9627,-1.8394,-1.7575,-1.7582,-1.7575,-1.7575,-1.7569,-1.7575,-1.7575,-1.7575,-1.7575,-1.7575,-1.7582,-1.7582,-1.7582,-1.7582,-1.7582,-1.7582,-1.7582,-1.7582,-1.7582,-1.7582,-1.7582,-1.7582,-2.4881,-2.6033,-2.6647,-2.5779,-2.4418,-2.2894,-2.1285,-1.895,-1.6741,-1.5564,-1.4553,-1.4004,-1.4321,-1.4651,-1.5407,-1.6861,-1.7576,-1.8442,-1.9874,-2.1217,-2.2598,-2.4092,-2.5586,-2.6427,-2.6201,-2.6515,-2.6879,-2.7256,-2.7607,-2.7971,-2.8348,-2.89,-2.939,-2.9779,-2.9792,-2.9792,-2.9792,-2.9792,-2.9792,-2.9792,-2.9792,-2.9792,-2.9792,-2.9792,-2.9792,-2.9792,-2.9792,-2.9792,-2.9792,-2.9792,-2.9792,-2.9792,-2.9792,-2.9792,-2.9792,-2.9792,-2.9792,-2.9546,-2.8051,-2.7058,-2.6246,-2.4805,-2.4235,-2.4072,-2.4492,-2.5146,-2.5742,-2.5742,-2.5742,-2.5742,-2.5742,-2.5742,-2.5742,-2.5742,-2.5742,-2.5742,-2.5742,-2.5742,-2.5742,-2.5742,-2.5742,-2.5226,-2.3899,-2.2968,-2.1853,-2.0436,-1.9117,-1.8199,-1.8199,-1.7891,-1.7582,-1.7582,-1.7582,-1.7582,-1.7582,-1.7582,-1.7582,-1.7582,-1.7582,-1.7582,-1.7582,-1.7582,-1.7582,-1.7582,-1.7582,-1.7582,-1.7582,-1.7582,-1.7582,-1.7582,-1.7582,-1.7582,-2.2506,-2.3984,-2.4702,-2.4044,-2.2906,-2.161,-2.0239,-1.8136,-1.6231,-1.5278,-1.4298,-1.3728,-1.4044,-1.4538,-1.5318,-1.6547,-1.7212,-1.8091,-1.9597,-2.1066,-2.2648,-2.4393,-2.6,-2.6753,-2.6189,-2.6395,-2.6672,-2.6942,-2.7168,-2.7431,-2.777,-2.8323,-2.8787,-2.9151,-2.9578,-2.9792,-2.9792,-2.9792,-2.9792,-2.9792,-2.9792,-2.9792,-2.9792,-2.9792,-2.9792,-2.9792,-2.9792,-2.9792,0.0,-2.9792,-2.9792,-2.9792,-2.9792,-2.9792,-2.9792,-2.9287,-2.9197,-2.887,-2.7139,-2.6224,-2.563,-2.4221,-2.3771,-2.3896,-2.4482,-2.5166,-2.5742,-2.5742,-2.5742,-2.5742,-2.5742,-2.5742,-2.5742,-2.5742,-2.5742,-2.5742,-2.5742,-2.5742,-2.5742,-2.5742,-2.5323,-2.451,-2.3176,-2.1853,-2.0436,-1.9013,-1.8094,-1.7582,-1.7582,-1.7582,-1.7582,-1.7582,-1.7582,-1.7582,-1.7582,-1.7582,-1.7582,-1.7582,-1.7582,-1.7582,-1.7582,-1.7582,-1.7582,-1.7582,-1.7582,-1.7582,-1.7582,-1.7582,-1.7582,-1.7582,-1.7582,-1.7582,0.0,-2.1769,-2.3041,-2.2458,-2.141,-2.0318,-1.9594,-1.7407,0.0,-1.541,-1.4204,-1.3421,-1.4035,-1.4563,-1.509,-1.5768,-1.6371,-1.7488,-1.9623,-2.0991,-2.2749,-2.5347,-2.6163,-2.6289,-2.5711,-2.6138,-2.6533,-2.6533,-2.6929,-2.7218,-2.7218,-2.7745,-2.8047,-2.8047,-2.9101,-2.9691,-2.9729,-2.9779,-2.9792,-2.9792,-2.9792,-2.9792,-2.9792,-2.9792,-2.9792,-2.9792,-2.9792,-2.9792,-2.9792,-2.9792,-2.9792,-2.9792,-2.9792,-2.9792,-2.9702,-2.8597,-2.8176,-2.7936,-2.6883,-2.5714,-2.4787,-2.4713,-2.4267,-2.3945,-2.4775,-2.5332,-2.5693,-2.5723,-2.5742,-2.5742,-2.5742,-2.5742,-2.5742,-2.5742,-2.5742,-2.5742,-2.5742,-2.5742,-2.5742,-2.5742,-2.4609,-2.3276,-2.1954,-2.0538,-1.9117,-1.7786,-1.7582,-1.7582,-1.7582,-1.7582,-1.7582,-1.7582,-1.7582,-1.7582,-1.7582,-1.7582,-1.7582,-1.7582,-1.7582,-1.7582,-1.7582,-1.7582,-1.7582,-1.7582,-1.7582,-1.7582,-1.7582,-1.7582,-1.7582,-1.7582,-1.7582,-1.7582,-1.7473,0.0,-1.9061,-1.8927,-1.8657,-1.8138,0.0,-1.6189,-1.5275,-1.4459,-1.3705,-1.3498,-1.4538,-1.4828,-1.552,-1.7325,-1.8405,-1.951,-2.0891,-2.3125,-2.5034,-2.6126,-2.6753,-2.6866,-2.6314,-2.6445,-2.6533,-2.6533,-2.6647,-2.6653,-2.6653,-2.718,-2.7482,-2.7482,-2.8147,-2.8712,-2.9126,-2.9566,-2.9792,-2.9792,-2.9792,-2.9792,-2.9792,-2.9792,-2.9792,-2.9792,-2.9792,-2.9792,-2.9792,-2.9792,-2.9792,-2.9792,-2.9792,-2.9792,-2.9792,-2.9534,-2.8858,-2.7936,-2.6883,-2.5714,-2.4617,-2.38,-2.3595,-2.3887,-2.4414,-2.4873,-2.5293,-2.5644,-2.5742,-2.5742,-2.5742,-2.5742,-2.5742,-2.5742,-2.5742,-2.5742,-2.5742,-2.5742,-2.5742,-2.5742,-2.4609,-2.3276,-2.1954,-2.0538,-1.9117,-1.7786,-1.7582,-1.7582,-1.7582,-1.7582,-1.7582,-1.7582,-1.7582,-1.7582,-1.7582,-1.7582,-1.7582,-1.7582,-1.7582,-1.7582,-1.7582,-1.7582,-1.7582,-1.7582,-1.7582,-1.7582,-1.7582,-1.7582,-1.7582,-1.7582,-1.7582,-1.7582,-1.6219,-1.7206,-1.8179,-1.8179,-1.7921,-1.756,-1.6963,0.0,0.0,0.0,0.0,-1.3461,-1.4374,-1.4941,-1.5731,-1.72,-1.8568,-2.02,-2.2334,-2.4582,-2.6201,-2.6766,-2.7105,-2.7067,-2.6584,-2.6533,-2.6533,-2.6533,-2.6533,-2.6533,-2.6533,-2.681,-2.6904,-2.6904,-2.7444,-2.7996,-2.8549,-2.9114,-2.9402,-2.9402,-2.9666,-2.9792,-2.9792,-2.9792,-2.9792,-2.9792,-2.9792,-2.9792,-2.9792,-2.9792,-2.9792,-2.9792,-2.9792,-2.9792,-2.9714,-2.8633,-2.7879,-2.7116,-2.5473,-2.4553,-2.3877,-2.3299,-2.3301,-2.3574,-2.3994,-2.4287,-2.4658,-2.5498,-2.5742,-2.5742,-2.5742,-2.5742,-2.5742,-2.5742,-2.5742,-2.5742,-2.5742,-2.5742,-2.5528,-2.4913,-2.3692,-2.2366,-2.0939,-1.9627,-1.8401,-1.7687,-1.7582,-1.7582,-1.7582,-1.7582,-1.7582,-1.7582,-1.7582,-1.7582,-1.7582,-1.7582,-1.7582,-1.7582,-1.7582,-1.7582,-1.7582,-1.7582,-1.7582,-1.7582,-1.7582,-1.7582,-1.7582,-1.7582,-1.7582,-1.7582,-1.7582,-1.7259,-1.5589,-1.7131,-1.8523,-1.8433,-1.8026,-1.7697,-1.7697,0.0,0.0,0.0,0.0,0.0,-1.45,-1.5369,-1.6183,-1.6898,-1.843,-2.0639,-2.3803,-2.5448,-2.654,-2.7092,-2.7155,-2.6967,-2.6502,-2.6533,-2.6533,-2.6533,-2.6533,-2.6533,-2.6533,-2.6533,-2.6533,-2.6533,-2.6917,-2.7381,-2.7846,-2.8486,-2.885,-2.8938,-2.9428,-2.9704,-2.9792,-2.9792,-2.9792,-2.9792,-2.9792,-2.9792,-2.9792,-2.9792,-2.9792,-2.9792,-2.9792,-2.9702,-2.9287,-2.7464,-2.6554,-2.5975,-2.38,-2.3135,-2.3135,-2.3135,-2.3135,-2.3223,-2.3662,-2.3789,-2.4033,-2.5205,-2.5586,-2.5654,-2.5723,-2.5742,-2.5742,-2.5742,-2.5742,-2.5742,-2.5742,-2.5538,-2.502,-2.389,-2.2466,-2.1041,-1.9834,-1.8506,-1.7582,-1.7582,-1.7582,-1.7582,-1.7582,-1.7582,-1.7582,-1.7582,-1.7582,-1.7582,-1.7582,-1.7582,-1.7582,-1.7582,-1.7582,-1.7582,-1.7582,-1.7582,-1.7582,-1.7582,-1.7582,-1.7582,-1.7582,-1.7582,-1.7582,-1.7582,-1.7364,-1.663,-1.5469,-1.6802,-1.7712,-1.716,-1.7354,-1.7697,-1.7697,0.0,0.0,0.0,0.0,0.0,0.0,-1.7055,-1.7601,-1.9058,-2.0715,-2.2636,-2.5021,-2.5573,-2.5937,-2.6584,-2.6647,-2.6622,-2.6533,-2.6533,-2.6533,-2.6533,-2.6533,-2.6533,-2.6533,-2.6533,-2.6533,-2.6533,-2.6609,-2.6697,-2.6716,-2.772,-2.8461,-2.8925,-2.9013,-2.9315,-2.9792,-2.9792,-2.9792,-2.9792,-2.9792,-2.9792,-2.9792,-2.9792,-2.9792,-2.9792,-2.9792,-2.9197,-2.8347,-2.8016,-2.6696,-2.4872,-2.3551,-2.3135,-2.3135,-2.3135,-2.3135,-2.3223,-2.3662,-2.3789,-2.3906,-2.4463,-2.4883,-2.5254,-2.5635,-2.5742,-2.5742,-2.5742,-2.5742,-2.5742,-2.5742,-2.4815,-2.3998,-2.3791,-2.1659,-1.9826,-1.9627,-1.8506,-1.7582,-1.7582,-1.7582,-1.7582,-1.7582,-1.7582,-1.7582,-1.7582,-1.7582,-1.7582,-1.7582,-1.7582,-1.7582,-1.7582,-1.7582,-1.7582,-1.7582,-1.7582,-1.7582,-1.7582,-1.7582,-1.7582,-1.7582,-1.7582,-1.7582,-1.7582,-1.628,-1.5755,-1.4914,-1.6204,-1.7186,-1.7257,-1.7826,-1.8258,-1.7934,-1.725,0.0,0.0,0.0,0.0,0.0,-1.8071,-1.8995,-2.1242,-2.2774,-2.4117,-2.5423,-2.5862,-2.6163,-2.6496,-2.6533,-2.6533,-2.6533,-2.6533,-2.6533,-2.6533,-2.6533,-2.6533,-2.6533,-2.6533,-2.6533,-2.6533,-2.6533,-2.6533,-2.6533,-2.6967,-2.7494,-2.8047,-2.8348,-2.8775,-2.9327,-2.9327,-2.9503,-2.9792,-2.9792,-2.9792,-2.9792,-2.9792,-2.9792,-2.9714,-2.9106,-2.8597,-2.7924,-2.6767,-2.5284,-2.38,-2.3299,-2.3135,-2.3135,-2.3135,-2.3135,-2.3174,-2.3379,-2.3437,-2.3525,-2.3955,-2.4551,-2.5117,-2.5322,-2.5557,-2.5742,-2.5742,-2.5742,-2.5742,-2.5742,-2.4609,-2.3484,-2.2767,-2.0947,-1.9317,-1.8603,-1.7996,-1.7582,-1.7582,-1.7582,-1.7582,-1.7582,-1.7582,-1.7582,-1.7582,-1.7582,-1.7582,-1.7582,-1.7582,-1.7582,-1.7582,-1.7582,-1.7582,-1.7582,-1.7582,-1.7582,-1.7582,-1.7582,-1.7582,-1.7582,-1.7582,-1.7147,-1.6393,-1.5785,-1.4707,-1.4644,-1.583,-1.6899,-1.7633,0.0,-1.9008,-1.8672,-1.7936,-1.7585,0.0,0.0,0.0,-1.8519,-1.9262,-2.0614,-2.3065,-2.4356,-2.5146,-2.5536,-2.5975,-2.6214,-2.6088,-2.6189,-2.6264,-2.6264,-2.6445,-2.6533,-2.6533,-2.6533,-2.6533,-2.6533,-2.6533,-2.6533,-2.6533,-2.6533,-2.6533,-2.6533,-2.6533,-2.6741,-2.7293,-2.7708,-2.8197,-2.8737,-2.8875,-2.9164,-2.9591,-2.9729,-2.9792,-2.9792,-2.9792,-2.9624,-2.9287,-2.8426,-2.7763,-2.7093,-2.5126,-2.3887,-2.3135,-2.3135,-2.3135,-2.3135,-2.3135,-2.3135,-2.3135,-2.3135,-2.3135,-2.3213,-2.3545,-2.4189,-2.4814,-2.5019,-2.5322,-2.5605,-2.5713,-2.5742,-2.5635,-2.5323,-2.4196,-2.2868,-2.1448,-2.0128,-1.8812,-1.7786,-1.7582,-1.7582,-1.7582,-1.7582,-1.7582,-1.7582,-1.7582,-1.7582,-1.7582,-1.7582,-1.7582,-1.7582,-1.7582,-1.7582,-1.7582,-1.7582,-1.7582,-1.7582,-1.7582,-1.7582,-1.7582,-1.7582,-1.7582,-1.7582,-1.7252,-1.653,-1.5511,-1.4948,-1.3537,-1.5199,-1.6204,-1.6884,-1.7675,-1.8775,-1.9765,-2.0304,-2.0367,0.0,-2.0417,0.0,-2.0176,-1.9763,-2.0966,-2.2648,-2.4406,-2.5172,-2.5548,-2.5586,-2.5636,-2.5473,-2.4996,-2.536,-2.5649,-2.5649,-2.6138,-2.6533,-2.6533,-2.6533,-2.6533,-2.6533,-2.6533,-2.6533,-2.6533,-2.6533,-2.6533,-2.6533,-2.6533,-2.6741,-2.7281,-2.7318,-2.7632,-2.8185,-2.8699,-2.895,-2.9026,-2.9566,-2.9792,-2.9792,-2.9792,-2.9197,-2.8176,-2.8096,-2.6849,-2.4872,-2.3637,-2.3135,-2.3135,-2.3135,-2.3135,-2.3135,-2.3135,-2.3135,-2.3135,-2.3135,-2.3135,-2.3144,-2.3174,-2.3525,-2.4062,-2.4863,-2.5088,-2.5215,-2.5635,-2.5742,-2.5333,-2.4097,-2.2767,-2.1448,-2.0033,-1.8708,-1.7687,-1.7582,-1.7582,-1.7582,-1.7582,-1.7582,-1.7582,-1.7582,-1.7582,-1.7582,-1.7582,-1.7582,-1.7582,-1.7582,-1.7582,-1.7582,-1.7582,-1.7582,-1.7582,-1.7582,-1.7582,-1.7582,-1.7582,-1.7582,-1.7582,-1.7582,-1.628,-1.5546,-1.5568,-1.2918,-1.1675,-1.4618,-1.5905,-1.6899,-1.7669,-1.9405,0.0,0.0,-2.008,-2.0549,-2.2133,-2.1786,-2.1224,-2.136,-2.2171,-2.3263,-2.4607,-2.5259,-2.5724,-2.6088,-2.5824,-2.5523,-2.5322,-2.5197,-2.5109,-2.5109,-2.531,-2.5573,-2.59,-2.5925,-2.6076,-2.6508,-2.6533,-2.6533,-2.6533,-2.6533,-2.6533,-2.6533,-2.6533,-2.6634,-2.6766,-2.6766,-2.7055,-2.7607,-2.7808,-2.8097,-2.8448,-2.9013,-2.8845,-2.8293,-2.8633,-2.8108,-2.7035,-2.6356,-2.5115,-2.3714,-2.3222,-2.3135,-2.3135,-2.3135,-2.3135,-2.3135,-2.3135,-2.3135,-2.3135,-2.3135,-2.3135,-2.3135,-2.3135,-2.3262,-2.3525,-2.4121,-2.4463,-2.4775,-2.5215,-2.4621,-2.3989,-2.3737,-2.1963,-2.0238,-1.9731,-1.8506,-1.7582,-1.7582,-1.7582,-1.7582,-1.7582,-1.7582,-1.7582,-1.7582,-1.7582,-1.7582,-1.7582,-1.7582,-1.7582,-1.7582,-1.7582,-1.7582,-1.7582,-1.7582,-1.7582,-1.7582,-1.7582,-1.7582,-1.7582,-1.7582,-1.7582,-1.7582,-1.6168,-1.5013,-1.4272,-1.228,-1.1121,-1.4677,-1.6054,-1.7243,-1.8185,0.0,0.0,-2.1005,-2.0818,-2.1179,-2.3045,-2.2431,-2.1707,-2.2435,-2.2874,-2.3441,-2.4632,-2.541,-2.5937,-2.6151,-2.5699,-2.5285,-2.5109,-2.4782,-2.4556,-2.4556,-2.472,-2.4971,-2.5322,-2.536,-2.5523,-2.5925,-2.6101,-2.6189,-2.6189,-2.6433,-2.6533,-2.6533,-2.6533,-2.6533,-2.6533,-2.6533,-2.6653,-2.703,-2.7205,-2.7494,-2.7871,-2.8102,-2.7883,-2.7335,-2.7375,-2.6805,-2.588,-2.4713,-2.38,-2.3135,-2.3135,-2.3135,-2.3135,-2.3135,-2.3135,-2.3135,-2.3135,-2.3135,-2.3135,-2.3135,-2.3135,-2.3135,-2.3135,-2.3135,-2.3213,-2.3506,-2.3896,-2.4234,-2.4277,-2.3688,-2.2868,-2.2343,-2.0875,-1.942,-1.9013,-1.8199,-1.7582,-1.7582,-1.7582,-1.7582,-1.7582,-1.7582,-1.7582,-1.7582,-1.7582,-1.7582,-1.7582,-1.7582,-1.7582,-1.7582,-1.7582,-1.7582,-1.7582,-1.7582,-1.7582,-1.7582,-1.7582,-1.7582,-1.7582,-1.7582,-1.7364,-1.6929,-1.5499,-1.4139,-1.2819,-1.1544,-1.0457,-1.5619,-1.6727,-1.8011,-1.9361,0.0,0.0,-2.3069,-2.2944,-2.256,-2.301,-2.2259,-2.1845,-2.2937,-2.3078,-2.3453,-2.4644,-2.5737,-2.6251,-2.5686,-2.5146,-2.4619,-2.4067,-2.4004,-2.3991,-2.3991,-2.4481,-2.4808,-2.4808,-2.4808,-2.4808,-2.482,-2.531,-2.5586,-2.5586,-2.6151,-2.6521,-2.6521,-2.6533,-2.6533,-2.6533,-2.6533,-2.6533,-2.6546,-2.703,-2.7268,-2.7235,-2.6759,-2.6812,-2.7221,-2.62,-2.536,-2.4702,-2.3551,-2.3135,-2.3135,-2.3135,-2.3135,-2.3135,-2.3135,-2.3135,-2.3135,-2.3135,-2.3135,-2.3135,-2.3135,-2.3135,-2.3135,-2.3135,-2.3135,-2.3135,-2.3057,-2.3457,-2.3606,-2.2795,-2.2799,-2.2292,-1.9737,-1.9396,-1.922,-1.7891,-1.7582,-1.7582,-1.7582,-1.7582,-1.7582,-1.7582,-1.7582,-1.7582,-1.7582,-1.7582,-1.7582,-1.7582,-1.7582,-1.7582,-1.7582,-1.7582,-1.7582,-1.7582,-1.7582,-1.7582,-1.7582,-1.7582,-1.7582,-1.7582,-1.7582,-1.6823,-1.5417,-1.415,-1.2819,-1.1429,-1.0233,-0.9686,-1.5619,-1.6727,0.0,-1.9361,0.0,0.0,0.0,-2.3345,0.0,-2.3866,-2.367,-2.3367,-2.3135,-2.3477,-2.3979,-2.4707,-2.5398,-2.5937,-2.6176,-2.541,-2.4757,-2.4594,-2.3879,-2.3389,-2.3389,-2.354,-2.3803,-2.4217,-2.4243,-2.4406,-2.4795,-2.4971,-2.5059,-2.5059,-2.5573,-2.585,-2.585,-2.6319,-2.6533,-2.6533,-2.6533,-2.6533,-2.6533,-2.6628,-2.6342,-2.5707,-2.5912,-2.5304,-2.4037,-2.3618,-2.3395,-2.3218,-2.3104,-2.3135,-2.3135,-2.3135,-2.3135,-2.3135,-2.3135,-2.3135,-2.3135,-2.3135,-2.3135,-2.3135,-2.3135,-2.3135,-2.3135,-2.3135,-2.3135,-2.2862,-2.2031,-2.1937,-2.2041,-2.2189,-2.0857,-1.945,-1.9245,-1.852,-1.7846,-1.7647,-1.7582,-1.7582,-1.7582,-1.7582,-1.7582,-1.7582,-1.7582,-1.7582,-1.7582,-1.7582,-1.7582,-1.7582,-1.7582,-1.7582,-1.7582,-1.7582,-1.7582,-1.7582,-1.7582,-1.7582,-1.7582,-1.7582,-1.7582,-1.7582,-1.7582,-1.6823,-1.5417,-1.415,-1.2819,-1.1429,-1.0233,-0.9686,-1.6234,-1.7505,0.0,-2.0154,-2.2054,-2.3821,-2.4578,-2.4284,-2.3847,-2.3838,-2.3645,-2.3451,-2.3148,-2.3427,-2.3841,-2.4406,-2.5109,-2.5649,-2.5787,-2.5234,-2.4745,-2.4519,-2.369,-2.3078,-2.3078,-2.3078,-2.3215,-2.3627,-2.3653,-2.3803,-2.413,-2.4368,-2.4494,-2.4494,-2.5008,-2.5385,-2.5598,-2.5937,-2.6239,-2.6533,-2.6533,-2.6314,-2.5873,-2.5873,-2.5581,-2.4969,-2.471,-2.3635,-2.2107,-2.2211,-2.2363,-2.2539,-2.2793,-2.2988,-2.3135,-2.3135,-2.3135,-2.3135,-2.3135,-2.3135,-2.3135,-2.3135,-2.3135,-2.3135,-2.3135,-2.3135,-2.3135,-2.3135,-2.2765,-2.2217,-2.148,-2.0576,-1.9911,-2.0247,-1.9201,-1.8089,-1.8094,-1.7576,-1.7201,-1.7375,-1.7502,-1.7582,-1.7582,-1.7582,-1.7582,-1.7582,-1.7582,-1.7582,-1.7582,-1.7582,-1.7582,-1.7582,-1.7582,-1.7582,-1.7582,-1.7582,-1.7582,-1.7582,-1.7582,-1.7582,-1.7582,-1.7582,-1.7582,-1.7582,-1.7041,-1.601,-1.4597,-1.329,-1.2038,-1.074,-0.9975,-0.9741,-1.7056,-1.8553,-1.9929,-2.1335,-2.2742,-2.4268,-2.6057,-2.5427,-2.4163,-2.3471,-2.2783,-2.2535,-2.2977,-2.3115,-2.3389,-2.3916,-2.4858,-2.536,-2.4895,-2.4782,-2.4556,-2.4054,-2.3489,-2.3078,-2.3078,-2.3078,-2.3078,-2.3078,-2.3078,-2.3078,-2.3078,-2.364,-2.3916,-2.3916,-2.4456,-2.4971,-2.5448,-2.5548,-2.5862,-2.6308,-2.6358,-2.5873,-2.4862,-2.4933,-2.4933,-2.4659,-2.3167,-2.1995,-2.1211,-2.165,-2.2051,-2.2402,-2.2441,-2.2715,-2.3086,-2.3086,-2.3105,-2.3135,-2.3135,-2.3135,-2.3135,-2.3135,-2.3135,-2.3135,-2.3135,-2.3135,-2.3047,-2.296,-2.212,-2.1203,-2.1025,-1.9314,-1.7692,-1.7598,-1.7727,-1.7565,-1.6551,-1.6693,-1.7081,-1.7141,-1.7361,-1.7549,-1.7582,-1.7582,-1.7582,-1.7582,-1.7582,-1.7582,-1.7582,-1.7582,-1.7582,-1.7582,-1.7582,-1.7582,-1.7582,-1.7582,-1.7582,-1.7582,-1.7582,-1.7582,-1.7582,-1.7582,-1.7582,-1.7364,-1.6062,-1.4678,-1.3271,-1.213,-1.0833,-0.9612,-0.9754,-0.9822,-1.6113,-1.752,0.0,-2.1231,-2.3445,-2.5265,-2.5631,-2.5441,-2.5119,-2.4951,-2.3826,-2.2927,-2.3053,-2.3502,-2.3853,-2.3979,-2.4556,-2.4946,-2.4845,-2.4456,-2.413,-2.4017,-2.3489,-2.3078,-2.3078,-2.3078,-2.3078,-2.3078,-2.3078,-2.3078,-2.3078,-2.319,-2.3265,-2.3265,-2.3879,-2.423,-2.4343,-2.5172,-2.5314,-2.4687,-2.5095,-2.4779,-2.3818,-2.4636,-2.4108,-2.2553,-2.1553,-2.0927,-2.0742,-2.1191,-2.1426,-2.1543,-2.1885,-2.2275,-2.2646,-2.2646,-2.2852,-2.3135,-2.3135,-2.3135,-2.3135,-2.3135,-2.3135,-2.3135,-2.3135,-2.3135,-2.2862,-2.1943,-2.148,-2.0845,-1.8956,-1.8048,-1.7412,-1.648,-1.6252,-1.6266,-1.6316,-1.6373,-1.66,-1.7163,-1.7201,-1.7315,-1.7542,-1.7582,-1.7582,-1.7582,-1.7582,-1.7582,-1.7582,-1.7582,-1.7582,-1.7582,-1.7582,-1.7582,-1.7582,-1.7582,-1.7582,-1.7582,-1.7582,-1.7582,-1.7582,-1.7582,-1.7041,-1.5849,-1.5524,-1.4234,-1.1814,-1.1562,-1.0833,-0.9612,-0.9754,-0.9822,-1.6278,0.0,0.0,-2.2443,0.0,-2.5297,-2.5894,-2.5739,-2.5472,-2.5398,-2.415,-2.3078,-2.3078,-2.3389,-2.359,-2.359,-2.4054,-2.433,-2.4054,-2.4004,-2.3891,-2.3615,-2.3314,-2.3078,-2.3078,-2.3078,-2.3078,-2.3078,-2.3078,-2.3078,-2.3078,-2.3078,-2.3078,-2.3078,-2.3427,-2.3715,-2.4004,-2.4556,-2.4624,-2.4232,-2.4505,-2.395,-2.2776,-2.3294,-2.2776,-2.1298,-2.0789,-2.0566,-2.0586,-2.082,-2.1045,-2.126,-2.1484,-2.1836,-2.2236,-2.2441,-2.2646,-2.2861,-2.3066,-2.3135,-2.3135,-2.3135,-2.3135,-2.3135,-2.3135,-2.3135,-2.2862,-2.1658,-2.0845,-2.0034,-1.8141,-1.7225,-1.6662,-1.592,-1.5832,-1.5872,-1.6025,-1.6172,-1.6366,-1.6673,-1.6954,-1.7194,-1.7348,-1.7488,-1.7582,-1.7582,-1.7582,-1.7582,-1.7582,-1.7582,-1.7582,-1.7582,-1.7582,-1.7582,-1.7582,-1.7582,-1.7582,-1.7582,-1.7582,-1.7582,-1.7582,-1.6929,-1.6174,-1.5417,-1.4019,-1.2655,-1.1394,-1.0815,-1.0186,-0.971,-0.9785,-0.9822,-1.6099,0.0,-2.0423,-2.352,-2.4462,0.0,-2.6004,-2.5751,-2.5326,-2.5217,-2.42,-2.3245,-2.3138,-2.3078,-2.3078,-2.3078,-2.354,-2.3678,-2.314,-2.3552,-2.3665,-2.3128,-2.3078,-2.3078,-2.3078,-2.3078,-2.3078,-2.3078,-2.3078,-2.3078,-2.3078,-2.3078,-2.3078,-2.3078,-2.3078,-2.3364,-2.3841,-2.3817,-2.3713,-2.3673,-2.3503,-2.2855,-2.1621,-2.1694,-2.1298,-2.0566,-2.0566,-2.0566,-2.0566,-2.0566,-2.0781,-2.1123,-2.1123,-2.1387,-2.1816,-2.2168,-2.2383,-2.2568,-2.291,-2.3076,-2.3135,-2.3135,-2.3135,-2.3135,-2.3135,-2.295,-2.258,-2.1302,-2.0124,-1.8956,-1.7677,-1.6574,-1.5832,-1.5832,-1.5832,-1.5832,-1.5832,-1.6019,-1.6213,-1.6259,-1.6747,-1.7148,-1.7148,-1.7388,-1.7582,-1.7582,-1.7582,-1.7582,-1.7582,-1.7582,-1.7582,-1.7582,-1.7582,-1.7582,-1.7582,-1.7582,-1.7582,-1.7582,-1.7582,-1.7477,-1.7252,-1.5849,-1.4877,-1.4663,-1.2295,-1.1065,-1.1085,-0.995,-0.9534,-0.9822,-0.9822,-0.9822,-1.319,0.0,-2.0213,0.0,-2.3789,-2.4627,-2.4852,-2.4769,-2.4619,-2.4565,-2.4305,-2.3943,-2.3245,-2.3078,-2.3078,-2.3078,-2.314,-2.3165,-2.3078,-2.314,-2.3165,-2.3078,-2.3078,-2.3078,-2.3078,-2.3078,-2.3078,-2.3078,-2.3078,-2.3078,-2.3078,-2.3078,-2.3078,-2.3078,-2.3078,-2.3115,-2.3251,-2.3018,-2.2462,-2.1576,-2.0823,-2.0372,-2.0151,-2.0611,-2.0712,-2.0566,-2.0566,-2.0566,-2.0566,-2.0566,-2.0596,-2.0654,-2.0654,-2.0928,-2.1328,-2.1387,-2.1875,-2.2519,-2.2578,-2.2832,-2.3135,-2.3135,-2.3135,-2.3135,-2.3135,-2.2394,-2.1302,-2.0124,-1.8864,-1.7684,-1.6386,-1.592,-1.5832,-1.5832,-1.5832,-1.5832,-1.5832,-1.5858,-1.5965,-1.6219,-1.6747,-1.7148,-1.7148,-1.7388,-1.7582,-1.7582,-1.7582,-1.7582,-1.7582,-1.7582,-1.7582,-1.7582,-1.7582,-1.7582,-1.7582,-1.7582,-1.7582,-1.7582,-1.7582,-1.7041,-1.5743,-1.4341,-1.294,-1.1755,-1.1324,-1.0628,-0.9726,-0.9494,-0.9534,-0.9822,-0.9822,-0.9822,-1.4229,-1.7026,-1.9705,0.0,-2.3116,-2.3729,-2.4462,-2.4608,-2.4538,-2.4489,-2.4182,-2.3723,-2.3191,-2.3078,-2.3078,-2.3078,-2.3078,-2.3078,-2.3078,-2.3078,-2.3078,-2.3078,-2.3078,-2.3078,-2.3078,-2.3078,-2.3078,-2.3078,-2.3078,-2.3078,-2.3078,-2.3078,-2.3078,-2.3078,-2.3078,-2.2884,-2.2445,-2.2303,-2.1636,-2.0447,-1.9817,-1.9687,-1.9922,-2.0117,-2.0332,-2.0566,-2.0566,-2.0566,-2.0566,-2.0566,-2.0566,-2.0566,-2.0566,-2.0684,-2.0889,-2.1143,-2.1475,-2.1836,-2.208,-2.2441,-2.2783,-2.2783,-2.2949,-2.296,-2.2306,-2.1747,-2.0935,-1.9039,-1.8141,-1.7412,-1.6109,-1.5832,-1.5832,-1.5832,-1.5832,-1.5832,-1.5832,-1.5832,-1.5919,-1.6213,-1.648,-1.676,-1.7094,-1.7255,-1.7395,-1.7555,-1.7582,-1.7582,-1.7582,-1.7582,-1.7582,-1.7582,-1.7582,-1.7582,-1.7582,-1.7582,-1.7582,-1.7582,-1.7582,-1.6929,-1.5417,-1.4019,-1.262,-1.1105,-1.0241,-0.9749,-0.9381,-0.9381,-0.9534,-0.9822,-0.9822,-0.9822,0.0,0.0,-1.8343,-2.1006,-2.1919,-2.2517,-2.3834,-2.4133,-2.4119,-2.4018,-2.3644,-2.3202,-2.2756,-2.2824,-2.2915,-2.3053,-2.3078,-2.3078,-2.3078,-2.3078,-2.3078,-2.3078,-2.3078,-2.3078,-2.3078,-2.3078,-2.3078,-2.3078,-2.3078,-2.3078,-2.3078,-2.3078,-2.3078,-2.3078,-2.2884,-2.2506,-2.1889,-2.1491,-2.064,-1.9404,-1.9181,-1.9287,-1.959,-1.9697,-1.9932,-2.0254,-2.0469,-2.0566,-2.0566,-2.0566,-2.0566,-2.0566,-2.0566,-2.0566,-2.0605,-2.0937,-2.1133,-2.1279,-2.1611,-2.2002,-2.2373,-2.248,-2.2543,-2.2358,-2.1542,-2.0845,-2.0034,-1.8234,-1.7505,-1.7037,-1.6015,-1.5832,-1.5832,-1.5832,-1.5832,-1.5832,-1.5832,-1.5832,-1.5892,-1.6119,-1.6219,-1.6413,-1.6847,-1.7054,-1.7221,-1.7442,-1.7535,-1.7582,-1.7582,-1.7582,-1.7582,-1.7582,-1.7582,-1.7582,-1.7582,-1.7582,-1.7582,-1.7582,-1.7259,-1.6387,-1.4883,-1.348,-1.2077,-1.0566,-0.9482,-0.9083,-0.9381,-0.9381,-0.9534,-0.9822,-0.9822,-0.9822,0.0,-1.3974,0.0,-1.8253,-1.9869,-2.1156,-2.2473,-2.2787,-2.2759,-2.27,-2.2641,-2.2444,-2.1733,-2.1995,-2.2523,-2.299,-2.3078,-2.3078,-2.3078,-2.3078,-2.3078,-2.3078,-2.3078,-2.3078,-2.3078,-2.3078,-2.3078,-2.3078,-2.3078,-2.3078,-2.3078,-2.3078,-2.3078,-2.3078,-2.2384,-2.1939,-2.1877,-2.0268,-1.8988,-1.8115,-1.8467,-1.8682,-1.865,-1.9131,-1.9336,-1.9394,-2.0215,-2.0566,-2.0566,-2.0566,-2.0566,-2.0566,-2.0566,-2.0566,-2.0566,-2.0596,-2.0869,-2.124,-2.126,-2.1553,-2.1982,-2.2383,-2.1721,-2.0902,-2.1184,-1.967,-1.787,-1.7777,-1.6857,-1.592,-1.5825,-1.5832,-1.5832,-1.5832,-1.5832,-1.5832,-1.5832,-1.5832,-1.5832,-1.5845,-1.6079,-1.6286,-1.6313,-1.678,-1.7154,-1.7174,-1.7408,-1.7582,-1.7582,-1.7582,-1.7582,-1.7582,-1.7582,-1.7582,-1.7582,-1.7582,-1.7582,-1.7582,-1.628,-1.4877,-1.348,-1.1973,-1.0566,-0.9047,-0.8937,-0.9083,-0.9381,-0.9381,-0.9534,-0.9822,-0.9822,-0.9822,0.0,0.0,0.0,-1.6861,-1.8414,-1.9779,-2.1111,-2.2069,-2.2703,-2.2673,-2.231,-2.204,-2.2161,-2.1973,-2.1845,-2.2046,-2.2372,-2.2611,-2.2611,-2.2852,-2.3078,-2.3078,-2.3078,-2.3078,-2.3078,-2.3078,-2.3078,-2.3078,-2.3078,-2.3078,-2.3078,-2.3078,-2.2884,-2.2322,-2.2063,-2.1365,-2.0268,-1.9044,-1.8337,-1.8008,-1.8164,-1.8379,-1.8643,-1.8799,-1.9023,-1.9307,-1.9609,-1.9902,-2.0166,-2.0449,-2.0566,-2.0566,-2.0566,-2.0566,-2.0566,-2.0566,-2.0664,-2.0801,-2.0801,-2.1094,-2.1322,-2.0863,-2.0659,-2.0472,-1.9084,-1.8224,-1.7505,-1.6669,-1.6109,-1.5832,-1.5832,-1.5832,-1.5832,-1.5832,-1.5832,-1.5832,-1.5832,-1.5832,-1.5832,-1.5832,-1.5912,-1.6046,-1.6239,-1.66,-1.6934,-1.7121,-1.7395,-1.7582,-1.7582,-1.7582,-1.7582,-1.7582,-1.7582,-1.7582,-1.7582,-1.7582,-1.7582,-1.7582,-1.6174,-1.477,-1.3372,-1.1864,-1.0457,-0.8937,-0.894,-0.9035,-0.9235,-0.9334,-0.9486,-0.9686,-0.9778,-0.9822,-1.0329,0.0,0.0,0.0,-1.6547,-1.764,-1.9869,-2.0872,-2.1416,-2.1647,-2.1685,-2.1685,-2.1683,-2.1458,-2.1313,-2.1473,-2.1794,-2.2033,-2.2033,-2.2347,-2.2648,-2.2836,-2.2862,-2.2924,-2.3053,-2.3078,-2.3078,-2.3078,-2.3078,-2.3078,-2.3078,-2.3078,-2.2628,-2.1491,-2.1175,-2.0333,-1.8844,-1.8269,-1.8008,-1.8008,-1.8008,-1.8154,-1.8428,-1.8428,-1.8584,-1.8867,-1.9004,-1.9394,-1.9932,-2.0225,-2.0439,-2.0566,-2.0566,-2.0566,-2.0566,-2.0566,-2.0566,-2.0566,-2.0566,-2.0516,-2.0377,-1.9752,-1.9463,-1.905,-1.7655,-1.7132,-1.685,-1.6015,-1.5832,-1.5832,-1.5832,-1.5832,-1.5832,-1.5832,-1.5832,-1.5832,-1.5832,-1.5832,-1.5832,-1.5832,-1.5832,-1.5892,-1.6092,-1.6446,-1.6774,-1.6974,-1.7335,-1.7582,-1.7582,-1.7582,-1.7582,-1.7582,-1.7582,-1.7582,-1.7582,-1.7582,-1.7364,-1.6929,-1.5524,-1.4019,-1.2615,-1.1105,-0.9915,-0.8937,-0.894,-0.8984,-0.9083,-0.9283,-0.9459,-0.9612,-0.9754,-0.9822,0.0,0.0,0.0,-1.4064,-1.4259,-1.4827,-1.8687,-1.9091,-1.8841,-1.9541,-2.071,-2.1234,-2.004,-2.0338,-2.0899,-2.134,-2.1443,-2.1468,-2.1468,-2.1481,-2.1681,-2.2221,-2.2284,-2.2498,-2.3002,-2.3053,-2.3053,-2.3078,-2.3078,-2.3078,-2.3078,-2.3078,-2.231,-2.0655,-1.9759,-1.8844,-1.8008,-1.8008,-1.8008,-1.8008,-1.8008,-1.8008,-1.8008,-1.8008,-1.8008,-1.8037,-1.8437,-1.9092,-1.9883,-1.9902,-2.0166,-2.0547,-2.0557,-2.0566,-2.0566,-2.0566,-2.0566,-2.0557,-2.0557,-1.9835,-1.902,-1.9399,-1.8186,-1.6654,-1.7049,-1.6487,-1.5832,-1.5832,-1.5832,-1.5832,-1.5832,-1.5832,-1.5832,-1.5832,-1.5832,-1.5832,-1.5832,-1.5832,-1.5832,-1.5832,-1.5832,-1.5832,-1.5832,-1.6313,-1.6707,-1.6707,-1.7208,-1.7582,-1.7582,-1.7582,-1.7582,-1.7582,-1.7582,-1.7582,-1.7582,-1.7582,-1.6929,-1.5524,-1.4126,-1.262,-1.1214,-0.9699,-0.894,-0.894,-0.894,-0.894,-0.894,-0.9235,-0.9456,-0.9605,-0.9751,-0.9822,-1.0463,0.0,0.0,0.0,0.0,0.0,-1.6413,-1.7071,-1.7724,-1.9353,-1.9662,-1.965,-1.9836,-2.0,-2.0002,-1.975,-2.0376,-2.0891,-2.0891,-2.1242,-2.1543,-2.1694,-2.1719,-2.1933,-2.2485,-2.2535,-2.2711,-2.304,-2.3078,-2.3078,-2.3078,-2.2567,-2.1741,-2.0655,-1.9759,-1.8844,-1.8008,-1.8008,-1.8008,-1.8008,-1.8008,-1.8008,-1.8008,-1.8008,-1.8008,-1.8018,-1.8135,-1.8496,-1.9033,-1.9658,-1.999,-2.0127,-2.0439,-2.0566,-2.0566,-2.0566,-2.0089,-1.9441,-1.9441,-1.8709,-1.7674,-1.7032,-1.6723,-1.6433,-1.5838,-1.5701,-1.5832,-1.5832,-1.5832,-1.5832,-1.5832,-1.5832,-1.5832,-1.5832,-1.5832,-1.5832,-1.5832,-1.5832,-1.5832,-1.5832,-1.5832,-1.5832,-1.5832,-1.6313,-1.6707,-1.6707,-1.7208,-1.7582,-1.7582,-1.7582,-1.7582,-1.7582,-1.7582,-1.7582,-1.7582,-1.7582,-1.6929,-1.5524,-1.4126,-1.262,-1.1214,-0.9699,-0.894,-0.894,-0.894,-0.894,-0.894,-0.9235,-0.9401,-0.9449,-0.9703,-0.9822,-1.1548,0.0,-1.3215,-1.2923,0.0,0.0,-1.5379,-1.565,-1.6039,-1.8044,-1.8602,-1.8823,-1.8995,-1.9492,-1.9582,-1.8734,-1.9358,-2.0062,-2.0275,-2.0577,-2.0878,-2.1117,-2.1142,-2.1368,-2.192,-2.197,-2.2196,-2.2749,-2.2786,-2.2708,-2.2628,-2.1803,-2.0974,-2.0074,-1.9233,-1.8529,-1.8008,-1.8008,-1.8008,-1.8008,-1.8008,-1.8008,-1.8008,-1.8008,-1.8008,-1.8008,-1.8008,-1.8144,-1.8428,-1.9102,-1.959,-1.9941,-2.0195,-2.041,-2.0566,-2.0079,-1.952,-1.8957,-1.8479,-1.7577,-1.6519,-1.5861,-1.5716,-1.5651,-1.5184,-1.5284,-1.5671,-1.5798,-1.5832,-1.5832,-1.5832,-1.5832,-1.5832,-1.5832,-1.5832,-1.5832,-1.5832,-1.5832,-1.5832,-1.5832,-1.5832,-1.5832,-1.5832,-1.6313,-1.6707,-1.6707,-1.7208,-1.7582,-1.7582,-1.7582,-1.7582,-1.7582,-1.7582,-1.7582,-1.7582,-1.7041,-1.6062,-1.4663,-1.3156,-1.1755,-1.0241,-0.9375,-0.894,-0.894,-0.894,-0.8967,-0.9028,-0.9201,-0.9351,-0.9483,-0.9713,-0.9822,-1.2854,0.0,0.0,-1.4226,-1.3275,0.0,-1.4974,-1.4588,-1.4307,-1.6129,-1.7369,-1.8056,-1.767,-1.8731,-1.9275,-1.8017,-1.8482,-1.9157,-1.9648,-1.9761,-1.9987,-2.0567,-2.0618,-2.079,-2.1343,-2.1393,-2.1631,-2.2184,-2.2284,-2.2182,-2.1916,-2.1175,-2.0268,-1.9299,-1.8529,-1.8076,-1.8008,-1.8008,-1.8008,-1.8008,-1.8008,-1.8008,-1.8008,-1.8008,-1.8008,-1.8008,-1.8008,-1.8008,-1.8037,-1.8418,-1.9043,-1.9785,-1.9883,-2.0146,-2.042,-1.9344,-1.8957,-1.863,-1.7496,-1.6437,-1.5538,-1.5538,-1.5021,-1.4576,-1.4877,-1.5164,-1.5458,-1.5745,-1.5832,-1.5832,-1.5832,-1.5832,-1.5832,-1.5832,-1.5832,-1.5832,-1.5832,-1.5832,-1.5832,-1.5832,-1.5832,-1.5832,-1.5832,-1.6313,-1.6707,-1.6707,-1.7208,-1.7582,-1.7582,-1.7582,-1.7582,-1.7582,-1.7582,-1.7582,-1.7364,-1.6168,-1.477,-1.3156,-1.1864,-1.0457,-0.8937,-0.894,-0.894,-0.894,-0.894,-0.9001,-0.913,-0.9161,-0.9327,-0.9612,-0.9754,-0.9822,-1.583,-1.6214,-1.6588,-1.4829,-1.4699,0.0,-1.364,-1.36,-1.4064,-1.4992,-1.4947,-1.5062,-1.6171,-1.737,-1.7873,-1.6811,-1.7965,-1.9042,-1.9145,-1.9535,-1.9849,-1.9962,-1.9974,-2.02,-2.0819,-2.0882,-2.1054,-2.1606,-2.2071,-2.2182,-2.1916,-2.1753,-2.091,-1.9365,-1.911,-1.8721,-1.8008,-1.8008,-1.8008,-1.8008,-1.8008,-1.8008,-1.8008,-1.8008,-1.8008,-1.8008,-1.8008,-1.8008,-1.8018,-1.8096,-1.8428,-1.8955,-1.9648,-1.9971,-1.9926,-1.9243,-1.839,-1.7496,-1.6355,-1.5304,-1.4412,-1.4412,-1.4446,-1.4576,-1.4877,-1.5164,-1.5458,-1.5745,-1.5832,-1.5832,-1.5832,-1.5832,-1.5832,-1.5832,-1.5832,-1.5832,-1.5832,-1.5832,-1.5832,-1.5832,-1.5832,-1.5832,-1.5832,-1.6313,-1.6707,-1.6707,-1.7208,-1.7582,-1.7582,-1.7582,-1.7582,-1.7582,-1.7582,-1.7147,-1.5956,-1.5524,-1.4341,-1.1647,-1.1214,-1.0457,-0.8937,-0.894,-0.894,-0.894,-0.894,-0.8954,-0.8981,-0.9222,-0.9432,-0.9612,-0.9754,-0.9822,-1.7276,-1.7445,-1.7572,-1.6425,-1.5984,0.0,0.0,-1.379,-1.3765,-1.5397,-1.4722,-1.4225,-1.5639,-1.6452,-1.6746,-1.6239,-1.701,-1.7665,-1.7746,-1.8481,-1.9007,-1.9007,-1.9246,-1.9522,-1.9823,-2.0075,-2.0476,-2.1041,-2.1845,-2.1869,-2.0885,-2.1088,-2.0462,-1.8721,-1.8654,-1.8462,-1.8008,-1.8008,-1.8008,-1.8008,-1.8008,-1.8008,-1.8008,-1.8008,-1.8008,-1.8008,-1.8008,-1.8008,-1.8008,-1.8008,-1.7841,-1.7671,-1.8507,-1.8958,-1.8954,-1.7755,-1.7001,-1.6355,-1.5304,-1.4573,-1.4088,-1.4088,-1.4182,-1.4355,-1.4656,-1.505,-1.5458,-1.5745,-1.5832,-1.5832,-1.5832,-1.5832,-1.5832,-1.5832,-1.5832,-1.5832,-1.5832,-1.5832,-1.5832,-1.5832,-1.5832,-1.5832,-1.5832,-1.6199,-1.654,-1.6687,-1.7081,-1.7422,-1.7562,-1.7582,-1.7582,-1.7582,-1.6929,-1.6174,-1.5417,-1.4126,-1.2615,-1.1214,-1.0457,-0.9699,-0.8937,-0.894,-0.894,-0.894,-0.894,-0.894,-0.894,-0.9235,-0.9418,-0.95,-0.972,-0.9822,-1.8538,-1.844,-1.8339,-1.799,-1.7133,-1.6203,0.0,0.0,0.0,-1.5756,-1.489,-1.4169,-1.5394,-1.5623,-1.5679,-1.5633,-1.585,-1.6008,-1.5966,-1.6799,-1.7488,-1.7689,-1.8304,-1.8706,-1.8706,-1.9095,-1.9659,-2.0428,-2.1237,-2.1015,-1.9559,-2.0095,-1.9652,-1.8076,-1.8008,-1.8008,-1.8008,-1.8008,-1.8008,-1.8008,-1.8008,-1.8008,-1.8008,-1.8008,-1.8008,-1.8008,-1.8008,-1.8008,-1.8008,-1.7794,-1.7285,-1.6639,-1.7306,-1.7743,-1.7742,-1.6202,-1.5644,-1.5538,-1.4489,-1.4088,-1.4088,-1.4088,-1.4122,-1.4222,-1.4516,-1.4977,-1.5458,-1.5745,-1.5832,-1.5832,-1.5832,-1.5832,-1.5832,-1.5832,-1.5832,-1.5832,-1.5832,-1.5832,-1.5832,-1.5832,-1.5832,-1.5832,-1.5832,-1.6126,-1.6433,-1.6667,-1.7007,-1.7321,-1.7555,-1.7582,-1.7477,-1.7259,-1.6068,-1.5198,-1.4663,-1.2403,-1.1,-1.0672,-0.9592,-0.894,-0.894,-0.894,-0.894,-0.894,-0.894,-0.894,-0.894,-0.9235,-0.9381,-0.9388,-0.9683,-0.9822,-2.0884,-2.0722,-2.0222,-1.8425,-1.819,-1.761,-1.4692,0.0,-1.5214,-1.4318,0.0,-1.4034,-1.4767,0.0,0.0,-1.4342,-1.4662,-1.4752,-1.4101,-1.4328,-1.4928,-1.5869,-1.6923,-1.7564,-1.7564,-1.7626,-1.8239,-1.9612,-1.9497,-1.9185,-1.8764,-1.9386,-1.9244,-1.8066,-1.8008,-1.8008,-1.8008,-1.8008,-1.8008,-1.8008,-1.8008,-1.8008,-1.8008,-1.8008,-1.8008,-1.8008,-1.8008,-1.8008,-1.794,-1.707,-1.6706,-1.6612,-1.7072,-1.6954,-1.6335,-1.562,-1.5538,-1.5538,-1.4489,-1.4088,-1.4088,-1.4088,-1.4262,-1.4522,-1.4823,-1.5137,-1.5458,-1.5745,-1.5832,-1.5832,-1.5832,-1.5832,-1.5832,-1.5832,-1.5832,-1.5832,-1.5832,-1.5832,-1.5832,-1.5832,-1.5832,-1.5832,-1.5832,-1.6293,-1.6667,-1.67,-1.7174,-1.7549,-1.7582,-1.7582,-1.7147,-1.5743,-1.5524,-1.4341,-1.186,-1.1324,-1.0566,-0.9265,-0.9047,-0.894,-0.894,-0.894,-0.894,-0.894,-0.894,-0.894,-0.894,-0.9235,-0.9381,-0.9388,-0.9683,-0.9822,-2.0754,-2.0372,-1.9766,-1.898,-1.8453,-1.767,-1.589,-1.5351,-1.5261,-1.5442,0.0,0.0,0.0,0.0,0.0,0.0,-1.3698,-1.3205,-1.2983,-1.2775,-1.3304,-1.5054,-1.5683,-1.6308,-1.7287,-1.7388,-1.7644,-1.8226,-1.8343,-1.8095,-1.7406,-1.8465,-1.8636,-1.7703,-1.7881,-1.8008,-1.8008,-1.8008,-1.8008,-1.8008,-1.8008,-1.8008,-1.8008,-1.8008,-1.8008,-1.8008,-1.8008,-1.7716,-1.7139,-1.6775,-1.593,-1.4958,-1.5113,-1.5224,-1.5211,-1.4547,-1.455,-1.4734,-1.425,-1.4088,-1.4088,-1.4088,-1.4168,-1.4322,-1.4616,-1.491,-1.5204,-1.5498,-1.5698,-1.5832,-1.5832,-1.5832,-1.5832,-1.5832,-1.5832,-1.5832,-1.5832,-1.5832,-1.5832,-1.5832,-1.5832,-1.5832,-1.5832,-1.6179,-1.6513,-1.668,-1.7061,-1.7388,-1.7562,-1.7582,-1.7035,-1.5524,-1.4663,-1.3372,-1.1324,-1.0351,-0.9592,-0.8937,-0.894,-0.894,-0.894,-0.894,-0.894,-0.894,-0.894,-0.894,-0.894,-0.9147,-0.9296,-0.9388,-0.9683,-0.9822,-2.0313,-1.9939,-1.9366,-1.8718,-1.8143,-1.7428,-1.6413,-1.5726,-1.559,-1.6517,-1.5726,0.0,0.0,0.0,-1.3997,-1.4269,0.0,-1.2213,-1.2083,-1.1658,-1.2002,-1.3795,-1.4412,-1.5281,-1.6773,-1.669,-1.6552,-1.6739,-1.6941,-1.6803,-1.6203,-1.7374,-1.7852,-1.7439,-1.7676,-1.79,-1.8008,-1.8008,-1.8008,-1.8008,-1.8008,-1.8008,-1.8008,-1.8008,-1.8008,-1.8008,-1.7725,-1.7217,-1.6567,-1.6,-1.4942,-1.3673,-1.3455,-1.3708,-1.4145,-1.3675,-1.3761,-1.4088,-1.4088,-1.4088,-1.4088,-1.4088,-1.4088,-1.4142,-1.4436,-1.473,-1.5023,-1.5311,-1.5605,-1.5832,-1.5832,-1.5832,-1.5832,-1.5832,-1.5832,-1.5832,-1.5832,-1.5832,-1.5832,-1.5832,-1.5832,-1.5832,-1.5832,-1.6139,-1.6466,-1.6673,-1.7027,-1.7341,-1.7555,-1.7259,-1.6393,-1.4984,-1.3588,-1.2077,-1.0676,-0.9482,-0.894,-0.894,-0.894,-0.894,-0.894,-0.894,-0.894,-0.894,-0.894,-0.894,-0.894,-0.9083,-0.9232,-0.9388,-0.9642,-0.9785,-2.0204,-2.0146,-1.9648,-1.7143,-1.709,-1.7189,-1.5291,-1.5771,-1.6667,-1.6697,-1.7174,-1.7578,-1.7623,-1.6416,-1.5202,-1.4414,-1.3229,0.0,0.0,-1.0928,-1.0985,-1.1625,-1.3141,-1.4551,-1.5643,-1.4828,-1.4542,-1.5303,-1.5093,-1.5065,-1.5408,-1.6134,-1.6827,-1.7409,-1.7393,-1.7598,-1.8008,-1.8008,-1.8008,-1.8008,-1.8008,-1.8008,-1.8008,-1.8008,-1.8008,-1.794,-1.707,-1.6636,-1.6419,-1.4593,-1.3745,-1.36,-1.2739,-1.2748,-1.3206,-1.322,-1.3587,-1.4088,-1.4088,-1.4088,-1.4088,-1.4088,-1.4088,-1.4142,-1.4436,-1.473,-1.5023,-1.5311,-1.5605,-1.5832,-1.5832,-1.5832,-1.5832,-1.5832,-1.5832,-1.5832,-1.5832,-1.5832,-1.5832,-1.5832,-1.5832,-1.5832,-1.5832,-1.6306,-1.6693,-1.6707,-1.7201,-1.7569,-1.7582,-1.6387,-1.4877,-1.348,-1.2077,-1.0566,-0.9047,-0.8937,-0.894,-0.894,-0.894,-0.894,-0.894,-0.894,-0.894,-0.894,-0.894,-0.894,-0.894,-0.9083,-0.9232,-0.9384,-0.9544,-0.969,-2.0268,-2.0058,-1.9576,-1.8243,-1.7797,-1.7399,-1.6308,-1.6398,-1.6592,-1.6189,-1.6967,-1.7451,-1.6702,-1.5986,-1.5169,-1.4196,-1.2821,-1.163,0.0,-1.0777,-1.0906,-1.1525,-1.273,-1.3509,-1.3521,-1.3871,-1.4019,-1.3793,-1.3958,-1.4103,-1.4135,-1.5167,-1.6039,-1.6547,-1.708,-1.7578,-1.8008,-1.8008,-1.8008,-1.8008,-1.8008,-1.8008,-1.8008,-1.8008,-1.8008,-1.794,-1.7001,-1.6219,-1.5579,-1.4243,-1.331,-1.2732,-1.2445,-1.2545,-1.2926,-1.3133,-1.3581,-1.4088,-1.4088,-1.4088,-1.4088,-1.4088,-1.4088,-1.4108,-1.4202,-1.4576,-1.4983,-1.5084,-1.5458,-1.5832,-1.5832,-1.5832,-1.5832,-1.5832,-1.5832,-1.5832,-1.5832,-1.5832,-1.5832,-1.5832,-1.5832,-1.5832,-1.5832,-1.6313,-1.6707,-1.6707,-1.7208,-1.7259,-1.628,-1.5743,-1.4449,-1.2077,-1.1433,-1.0457,-0.9047,-0.894,-0.894,-0.894,-0.894,-0.894,-0.894,-0.894,-0.894,-0.894,-0.894,-0.894,-0.894,-0.8988,-0.9086,-0.9235,-0.9388,-0.9588,-1.9798,-1.9728,-1.9405,-1.8283,-1.8011,-1.7682,-1.6323,-1.6383,-1.6531,-1.5979,-1.6701,-1.7271,-1.6823,-1.6257,-1.5426,-1.4159,-1.2775,-1.1538,0.0,-1.0433,-1.0571,-1.0947,-1.1964,-1.2589,-1.246,-1.2693,-1.2854,-1.2748,-1.2813,-1.3049,-1.3488,-1.4424,-1.5293,-1.6105,-1.6768,-1.7432,-1.8008,-1.8008,-1.8008,-1.8008,-1.8008,-1.8008,-1.8008,-1.8008,-1.8008,-1.794,-1.6645,-1.579,-1.5092,-1.3738,-1.2879,-1.2305,-1.2305,-1.2485,-1.2862,-1.3093,-1.3581,-1.4088,-1.4088,-1.4088,-1.4088,-1.4088,-1.4088,-1.4088,-1.4088,-1.4422,-1.483,-1.4937,-1.5304,-1.5698,-1.5805,-1.5832,-1.5832,-1.5832,-1.5832,-1.5832,-1.5832,-1.5832,-1.5832,-1.5832,-1.5832,-1.5832,-1.5832,-1.6313,-1.6707,-1.6707,-1.7208,-1.7041,-1.563,-1.4984,-1.3696,-1.1324,-1.0676,-0.9915,-0.8937,-0.894,-0.894,-0.894,-0.894,-0.894,-0.894,-0.894,-0.894,-0.894,-0.894,-0.894,-0.894,-0.894,-0.9011,-0.9157,-0.931,-0.951]}]]